[[{"header":{"parameterUnit":"m.s-1","parameterCategory":1,"la1":30.6,"la2":28.766,"lo1":-90.7593,"lo2":-88.6598,"dy":0.0162,"dx":0.0183,"nx":116,"ny":114,"refTime":"2023-04-12T06:00:00:Z","depth":0,"parameterNumber":2,"parameterNumberName":"U-component_of_WINDS"},"data":[0.0,0.0,0.0,0.0,0.0,0.0,0.0,0.0,0.0,0.0,0.0,0.0,0.0,0.0,0.0,0.0,0.0,0.0,0.0,0.0,0.0,0.0,0.0,0.0,0.0,0.0,0.0,0.0,0.0,0.0,0.0,0.0,0.0,0.0,0.0,0.0,0.0,0.0,0.0,0.0,0.0,0.0,0.0,0.0,0.0,0.0,0.0,0.0,0.0,0.0,0.0,0.0,0.0,0.0,0.0,0.0,0.0,0.0,0.0,0.0,0.0,0.0,0.0,0.0,0.0,0.0,0.0,0.0,0.0,0.0,0.0,0.0,0.0,0.0,0.0,0.0,0.0,0.0,0.0,0.0,0.0,0.0,0.0,0.0,0.0,0.0,0.0,0.0,0.0,0.0,0.0,0.0,0.0,0.0,0.0,0.0,0.0,0.0,0.0,0.0,0.0,0.0,0.0,0.0,0.0,0.0,0.0,0.0,0.0,0.0,0.0,0.0,0.0,0.0,0.0,0.0,0.0,0.0,0.0,0.0,0.0,0.0,0.0,0.0,0.0,0.0,0.0,0.0,0.0,0.0,0.0,0.0,0.0,0.0,0.0,0.0,0.0,0.0,0.0,0.0,0.0,0.0,0.0,0.0,0.0,0.0,0.0,0.0,0.0,0.0,0.0,0.0,0.0,0.0,0.0,0.0,0.0,0.0,0.0,0.0,0.0,0.0,0.0,0.0,0.0,0.0,0.0,0.0,0.0,0.0,0.0,0.0,0.0,0.0,0.0,0.0,0.0,0.0,0.0,0.0,0.0,0.0,0.0,0.0,0.0,0.0,0.0,0.0,0.0,0.0,0.0,0.0,0.0,0.0,0.0,0.0,0.0,0.0,0.0,0.0,0.0,0.0,0.0,0.0,0.0,0.0,0.0,0.0,0.0,0.0,0.0,0.0,0.0,0.0,0.0,0.0,0.0,0.0,0.0,0.0,0.0,0.0,0.0,0.0,0.0,0.0,0.0,0.0,0.0,0.0,0.0,0.0,0.0,0.0,0.0,0.0,0.0,0.0,0.0,0.0,0.0,0.0,0.0,0.0,0.0,0.0,0.0,0.0,0.0,0.0,0.0,0.0,0.0,0.0,0.0,0.0,0.0,0.0,0.0,0.0,0.0,0.0,0.0,0.0,0.0,0.0,0.0,0.0,0.0,0.0,0.0,0.0,0.0,0.0,0.0,0.0,0.0,0.0,0.0,0.0,0.0,0.0,0.0,0.0,0.0,0.0,0.0,0.0,0.0,0.0,0.0,0.0,0.0,0.0,0.0,0.0,0.0,0.0,0.0,0.0,0.0,0.0,0.0,0.0,0.0,0.0,0.0,0.0,0.0,0.0,0.0,0.0,0.0,0.0,0.0,0.0,0.0,0.0,0.0,0.0,0.0,0.0,0.0,0.0,0.0,0.0,0.0,0.0,0.0,0.0,0.0,0.0,0.0,0.0,0.0,0.0,0.0,0.0,0.0,0.0,0.0,0.0,0.0,0.0,0.0,0.0,0.0,0.0,0.0,0.0,0.0,0.0,0.0,0.0,0.0,0.0,0.0,0.0,0.0,0.0,0.0,0.0,0.0,0.0,0.0,0.0,0.0,0.0,0.0,0.0,0.0,0.0,0.0,0.0,0.0,0.0,0.0,0.0,0.0,0.0,0.0,0.0,0.0,0.0,0.0,0.0,0.0,0.0,0.0,0.0,0.0,0.0,0.0,0.0,0.0,0.0,0.0,0.0,0.0,0.0,0.0,0.0,0.0,0.0,0.0,0.0,0.0,0.0,0.0,0.0,0.0,0.0,0.0,0.0,0.0,0.0,0.0,0.0,0.0,0.0,0.0,0.0,0.0,0.0,0.0,0.0,0.0,0.0,0.0,0.0,0.0,0.0,0.0,0.0,0.0,0.0,0.0,0.0,0.0,0.0,0.0,0.0,0.0,0.0,0.0,0.0,0.0,0.0,0.0,0.0,0.0,0.0,0.0,0.0,0.0,0.0,0.0,0.0,0.0,0.0,0.0,0.0,0.0,0.0,0.0,0.0,0.0,0.0,0.0,0.0,0.0,0.0,0.0,0.0,0.0,0.0,0.0,0.0,0.0,0.0,0.0,0.0,0.0,0.0,0.0,0.0,0.0,0.0,0.0,0.0,0.0,0.0,0.0,0.0,0.0,0.0,0.0,0.0,0.0,0.0,0.0,0.0,0.0,0.0,0.0,0.0,0.0,0.0,0.0,0.0,0.0,0.0,0.0,0.0,0.0,0.0,0.0,0.0,0.0,0.0,0.0,0.0,0.0,0.0,0.0,0.0,0.0,0.0,0.0,0.0,0.0,0.0,0.0,0.0,0.0,0.0,0.0,0.0,0.0,0.0,0.0,0.0,0.0,0.0,0.0,0.0,0.0,0.0,0.0,0.0,0.0,0.0,0.0,0.0,0.0,0.0,0.0,0.0,0.0,0.0,0.0,0.0,0.0,0.0,0.0,0.0,0.0,0.0,0.0,0.0,0.0,0.0,0.0,0.0,0.0,0.0,0.0,0.0,0.0,0.0,0.0,0.0,0.0,0.0,0.0,0.0,0.0,0.0,0.0,0.0,0.0,0.0,0.0,0.0,0.0,0.0,0.0,0.0,0.0,0.0,0.0,0.0,0.0,0.0,0.0,0.0,0.0,0.0,0.0,0.0,0.0,0.0,0.0,0.0,0.0,0.0,0.0,0.0,0.0,0.0,0.0,0.0,0.0,0.0,0.0,0.0,0.0,0.0,0.0,0.0,0.0,0.0,0.0,0.0,0.0,0.0,0.0,0.0,0.0,0.0,0.0,0.0,0.0,0.0,0.0,0.0,0.0,0.0,0.0,0.0,0.0,0.0,0.0,0.0,0.0,0.0,0.0,0.0,0.0,0.0,0.0,0.0,0.0,0.0,0.0,0.0,0.0,0.0,0.0,0.0,0.0,0.0,0.0,0.0,0.0,0.0,0.0,0.0,0.0,0.0,0.0,0.0,0.0,0.0,0.0,0.0,0.0,0.0,0.0,0.0,0.0,0.0,0.0,0.0,0.0,0.0,0.0,0.0,0.0,0.0,0.0,0.0,0.0,0.0,0.0,0.0,0.0,0.0,0.0,0.0,0.0,0.0,0.0,0.0,0.0,0.0,0.0,0.0,0.0,0.0,0.0,0.0,0.0,0.0,0.0,0.0,0.0,0.0,0.0,0.0,0.0,0.0,0.0,0.0,0.0,0.0,0.0,0.0,0.0,0.0,0.0,0.0,0.0,0.0,0.0,0.0,0.0,0.0,0.0,0.0,0.0,0.0,0.0,0.0,0.0,0.0,0.0,0.0,0.0,0.0,0.0,0.0,0.0,0.0,0.0,0.0,0.0,0.0,0.0,0.0,0.0,0.0,0.0,0.0,0.0,0.0,0.0,0.0,0.0,0.0,0.0,0.0,0.0,0.0,0.0,0.0,0.0,0.0,0.0,0.0,0.0,0.0,0.0,0.0,0.0,0.0,0.0,0.0,0.0,0.0,0.0,0.0,0.0,0.0,0.0,0.0,0.0,0.0,0.0,0.0,0.0,0.0,0.0,0.0,0.0,0.0,0.0,0.0,0.0,0.0,0.0,0.0,0.0,0.0,0.0,0.0,0.0,0.0,0.0,0.0,0.0,0.0,0.0,0.0,0.0,0.0,0.0,0.0,0.0,0.0,0.0,0.0,0.0,0.0,0.0,0.0,0.0,0.0,0.0,0.0,0.0,0.0,0.0,0.0,0.0,0.0,0.0,0.0,0.0,0.0,0.0,0.0,0.0,0.0,0.0,0.0,0.0,0.0,0.0,0.0,0.0,0.0,0.0,0.0,0.0,0.0,0.0,0.0,0.0,0.0,0.0,0.0,0.0,0.0,0.0,0.0,0.0,0.0,0.0,0.0,0.0,0.0,0.0,0.0,0.0,0.0,0.0,0.0,0.0,0.0,0.0,0.0,0.0,0.0,0.0,0.0,0.0,0.0,0.0,0.0,0.0,0.0,0.0,0.0,0.0,0.0,0.0,0.0,0.0,0.0,0.0,0.0,0.0,0.0,0.0,0.0,0.0,0.0,0.0,0.0,0.0,0.0,0.0,0.0,0.0,0.0,0.0,0.0,0.0,0.0,0.0,0.0,0.0,0.0,0.0,0.0,0.0,0.0,0.0,0.0,0.0,0.0,0.0,0.0,0.0,0.0,0.0,0.0,0.0,0.0,0.0,0.0,0.0,0.0,0.0,0.0,0.0,0.0,0.0,0.0,0.0,0.0,0.0,0.0,0.0,0.0,0.0,0.0,0.0,0.0,0.0,0.0,0.0,0.0,0.0,0.0,0.0,0.0,0.0,0.0,0.0,0.0,0.0,0.0,0.0,0.0,0.0,0.0,0.0,0.0,0.0,0.0,0.0,0.0,0.0,0.0,0.0,0.0,0.0,0.0,0.0,0.0,0.0,0.0,0.0,0.0,0.0,0.0,0.0,0.0,0.0,0.0,0.0,0.0,0.0,0.0,0.0,0.0,0.0,0.0,0.0,0.0,0.0,0.0,0.0,0.0,0.0,0.0,0.0,0.0,0.0,0.0,0.0,0.0,0.0,0.0,0.0,0.0,0.0,0.0,0.0,0.0,0.0,0.0,0.0,0.0,0.0,0.0,0.0,0.0,0.0,0.0,0.0,0.0,0.0,0.0,0.0,0.0,0.0,0.0,0.0,0.0,0.0,0.0,0.0,0.0,0.0,0.0,0.0,0.0,0.0,0.0,0.0,0.0,0.0,0.0,0.0,0.0,0.0,0.0,0.0,0.0,0.0,0.0,0.0,0.0,0.0,0.0,0.0,0.0,0.0,0.0,0.0,0.0,0.0,0.0,0.0,0.0,0.0,0.0,0.0,0.0,0.0,0.0,0.0,0.0,0.0,0.0,0.0,0.0,0.0,0.0,0.0,0.0,0.0,0.0,0.0,0.0,0.0,0.0,0.0,0.0,0.0,0.0,0.0,0.0,0.0,0.0,0.0,0.0,0.0,0.0,0.0,0.0,0.0,0.0,0.0,0.0,0.0,0.0,0.0,0.0,0.0,0.0,0.0,0.0,0.0,0.0,0.0,0.0,0.0,0.0,0.0,0.0,0.0,0.0,0.0,0.0,0.0,0.0,0.0,0.0,0.0,0.0,0.0,0.0,0.0,0.0,0.0,0.0,0.0,0.0,0.0,0.0,0.0,0.0,0.0,0.0,0.0,0.0,0.0,0.0,0.0,0.0,0.0,0.0,0.0,0.0,0.0,0.0,0.0,0.0,0.0,0.0,0.0,0.0,0.0,0.0,0.0,0.0,0.0,0.0,0.0,0.0,0.0,0.0,0.0,0.0,0.0,0.0,0.0,0.0,0.0,0.0,0.0,0.0,0.0,0.0,0.0,0.0,0.0,0.0,0.0,0.0,0.0,0.0,0.0,0.0,0.0,0.0,0.0,0.0,0.0,0.0,0.0,0.0,0.0,0.0,0.0,0.0,0.0,0.0,0.0,0.0,0.0,0.0,0.0,0.0,0.0,0.0,0.0,0.0,0.0,0.0,0.0,0.0,0.0,0.0,0.0,0.0,0.0,0.0,0.0,0.0,0.0,0.0,0.0,0.0,0.0,0.0,0.0,0.0,0.0,0.0,0.0,0.0,0.0,0.0,0.0,0.0,0.0,0.0,0.0,0.0,0.0,0.0,0.0,0.0,0.0,0.0,0.0,0.0,0.0,0.0,0.0,0.0,0.0,0.0,0.0,0.0,0.0,0.0,0.0,0.0,0.0,0.0,0.0,0.0,0.0,0.0,0.0,0.0,0.0,0.0,0.0,0.0,0.0,0.0,0.0,0.0,0.0,0.0,0.0,0.0,0.0,0.0,0.0,0.0,0.0,0.0,0.0,0.0,0.0,0.0,0.0,0.0,0.0,0.0,0.0,0.0,0.0,0.0,0.0,0.0,0.0,0.0,0.0,0.0,0.0,0.0,0.0,0.0,0.0,0.0,0.0,0.0,0.0,0.0,0.0,0.0,0.0,0.0,0.0,0.0,0.0,0.0,0.0,0.0,0.0,0.0,-2.343,-2.4622,0.0,0.0,0.0,0.0,0.0,0.0,0.0,0.0,0.0,0.0,0.0,0.0,0.0,0.0,0.0,0.0,0.0,0.0,0.0,0.0,0.0,0.0,0.0,0.0,0.0,0.0,0.0,0.0,0.0,0.0,0.0,0.0,0.0,0.0,0.0,0.0,0.0,-0.5935,-0.5631,-0.5816,-0.646,-0.6803,-0.7863,-0.9566,0.0,0.0,0.0,0.0,0.0,0.0,0.0,0.0,0.0,0.0,0.0,0.0,0.0,0.0,0.0,0.0,0.0,0.0,0.0,0.0,0.0,0.0,0.0,0.0,0.0,0.0,0.0,0.0,0.0,0.0,0.0,0.0,0.0,0.0,0.0,0.0,0.0,0.0,0.0,0.0,0.0,0.0,0.0,0.0,0.0,0.0,0.0,0.0,0.0,0.0,0.0,0.0,0.0,0.0,0.0,0.0,0.0,0.0,0.0,0.0,0.0,0.0,0.0,0.0,0.0,0.0,0.0,0.0,0.0,0.0,-2.4127,-2.4702,0.0,0.0,0.0,0.0,0.0,0.0,0.0,0.0,0.0,0.0,0.0,0.0,0.0,0.0,0.0,0.0,0.0,0.0,0.0,0.0,0.0,0.0,0.0,-0.8815,-0.8016,-0.6049,-0.6176,-0.6391,-0.6424,0.0,0.0,0.0,0.0,0.0,-0.605,-0.5776,-0.5579,-0.5549,-0.5603,-0.5728,-0.5925,-0.6234,-0.7324,-0.8916,-0.9502,0.0,0.0,0.0,0.0,0.0,0.0,0.0,0.0,0.0,0.0,0.0,0.0,0.0,0.0,0.0,0.0,0.0,0.0,0.0,0.0,0.0,0.0,0.0,0.0,0.0,0.0,0.0,0.0,0.0,0.0,0.0,0.0,0.0,0.0,0.0,0.0,0.0,0.0,0.0,0.0,0.0,0.0,0.0,0.0,0.0,0.0,0.0,0.0,0.0,0.0,0.0,0.0,0.0,0.0,0.0,0.0,0.0,0.0,0.0,0.0,0.0,0.0,0.0,-2.3879,-2.4544,-2.5097,-2.5113,-2.5217,-2.5388,-2.5719,-2.5554,-2.5232,-2.71,0.0,0.0,0.0,0.0,0.0,0.0,0.0,0.0,0.0,0.0,0.0,0.0,0.0,0.0,0.0,0.0,0.0,0.0,0.0,-0.7767,-0.872,-0.8789,-0.8465,-0.7725,-0.637,-0.5778,-0.6211,0.0,0.0,0.0,0.0,-0.5317,-0.5522,-0.5569,-0.5525,-0.5459,-0.5647,-0.5983,-0.639,-0.6698,-0.6987,-0.744,-0.9101,-1.0233,-1.0926,0.0,0.0,0.0,0.0,0.0,0.0,0.0,0.0,0.0,0.0,0.0,0.0,0.0,0.0,0.0,0.0,0.0,0.0,0.0,0.0,0.0,0.0,0.0,0.0,0.0,0.0,0.0,0.0,0.0,0.0,0.0,0.0,0.0,0.0,0.0,0.0,0.0,0.0,0.0,0.0,0.0,-1.3825,-1.4741,0.0,0.0,0.0,0.0,0.0,0.0,0.0,0.0,0.0,0.0,0.0,0.0,0.0,-2.1384,-2.472,-2.4002,-2.4444,-2.5912,-2.5548,-2.5688,-2.6296,-2.6271,-2.6667,-2.7242,-2.731,0.0,-2.682,-2.5511,0.0,0.0,0.0,0.0,0.0,0.0,0.0,0.0,0.0,0.0,0.0,0.0,0.0,0.0,0.0,0.0,0.0,0.0,0.0,0.0,0.0,-0.7155,-0.722,-0.7939,-0.7777,-0.7345,-0.6543,-0.7022,0.0,0.0,-0.5342,-0.542,-0.5488,-0.5633,-0.5762,-0.594,-0.6162,-0.6407,-0.6607,-0.6909,-0.7082,-0.7136,-0.8645,-0.9516,-0.9812,-1.0575,0.0,0.0,0.0,0.0,0.0,0.0,0.0,0.0,0.0,0.0,0.0,0.0,0.0,0.0,0.0,0.0,0.0,0.0,0.0,0.0,0.0,0.0,0.0,0.0,0.0,0.0,0.0,0.0,0.0,0.0,0.0,0.0,0.0,0.0,0.0,0.0,0.0,0.0,0.0,-1.3563,-1.5078,-1.615,-1.6992,-1.7607,0.0,0.0,0.0,0.0,0.0,0.0,0.0,0.0,0.0,-2.1072,-2.1358,-2.2491,-2.4695,-2.5197,-2.5938,-2.6917,-2.6979,-2.7278,-2.7868,-2.7549,-2.7591,-2.7863,-2.7592,-2.7627,-2.7843,-2.6823,-2.6917,-2.7653,0.0,0.0,0.0,0.0,-2.719,-2.734,0.0,0.0,0.0,0.0,0.0,0.0,0.0,0.0,0.0,0.0,0.0,0.0,-0.6052,-0.7021,-0.784,-0.8382,-0.8874,-0.8575,-0.7414,-0.7539,-0.6961,-0.549,-0.5491,-0.5549,-0.5589,-0.5806,-0.6067,-0.6373,-0.6668,-0.6854,-0.6936,-0.7231,-0.739,-0.7434,-0.8652,-0.9134,-0.9157,-0.9527,-0.933,-0.8529,0.0,0.0,0.0,0.0,0.0,0.0,0.0,0.0,0.0,0.0,0.0,0.0,0.0,0.0,0.0,0.0,0.0,0.0,0.0,0.0,0.0,0.0,0.0,0.0,0.0,0.0,0.0,0.0,0.0,0.0,0.0,0.0,0.0,0.0,0.0,0.0,0.0,-1.479,-1.629,-1.7122,-1.8154,-1.8887,0.0,0.0,0.0,0.0,0.0,0.0,-1.958,-2.0019,-2.0883,-2.2237,-2.2963,-2.3872,-2.5191,-2.6664,-2.769,-2.8335,-2.875,-2.9176,-2.9548,-2.9129,-2.8862,-2.8713,-2.8322,-2.8321,-2.8464,-2.7706,-2.7162,-2.6868,-2.6749,-2.6868,-2.7045,-2.6986,-2.7141,-2.7187,0.0,0.0,0.0,0.0,0.0,0.0,0.0,0.0,0.0,0.0,0.0,-0.4633,-0.4928,-1.0155,-1.2572,-0.984,-0.8837,-0.8522,-0.8969,-0.6834,-0.5568,-0.5572,-0.5447,-0.544,-0.5586,-0.6017,-0.6383,-0.6678,-0.6973,-0.7268,-0.756,-0.7855,-0.8072,-0.8316,-0.9415,-0.9916,-0.972,-0.8819,-0.8696,-0.8922,-0.7558,0.0,0.0,0.0,0.0,0.0,0.0,0.0,0.0,0.0,0.0,0.0,0.0,0.0,0.0,0.0,0.0,0.0,0.0,0.0,0.0,0.0,0.0,0.0,0.0,0.0,0.0,0.0,0.0,0.0,0.0,0.0,0.0,0.0,0.0,0.0,0.0,0.0,0.0,-1.6753,-1.8232,0.0,0.0,0.0,0.0,-1.9853,-2.0215,-2.0459,-2.0498,-2.0928,-2.179,-2.3175,-2.4312,-2.6058,-2.8559,-2.9237,-3.0141,-3.1185,-3.121,-3.1242,-3.1293,-3.128,-3.0933,-3.0457,-3.0431,-2.9808,-2.8674,-2.6559,-2.687,-2.8634,-2.7904,-2.8112,-2.8864,-2.8675,-2.7934,-2.6909,0.0,0.0,0.0,0.0,0.0,0.0,0.0,0.0,-0.4553,-0.4596,-0.4532,-0.4534,-0.4628,-0.7597,-0.9802,-1.0258,-0.9042,-0.8094,-0.7843,-0.7241,-0.6565,-0.5665,-0.5728,-0.5995,-0.6332,-0.6599,-0.6885,-0.7278,-0.7675,-0.797,-0.8174,-0.8476,-0.8648,-0.8699,-0.9122,-0.9268,-0.9201,-0.8971,-0.8561,-0.7968,-0.7086,-0.6888,0.0,0.0,0.0,0.0,0.0,0.0,0.0,0.0,0.0,0.0,0.0,0.0,0.0,0.0,0.0,0.0,0.0,0.0,0.0,0.0,0.0,0.0,0.0,0.0,0.0,0.0,0.0,0.0,0.0,0.0,0.0,0.0,0.0,0.0,0.0,0.0,0.0,-1.9409,-2.0166,0.0,-2.1094,-2.0908,-2.0879,-2.1162,-2.1328,-2.165,-2.2207,-2.29,-2.3899,-2.5451,-2.5873,-2.7261,-2.9697,-2.9984,-3.0786,-3.1913,-3.1913,-3.1913,-3.1876,-3.1567,-3.1095,-3.0628,-3.062,-3.0189,-2.9402,-2.8222,-2.7774,-2.7777,-2.7182,-2.7095,-2.7351,-2.7284,-2.7341,-2.7203,0.0,0.0,0.0,0.0,0.0,0.0,0.0,-0.4519,-0.4556,-0.4602,-0.4604,-0.4751,-0.5047,-0.8072,-1.0327,-1.107,-0.9776,-0.869,-0.8212,-0.7415,-0.6622,-0.5749,-0.5579,-0.5892,-0.6655,-0.7063,-0.7397,-0.7746,-0.8201,-0.8469,-0.8567,-0.8869,-0.9011,-0.9015,-0.9066,-0.9086,-0.9039,-0.9093,-0.8553,-0.7495,-0.7197,-0.7224,-0.7411,0.0,0.0,0.0,0.0,0.0,0.0,0.0,0.0,0.0,0.0,0.0,0.0,0.0,0.0,0.0,0.0,0.0,0.0,0.0,0.0,0.0,0.0,0.0,0.0,0.0,0.0,0.0,0.0,0.0,0.0,0.0,0.0,0.0,0.0,-1.756,-1.943,-2.1413,-2.2051,-2.2529,-2.3096,-2.2773,-2.2646,-2.2939,-2.3105,-2.3496,-2.4209,-2.4785,-2.5645,-2.6723,-2.7421,-2.8602,-3.0128,-3.1061,-3.1871,-3.2503,-3.2729,-3.2659,-3.2475,-3.2143,-3.166,-3.115,-3.095,-3.0571,-3.003,-2.9453,-2.8787,-2.8072,-2.7507,-2.718,-2.7067,-2.7444,-2.7672,-2.761,0.0,0.0,0.0,0.0,0.0,0.0,-0.4625,-0.4519,-0.4519,-0.4522,-0.4736,-0.5315,-0.6354,-1.1939,-1.4689,-1.2267,-1.0849,-1.0095,-1.0095,-0.7175,-0.5596,-0.5976,-0.5064,-0.5192,-0.6515,-0.7377,-0.7906,-0.8069,-0.8513,-0.873,-0.8737,-0.9032,-0.9167,-0.9178,-0.9323,-0.9391,-0.9384,-0.9225,-0.8655,-0.7851,-0.7831,-0.7743,-0.7634,0.0,0.0,0.0,0.0,0.0,0.0,0.0,0.0,0.0,0.0,0.0,0.0,0.0,0.0,0.0,0.0,0.0,0.0,0.0,0.0,0.0,0.0,0.0,0.0,0.0,0.0,0.0,0.0,0.0,0.0,0.0,0.0,0.0,-1.7143,-2.0282,-2.2549,-2.2607,-2.3711,-2.4463,-2.4473,-2.4863,-2.5107,-2.5107,-2.5527,-2.5967,-2.6387,-2.6426,-2.6621,-2.7021,-2.8902,-2.9969,-2.9958,-3.2485,-3.3533,-3.3093,-3.3646,-3.3608,-3.3081,-3.3081,-3.2771,-3.2203,-3.1643,-3.1123,-3.057,-3.0043,-2.9817,-2.9741,-2.9176,-2.8624,-2.8298,-2.939,-2.9089,-2.8134,0.0,0.0,0.0,0.0,0.0,0.0,-0.4515,-0.4519,-0.4549,-0.4695,-0.4675,-0.5869,-0.906,-1.1201,-1.1905,-1.0656,-0.9365,-0.8311,-0.756,-0.6306,-0.5425,-0.5106,-0.5767,-0.6642,-0.7745,-0.8014,-0.8323,-0.8693,-0.9032,-0.9198,-0.9201,-0.9395,-0.954,-0.9635,-0.9574,-0.9605,-0.9683,-0.9429,-0.9113,-0.8747,-0.8316,-0.8119,-0.8165,0.0,0.0,0.0,0.0,0.0,0.0,0.0,0.0,0.0,0.0,0.0,0.0,0.0,0.0,0.0,0.0,0.0,0.0,0.0,0.0,0.0,0.0,0.0,0.0,0.0,0.0,0.0,0.0,0.0,0.0,0.0,-1.6438,-1.8786,-1.8692,-2.1172,-2.3437,-2.4697,-2.5166,-2.5498,-2.581,-2.5957,-2.6025,-2.6025,-2.6426,-2.6719,-2.6836,-2.7139,-2.7363,-2.748,-2.8054,-2.861,-2.9125,-2.9554,-3.0651,-3.2342,-3.2524,-3.3007,-3.3665,-3.3665,-3.3179,-3.2167,-3.2012,-3.1442,-3.0608,-3.0457,-3.0156,-2.9779,-2.9616,-2.9465,-2.9365,-2.9679,-2.9327,-2.8699,0.0,0.0,0.0,0.0,0.0,0.0,-0.4897,-0.468,-0.4543,-0.4671,-0.5114,-0.6654,-1.0068,-1.1392,-1.1449,-1.0,-0.9129,-0.8165,-0.7126,-0.6446,-0.5941,-0.5676,-0.6747,-0.7636,-0.8319,-0.8477,-0.8771,-0.9218,-0.9391,-0.9507,-0.9568,-0.9656,-0.9741,-0.9819,-0.9734,-0.9781,-0.9907,-0.9734,-0.9646,-0.9707,-0.996,-0.9945,-0.9761,-1.0826,-1.1281,-1.1567,-1.2986,-1.372,-1.4052,-1.4469,0.0,0.0,0.0,0.0,0.0,0.0,0.0,0.0,0.0,0.0,0.0,0.0,0.0,0.0,0.0,0.0,0.0,0.0,0.0,0.0,0.0,0.0,0.0,0.0,-1.7956,-2.0661,-2.1184,-2.3116,-2.4941,-2.6133,-2.6435,-2.6787,-2.7393,-2.7451,-2.7519,-2.7705,-2.7773,-2.7812,-2.7812,-2.7891,-2.793,-2.793,-2.8257,-2.8625,-2.9126,-2.9255,-3.0197,-3.2046,-3.2079,-3.2623,-3.3583,-3.3568,-3.3205,-3.2598,-3.2327,-3.1829,-3.126,-3.1035,-3.062,0.0,0.0,0.0,0.0,0.0,-2.9578,-2.9289,0.0,0.0,0.0,0.0,0.0,0.0,-0.5328,-0.4948,-0.4622,-0.4508,-0.5763,-0.7596,-1.0096,-1.191,-1.2079,-0.9844,-0.9483,-0.8896,-0.7677,-0.7099,-0.6846,-0.6949,-0.783,-0.8368,-0.8364,-0.8794,-0.9211,-0.9608,-0.9642,-0.9713,-0.9822,-0.9839,-0.9856,-0.9873,-0.9856,-0.9941,-1.01,-1.0083,-1.0277,-1.0767,-1.2217,-1.2324,-1.1737,-1.3101,-1.3788,-1.4102,-1.4768,-1.5046,-1.5075,-1.5315,0.0,0.0,0.0,0.0,0.0,0.0,0.0,0.0,0.0,0.0,0.0,0.0,0.0,0.0,0.0,0.0,0.0,0.0,0.0,0.0,0.0,0.0,0.0,0.0,-1.9262,-2.1921,-2.3828,-2.5472,-2.6672,-2.7256,-2.7646,-2.8174,-2.8926,-2.8994,-2.915,-2.9541,-2.917,-2.8916,-2.8916,-2.8525,0.0,0.0,0.0,-2.9361,-2.9258,-3.0035,-3.083,-3.1482,-3.1669,-3.2124,-3.2857,-3.2947,-3.3043,-3.292,-3.2487,-3.2226,-3.2143,-3.17,-3.1135,-3.0557,-3.0005,-2.9792,-2.9792,-2.9792,-2.9792,-2.9792,0.0,0.0,0.0,0.0,0.0,0.0,-0.4732,-0.521,-0.535,-0.4613,-0.6138,-0.8161,-1.0296,-1.114,-1.0905,-0.9499,-0.8893,-0.8056,-0.6645,-0.668,-0.7027,-0.7753,-0.8258,-0.8663,-0.8974,-0.931,-0.9523,-0.9608,-0.9846,-0.9917,-0.9825,-0.9947,-1.007,-1.0188,-1.0059,-1.0154,-1.0399,-1.0283,-1.1114,-1.2494,-1.4084,-1.3676,-1.2147,-1.4729,-1.5429,-1.5019,-1.577,-1.6347,-1.6577,-1.5677,-1.521,-1.4545,-1.2341,-1.0944,0.0,0.0,0.0,0.0,0.0,0.0,0.0,0.0,0.0,0.0,0.0,0.0,0.0,0.0,0.0,0.0,0.0,0.0,0.0,-1.7235,-1.9686,-2.2229,-2.416,-2.5933,-2.7503,-2.8953,-2.915,-2.9268,-2.9434,-2.9443,-2.9482,-2.956,-2.917,-2.8916,-2.8916,-2.8525,-2.8291,-2.8291,-2.8416,-2.8232,-2.7538,-2.7642,-2.8181,-2.9042,-2.9449,0.0,-3.1366,-3.2302,-3.25,-3.2179,-3.2648,-3.2684,-3.2153,-3.2118,-3.1486,-3.0557,-3.0005,-2.9792,-2.9792,-2.9792,-2.9792,-2.9792,0.0,0.0,0.0,0.0,0.0,0.0,-0.595,-0.5923,-0.5558,-0.4613,-0.5994,-0.7849,-0.9903,-1.0361,-1.0,-0.859,-0.761,-0.6797,-0.641,-0.6858,-0.7451,-0.8126,-0.8581,-0.9028,-0.9479,-0.9635,-0.9825,-1.0049,-1.0127,-1.0127,-1.0049,-1.0049,-1.009,-1.0161,-1.0083,-1.0215,-1.0487,-1.0415,-1.0931,-1.2017,-1.4605,-1.4891,-1.4113,-1.695,-1.7812,-1.748,-1.743,-1.7375,-1.7228,-1.6353,-1.566,-1.4921,-1.3481,-1.221,-1.1056,0.0,0.0,0.0,0.0,0.0,0.0,0.0,0.0,0.0,0.0,0.0,0.0,0.0,0.0,-1.5137,-1.5732,0.0,-1.7495,-1.8524,-2.0659,-2.2836,-2.4984,-2.6637,-2.8159,-2.9497,-2.957,-2.9648,-2.9863,-2.9883,-2.998,-3.0215,-2.9619,-2.9248,-2.9248,-2.8643,-2.8291,-2.8291,-2.8291,-2.8086,-2.7656,-2.7441,-2.7943,-2.8917,-2.8869,-2.9406,-3.0525,-3.1778,-3.2046,-3.1608,-3.2649,-3.292,-3.2573,-3.2018,-3.1486,-3.0922,-3.0105,-2.9792,-2.9792,-2.9792,-2.9792,-2.9792,0.0,0.0,0.0,0.0,0.0,0.0,-0.7052,-0.6509,-0.5653,-0.4613,-0.598,-0.7676,-0.9343,-0.9747,-0.9272,-0.7752,-0.6398,-0.5867,-0.6519,-0.7187,-0.7807,-0.8377,-0.8913,-0.9408,-0.9856,-0.9866,-1.0056,-1.0453,-1.0365,-1.0307,-1.028,-1.0181,-1.0137,-1.0137,-1.0137,-1.0283,-1.0538,-1.0921,-1.1403,-1.2079,-1.5095,-1.6576,-1.6897,-1.9101,-1.99,-1.9686,-1.8804,-1.7948,-1.7186,-1.672,-1.6049,-1.513,-1.4472,-1.3969,-1.3097,-1.0861,-1.0031,0.0,0.0,0.0,0.0,0.0,0.0,0.0,0.0,-1.5391,-1.5538,-1.5772,-1.6099,-1.6567,-1.7281,-1.7949,-1.8718,-1.972,-2.1589,-2.3557,-2.5659,-2.7443,-2.8753,-2.9663,-2.9775,-2.9961,-3.0303,-3.0332,-3.0449,-3.0732,-3.0019,-2.9531,-2.9443,-2.8711,-2.8291,-2.8291,-2.8291,-2.8252,-2.8174,-2.7832,-2.8117,-2.9002,-2.8746,-2.8932,-2.959,-3.0843,-3.1274,-3.1196,-3.2537,-3.3081,-3.2993,-3.1851,-3.1386,-3.1286,-3.0218,-2.9792,-2.9792,-2.9792,-2.9792,-2.9792,0.0,0.0,0.0,0.0,0.0,0.0,0.0,0.0,-0.6014,-0.4659,-0.6858,-0.865,-0.8884,-0.9137,-0.8759,-0.7479,-0.6273,-0.5956,-0.682,-0.7204,-0.7838,-0.8821,-0.9181,-0.9564,-1.0015,-1.0022,-1.0114,-1.0304,-1.0415,-1.0405,-1.0283,-1.0392,-1.0443,-1.0443,-1.0443,-1.0534,-1.0826,-1.2385,-1.4068,-1.5972,-1.7579,-1.9304,-2.0829,-2.0715,-2.0254,-1.9686,-1.8804,-1.7378,-1.5834,-1.6209,-1.5654,-1.4783,-1.4404,-1.4237,-1.3686,-1.1151,-0.9947,-0.9266,-0.7951,-0.8098,-0.9216,-1.1111,-1.2686,-1.4127,0.0,-1.6914,-1.7301,-1.7328,-1.7789,-1.8223,-1.8323,-1.9032,-1.9726,-2.012,-2.2097,-2.4086,-2.5725,-2.7443,-2.8855,-2.9947,-3.0488,-3.0762,-3.081,-3.081,-3.0664,-3.0303,-2.9834,-2.9404,-2.9014,-2.8555,-2.8291,-2.8291,-2.8291,-2.8115,-2.7744,-2.7685,-2.7574,-2.7284,-2.7648,-2.7851,-2.8031,-2.9178,-3.011,-3.0853,-3.2413,-3.3081,-3.2993,-3.1851,-3.1386,-3.1286,-3.0218,-2.9792,-2.9792,-2.9792,-2.9792,-2.9792,0.0,0.0,0.0,0.0,0.0,0.0,0.0,0.0,-0.7653,-0.7074,-0.8057,-0.8817,-0.8818,-0.8227,-0.7554,-0.6853,-0.5982,-0.584,-0.6736,-0.7241,-0.7896,-0.8767,-0.9259,-0.9639,-0.991,-1.0005,-1.0127,-1.028,-1.0341,-1.0293,-1.0148,-1.03,-1.0368,-1.0371,-1.0456,-1.0575,-1.0853,-1.26,-1.3787,-1.4805,-1.7438,-1.892,-1.9607,-2.0073,-1.9249,-1.7869,-1.7477,-1.6273,0.0,-1.496,-1.4637,-1.4443,-1.5023,-1.4267,-1.2947,-1.1849,-1.0126,-0.8668,-0.8569,-0.9587,-1.1042,-1.2923,-1.4684,-1.624,-1.747,-1.7936,-1.8163,-1.833,-1.8704,-1.9105,-1.9439,-1.9947,-2.0408,-2.0695,-2.2295,-2.4178,-2.5733,-2.7132,-2.8532,-2.976,-3.0,-3.0215,-3.0459,-3.0264,-3.0146,-3.0195,-2.957,-2.9111,-2.8926,-2.8525,-2.8291,-2.8291,-2.8291,-2.8203,-2.8027,-2.8027,-2.7939,-2.7764,-2.7939,-2.7881,-2.7702,-2.8931,-2.9946,-3.0697,-3.108,-3.1264,-3.127,-3.0567,-3.0348,-3.0333,-2.9957,-2.9792,-2.9792,-2.9792,-2.9792,-2.9792,0.0,0.0,0.0,0.0,0.0,0.0,0.0,0.0,0.0,0.0,-0.8315,-0.8699,-0.8533,-0.7334,-0.6513,-0.6267,-0.5735,-0.5688,-0.6464,-0.7078,-0.7746,-0.8492,-0.9062,-0.9469,-0.9693,-0.9849,-1.0022,-1.0215,-1.0215,-1.0181,-1.0114,-1.0226,-1.03,-1.0344,-1.0446,-1.0833,-1.1505,-1.329,-1.4291,-1.4938,-1.7971,-1.8852,-1.8587,-1.877,-1.7668,-1.6084,-1.6126,-1.4844,-1.325,-1.3222,-1.3048,-1.3019,-1.4306,-1.3613,-1.219,-1.1801,-1.0181,-0.8556,-0.9349,-1.1048,-1.2973,-1.4442,-1.6393,-1.7989,-1.8591,-1.8858,-1.9052,-1.9345,-1.9579,-1.986,-2.0281,-2.0535,-2.0742,-2.0955,-2.2769,-2.4655,-2.5855,-2.7379,-2.8585,-2.9322,-2.9189,-2.9209,-2.9629,-2.9609,-2.9648,-2.9834,-2.9385,-2.8994,-2.876,-2.8564,-2.8408,-2.8301,-2.8291,-2.8291,-2.8291,-2.8291,-2.8291,-2.8291,-2.8291,-2.8135,-2.7947,-2.9001,-2.9738,-3.0159,-3.0018,-2.99,-2.9788,-2.9358,-2.9145,-2.9124,-2.9285,-2.9365,-2.9365,-2.9702,-2.9792,-2.9792,0.0,0.0,0.0,0.0,0.0,0.0,0.0,0.0,0.0,0.0,0.0,-0.8533,-0.783,-0.6612,-0.5834,-0.5846,-0.5542,-0.5555,-0.602,-0.6614,-0.7282,-0.8028,-0.8496,-0.8944,-0.9384,-0.9544,-0.9768,-1.0056,-1.0056,-1.0131,-1.0273,-1.028,-1.0354,-1.0483,-1.049,-1.1475,-1.3329,-1.5095,-1.6838,-1.853,-2.0007,-2.0265,-1.956,-1.7396,-1.5922,-1.5029,-1.5047,-1.2813,-1.0129,-1.1222,-1.0692,-0.9962,-1.1563,-1.1989,-1.1716,-1.0405,-0.9789,-0.952,-1.0069,-1.2273,-1.4636,-1.5416,-1.7016,-1.8617,-1.9205,-1.9773,-2.0261,-2.0561,-2.0628,-2.0641,-2.0661,-2.0668,-2.0681,-2.0688,-2.371,-2.5976,-2.5976,-2.8098,-2.9424,-2.8984,-2.8223,-2.7891,-2.831,-2.9092,-2.9404,-2.8984,-2.9326,-2.9189,-2.8359,-2.8682,-2.8711,-2.8301,-2.8291,-2.8291,-2.8291,-2.8291,-2.8291,-2.8291,-2.8291,-2.8281,-2.8281,-2.912,-2.9226,-2.888,-2.9693,-2.9774,-2.9322,-2.8399,-2.7928,-2.8,-2.8081,-2.8176,-2.8267,-2.9365,-2.9792,-2.9792,0.0,0.0,0.0,0.0,0.0,0.0,0.0,0.0,0.0,0.0,0.0,0.0,0.0,0.0,0.0,0.0,-0.5039,-0.5298,-0.5844,-0.6349,-0.6868,-0.7417,-0.8069,-0.8489,-0.8642,-0.8984,-0.9215,-0.9313,-0.9313,-0.934,-0.9395,-1.0521,-1.1121,-1.1187,-1.2632,-1.3581,-1.4274,-1.5987,-1.7161,-1.804,-1.9031,-1.9298,-1.8736,-1.7268,-1.5044,-1.276,0.0,-1.1071,-0.9494,-0.9472,-0.9447,-0.9494,-1.0509,-1.0576,-1.0081,-0.8792,-0.9196,-1.0343,-1.1486,-1.3669,-1.6172,-1.7975,-1.9141,-2.0094,-2.0681,-2.0969,-2.0969,-2.0481,-2.0227,-1.9973,-1.9586,-1.9673,-1.9873,-2.006,-2.3232,-2.5741,-2.5493,-2.8144,-2.9512,-2.8232,-2.8086,-2.7468,-2.5787,-2.7247,-2.8476,-2.8887,-2.9053,-2.9014,-2.8721,-2.9121,-2.915,-2.8721,-2.8711,-2.8574,-2.8291,-2.8291,-2.8291,-2.8291,-2.8291,-2.8291,-2.8291,-2.8291,-2.8271,-2.8048,-2.7783,-2.7554,-2.7344,-2.6901,-2.6719,-2.6711,-2.6936,-2.7046,-2.7046,-2.7464,-2.7637,-2.7799,0.0,0.0,0.0,0.0,0.0,0.0,0.0,0.0,0.0,0.0,0.0,0.0,0.0,0.0,0.0,0.0,0.0,-0.5043,-0.5528,-0.5935,-0.6356,-0.6807,-0.7394,-0.776,-0.7865,-0.8201,-0.8428,-0.8537,-0.8537,-0.8564,-0.8621,-0.9836,-1.0651,-1.1056,-1.2501,-1.3718,-1.4923,-1.5976,-1.6903,-1.7602,-1.8087,-1.8027,-1.7373,-1.5538,-1.3351,0.0,-0.9685,-0.8811,-0.8356,-0.7979,-0.8123,-0.8666,-0.9465,-0.956,-0.9262,-0.9035,-1.0036,-1.1647,-1.334,-1.5683,-1.8084,-1.9648,-2.0555,-2.1089,-2.1463,-2.139,-2.1022,-2.0241,-1.976,-1.9305,-1.8718,-1.8677,-1.8858,-1.9265,-2.1915,-2.4193,-2.5167,-2.7113,-2.8296,-2.7435,-2.7178,-2.6309,-2.4211,-2.5789,-2.7102,-2.7634,-2.7958,-2.8358,-2.8916,-2.9189,-2.9209,-2.8926,-2.8916,-2.8789,-2.8525,-2.8516,-2.8437,-2.8291,-2.8291,-2.8271,-2.8135,-2.7854,-2.7554,-2.7208,-2.6682,-2.632,-2.616,-2.5633,-2.5492,-2.5491,-2.5754,-2.588,-2.5964,-2.6307,-2.6483,-2.673,0.0,0.0,0.0,0.0,0.0,0.0,0.0,0.0,0.0,0.0,0.0,0.0,0.0,0.0,0.0,0.0,0.0,0.0,-0.5091,-0.5403,-0.5769,-0.6273,-0.6512,-0.681,-0.7088,-0.7255,-0.7472,-0.7753,-0.776,-0.7841,-0.7984,-0.8348,-0.9108,-1.0286,-1.0573,-1.2452,-1.5373,-1.5136,-1.5982,-1.7468,-1.7211,-1.649,-1.5369,-1.2565,-1.114,-1.0328,-0.74,-0.6551,-0.6682,-0.6827,-0.701,-0.7404,-0.8627,-0.8995,-0.9354,-1.1101,-1.2278,-1.3393,-1.5417,-1.8027,-2.0354,-2.0681,-2.1176,-2.157,-2.1557,-2.1089,-2.0474,-1.9741,-1.9123,-1.8631,-1.7928,-1.7609,-1.7742,-1.8364,-1.9895,-2.2001,-2.4721,-2.5515,-2.6082,-2.6689,-2.5667,-2.4615,-2.3739,-2.472,-2.5379,-2.5557,-2.6318,-2.7456,-2.8836,-2.8975,-2.8984,-2.8984,-2.8984,-2.8975,-2.8955,-2.8926,-2.8711,-2.8291,-2.8291,-2.8135,-2.7718,-2.7641,-2.717,-2.641,-2.6381,-2.6083,-2.5635,-2.4785,-2.4414,-2.4389,-2.4635,-2.4702,-2.4872,-2.5891,-2.6318,-2.6318,0.0,0.0,0.0,0.0,0.0,0.0,0.0,0.0,0.0,0.0,0.0,0.0,0.0,0.0,0.0,0.0,0.0,0.0,-0.4799,-0.5189,-0.5471,-0.5655,-0.6095,-0.641,-0.6485,-0.6739,-0.6909,-0.6983,-0.7099,-0.7524,-0.8359,-0.9748,-1.0944,-1.2031,-1.3495,-1.4758,-1.5671,-1.5395,-1.5803,-1.6547,-1.5566,-1.4617,-1.3592,-1.2414,-1.0707,-0.891,-0.8049,-0.7288,-0.6728,-0.6583,-0.7502,-0.8794,-0.9836,-1.0592,-1.1341,-1.2169,-1.3829,-1.5731,-1.7171,-1.9171,-2.1062,-2.179,-2.1924,-2.1817,-2.1603,-2.0929,-1.9806,-1.7734,-1.7328,-1.6773,-1.5276,-1.6066,-1.7201,-1.8029,-2.1292,-2.404,-2.5167,-2.7669,-2.9305,-2.8445,-2.7207,-2.614,-2.5227,-2.4829,-2.4863,-2.5593,-2.7309,-2.8612,-2.9385,-2.9697,-2.9873,-2.9873,-2.9873,-2.9717,-2.9404,-2.9082,-2.8711,-2.8291,-2.8291,-2.8281,-2.8106,-2.7508,-2.7073,-2.6853,-2.6133,-2.5635,-2.5212,-2.4617,-2.42,-2.3896,-2.3604,-2.3551,-2.3551,-2.3887,-2.3973,-2.3973,0.0,0.0,0.0,0.0,0.0,0.0,0.0,0.0,0.0,0.0,0.0,0.0,0.0,0.0,0.0,0.0,0.0,0.0,0.0,-0.4928,-0.5098,-0.5165,-0.5552,-0.5796,-0.5937,-0.6095,-0.6244,-0.6305,-0.6458,-0.6771,-0.7335,-0.8497,-0.9686,-1.0721,-1.1858,-1.3063,-1.4116,-1.3931,-1.4065,0.0,0.0,-1.2649,-1.168,-1.073,-0.9553,-0.8264,-0.7564,-0.7344,-0.7423,-0.7926,-0.9289,-1.0891,-1.1828,-1.2549,-1.3294,-1.4724,-1.5839,-1.7059,-1.8753,-2.0309,-2.1643,-2.2265,-2.2104,-2.1683,-2.1263,-1.9902,-1.818,-1.6175,-1.571,-1.5149,-1.3832,-1.4848,-1.6273,-1.7295,-2.0098,-2.2909,-2.4754,-2.7247,-2.8757,-2.8577,-2.7682,-2.6811,-2.5742,-2.5604,-2.5874,-2.6514,-2.7549,-2.8611,-2.956,-2.9795,-3.001,-3.0185,-3.0195,-3.0,-2.957,-2.9326,-2.8896,-2.8291,-2.8291,-2.8144,-2.7736,-2.7452,-2.6993,-2.6406,-2.6142,-2.569,-2.5065,-2.4623,-2.4195,-2.375,-2.331,-2.3135,-2.3135,-2.3135,-2.3135,-2.3135,0.0,0.0,0.0,0.0,0.0,0.0,0.0,0.0,0.0,0.0,0.0,0.0,0.0,0.0,0.0,0.0,0.0,0.0,0.0,0.0,-0.4758,-0.4911,-0.5053,-0.5203,-0.5425,-0.5627,-0.5825,-0.5951,-0.6182,-0.6334,-0.6485,-0.6887,-0.7588,-0.8686,-0.888,-1.0141,-1.2174,-1.1908,-1.195,-1.2161,-1.1854,-1.1197,-1.0157,0.0,-0.8277,-0.7961,-0.678,-0.7133,-0.8339,-0.9791,-1.1505,-1.3123,-1.4045,-1.468,-1.5442,-1.7567,-1.7966,-1.8077,-2.0288,-2.143,-2.2104,-2.2358,-2.1951,-2.1329,-2.0447,-1.8305,-1.6096,-1.4698,-1.4045,-1.3514,-1.3014,-1.3979,-1.5226,-1.6627,-1.8367,-2.0814,-2.4281,-2.5948,-2.7169,-2.8269,-2.7846,-2.716,-2.6253,-2.6973,-2.7613,-2.7982,-2.7888,-2.8313,-2.9658,-2.9658,-2.9853,-3.0273,-3.0293,-3.0059,-2.957,-2.957,-2.9141,-2.8291,-2.8291,-2.7863,-2.7072,-2.7487,-2.6888,-2.583,-2.6162,-2.5866,-2.5029,-2.457,-2.4141,-2.375,-2.331,-2.3135,-2.3135,-2.3135,-2.3135,-2.3135,0.0,0.0,0.0,0.0,0.0,0.0,0.0,0.0,0.0,0.0,-0.4519,-0.4519,0.0,0.0,0.0,0.0,0.0,0.0,0.0,0.0,0.0,-0.4911,-0.5053,-0.5203,-0.5425,-0.6102,-0.6523,-0.6552,-0.7419,-0.8275,-0.9037,-0.9509,-1.0244,-1.1294,-1.149,-1.1999,-1.2641,-1.2352,-1.2398,-1.2647,-1.235,-1.1581,-1.0545,-0.954,-0.8622,0.0,-0.6666,-0.6994,-0.8151,-1.0178,-1.2098,-1.3896,-1.5126,-1.6563,-1.8018,-1.8938,-1.9601,-2.0315,-2.1503,-2.2044,-2.2358,-2.2405,-2.1797,-2.0711,-1.8763,-1.6891,-1.4856,-1.1924,-1.1487,-1.1605,-1.1629,-1.2923,-1.4721,-1.7091,-2.0226,-2.3038,-2.5094,-2.7782,-2.9736,-3.0345,-2.9118,-2.8473,-2.9268,-2.8652,-2.8452,-2.9257,-2.993,-3.0258,-3.0107,-3.0088,-3.0293,-3.0752,-3.0771,-3.0381,-2.958,-2.957,-2.9141,-2.8291,-2.8291,-2.8057,-2.7598,-2.7231,-2.6764,-2.626,-2.5908,-2.5594,-2.5019,-2.4598,-2.4205,-2.375,-2.331,-2.3135,-2.3135,-2.3135,-2.3135,-2.3135,0.0,0.0,0.0,0.0,0.0,0.0,0.0,-0.4587,-0.4582,-0.4582,-0.465,-0.464,-0.4536,-0.4519,-0.4519,0.0,0.0,0.0,0.0,0.0,0.0,-0.4802,-0.5013,-0.5165,-0.524,-0.6221,-0.6719,-0.6719,0.0,-0.8679,-0.9171,-0.958,-1.0098,-1.0551,-1.0673,-1.1097,-1.1734,-1.1596,-1.1621,-1.1734,-1.1571,-1.0917,-0.9922,-0.8899,-0.791,0.0,-0.65,-0.7061,-0.816,-0.9389,-1.151,-1.4001,-1.5927,-1.7428,-1.8637,-1.9379,-2.0107,-2.0869,-2.1744,-2.2084,-2.2231,-2.2385,-2.1416,-1.9817,-1.7757,-1.5339,-1.3002,-1.0432,-0.9885,-1.0057,-1.08,-1.2309,-1.4166,-1.6302,-1.8773,-2.1415,-2.4124,-2.6406,-2.8454,-3.0371,-3.0004,-2.9935,-3.046,-3.0014,-2.9849,-3.0283,-3.0644,-3.0693,-3.0225,-3.043,-3.0547,-3.0537,-3.0537,-3.0107,-2.9238,-2.9238,-2.8916,-2.8291,-2.8291,-2.8066,-2.7646,-2.7481,-2.6967,-2.6435,-2.6114,-2.5741,-2.5111,-2.4908,-2.4506,-2.4092,-2.3887,-2.3799,-2.3799,-2.3799,-2.3799,-2.3799,0.0,0.0,0.0,0.0,0.0,0.0,0.0,-0.4592,-0.4691,-0.4691,-0.4823,-0.4816,-0.4541,-0.4567,-0.4553,0.0,0.0,0.0,0.0,0.0,0.0,0.0,-0.5006,-0.5145,-0.5179,0.0,0.0,-0.7038,-0.8444,0.0,0.0,0.0,0.0,0.0,-0.9948,-1.0318,-1.1009,-1.1063,-1.0977,0.0,0.0,-1.0232,-0.9165,0.0,0.0,0.0,0.0,-0.6979,-0.7871,-0.844,-1.0336,-1.2886,-1.5234,-1.7049,-1.8457,-1.9279,-2.002,-2.0762,-2.1577,-2.1891,-2.2011,-2.2111,-2.0862,-1.9017,-1.6658,-1.3914,-1.1369,-0.9315,-0.8607,-0.8845,-1.0371,-1.1865,-1.3427,-1.5514,-1.7225,-1.9403,-2.2946,-2.4774,-2.6751,-2.9249,-3.0065,-3.0274,-2.9903,-3.0147,-3.0392,-3.0392,-3.0645,-3.0732,-3.0361,-3.0596,-3.0576,-3.0205,-3.0107,-2.9687,-2.8926,-2.8916,-2.8711,-2.8291,-2.8291,-2.8027,-2.7529,-2.7639,-2.7216,-2.6238,-2.634,-2.5995,-2.5208,-2.5129,-2.4863,-2.4551,-2.4453,-2.4414,-2.4414,-2.4414,-2.4414,-2.4414,0.0,0.0,0.0,0.0,0.0,0.0,0.0,-0.4592,-0.4691,-0.4691,-0.4823,-0.4857,-0.4687,-0.467,-0.4613,0.0,0.0,0.0,0.0,0.0,0.0,0.0,0.0,0.0,0.0,0.0,0.0,-0.8255,-0.9922,0.0,0.0,0.0,0.0,0.0,0.0,-1.1932,-1.1774,-1.2038,0.0,0.0,0.0,0.0,0.0,0.0,0.0,0.0,0.0,-0.6342,-0.6662,-0.8117,-0.8994,-0.9822,-1.1521,-1.4607,-1.7789,-1.8424,-1.9399,-2.0408,-2.1022,-2.1577,-2.1864,-2.1356,-2.0107,-1.8188,-1.4898,-1.2718,-1.0646,-0.8094,-0.7309,-0.7868,-1.0568,-1.1211,-1.2354,-1.575,-1.7462,-1.9493,-2.2526,-2.4977,-2.6637,-2.7305,-2.8084,-2.8051,-2.6591,-2.7811,-2.8664,-2.8664,-3.002,-3.0869,-3.083,-3.0469,-3.0244,-3.0195,-2.9824,-2.9394,-2.8926,-2.8916,-2.8711,-2.8291,-2.8291,-2.7861,-2.71,-2.7544,-2.703,-2.581,-2.6172,-2.6132,-2.5596,-2.5244,-2.5039,-2.4971,-2.457,-2.4414,-2.4414,-2.4414,-2.4414,-2.4414,0.0,0.0,0.0,0.0,0.0,0.0,-0.5273,-0.4869,-0.4691,-0.4691,-0.4823,-0.486,-0.4707,-0.4691,-0.4629,-0.4532,0.0,0.0,0.0,0.0,0.0,0.0,0.0,0.0,0.0,0.0,-0.7664,-0.842,-0.988,0.0,0.0,0.0,0.0,0.0,0.0,-1.2238,-1.2138,-1.1575,0.0,0.0,0.0,0.0,0.0,0.0,0.0,0.0,0.0,0.0,-0.6419,-0.6983,-0.779,-0.8677,-0.9351,-1.1282,-1.3784,-1.5934,-1.7353,-1.8551,-2.0199,-2.1009,-2.1363,-2.0949,-1.9134,-1.679,-1.4117,-1.1672,-0.9402,-0.7471,-0.6939,-0.7355,-0.9293,-1.0416,-1.1828,-1.405,-1.5396,-1.7101,-2.01,-2.1309,-2.2644,-2.4941,-2.574,-2.6091,-2.604,-2.6582,-2.6953,-2.6953,-2.9412,-3.0403,-2.9058,-2.9824,-2.9961,-2.9443,-2.9268,-2.8975,-2.8545,-2.8545,-2.8457,-2.8291,-2.8291,-2.8115,-2.7773,-2.7741,-2.7432,-2.6933,-2.6577,-2.632,-2.6073,-2.5674,-2.5469,-2.5449,-2.5283,-2.5205,-2.5205,-2.5205,-2.5205,-2.5205,0.0,0.0,0.0,0.0,0.0,-0.6691,-0.5928,-0.5373,-0.5031,-0.5031,-0.4942,-0.486,-0.4707,-0.4691,-0.4629,-0.4532,-0.4562,0.0,0.0,0.0,0.0,0.0,0.0,0.0,0.0,0.0,-0.73,-0.8044,-0.9619,-1.0809,0.0,0.0,-1.2305,-1.2305,0.0,0.0,0.0,0.0,0.0,0.0,0.0,0.0,0.0,0.0,0.0,0.0,0.0,0.0,0.0,0.0,0.0,-0.7643,-0.7638,-0.8391,-0.9952,-1.321,-1.5191,-1.6751,-1.8551,-1.9767,-2.0265,-1.9605,-1.7696,-1.5386,-1.2913,-1.0589,-0.8508,-0.7133,-0.6739,-0.7087,-0.8405,-0.9551,-1.0999,-1.2761,-1.3679,-1.514,-1.8273,-1.8796,-1.9875,-2.2417,-2.3267,-2.3739,-2.4092,-2.4833,-2.5497,-2.5976,-2.8072,-2.8563,-2.7087,-2.7888,-2.8606,-2.8935,-2.8343,-2.8141,-2.8301,-2.8291,-2.8291,-2.8291,-2.8291,-2.8213,-2.8153,-2.7999,-2.7731,-2.7448,-2.7035,-2.6741,-2.6507,-2.6063,-2.6006,-2.6103,-2.5977,-2.6006,-2.6113,-2.6113,-2.6113,-2.6113,0.0,0.0,0.0,0.0,0.0,0.0,-0.6696,-0.616,-0.5772,-0.5772,-0.5296,-0.486,-0.4707,-0.4691,-0.4629,-0.4532,-0.4519,0.0,0.0,0.0,0.0,0.0,0.0,0.0,0.0,0.0,-0.7026,-0.7279,-0.941,-1.0536,-1.0858,-1.1842,-1.2305,-1.2305,0.0,0.0,0.0,0.0,0.0,0.0,0.0,0.0,-0.6338,0.0,0.0,0.0,0.0,0.0,0.0,0.0,0.0,0.0,0.0,-0.6342,-0.7073,-1.0637,-1.3205,-1.502,-1.6089,-1.7576,-1.8525,-1.6973,-1.5767,-1.4165,-1.1005,-0.9261,-0.8082,-0.6947,-0.658,-0.6918,-0.8208,-0.8563,-0.9606,-1.214,-1.2969,-1.4305,-1.7502,-1.8911,-1.9558,-1.9605,-2.0431,-2.0685,-1.9956,-2.2162,-2.4301,-2.5855,-2.5758,-2.5401,-2.4928,-2.4688,-2.5856,-2.8807,-2.7157,-2.6834,-2.8291,-2.8291,-2.8291,-2.8291,-2.8291,-2.8123,-2.7727,-2.8143,-2.7822,-2.707,-2.7487,-2.7391,-2.6956,-2.654,-2.6631,-2.6963,-2.6543,-2.6631,-2.7002,-2.7002,-2.7002,-2.7002,0.0,0.0,0.0,0.0,0.0,0.0,0.0,-0.6752,-0.6358,-0.6358,-0.5746,-0.5309,-0.5254,-0.4863,-0.457,-0.4522,-0.4519,0.0,0.0,0.0,0.0,0.0,0.0,0.0,0.0,0.0,-0.6526,-0.7279,-0.8194,-0.8995,-0.982,-1.0789,-1.0944,-1.0276,-1.0944,-1.0673,0.0,0.0,0.0,0.0,0.0,-0.6257,-0.6338,0.0,0.0,0.0,0.0,0.0,0.0,0.0,0.0,0.0,0.0,0.0,0.0,-0.7777,-0.9675,-1.1906,-1.426,-1.511,-1.5369,-1.5428,-1.3837,-1.1771,-1.0138,-0.8476,-0.721,-0.6668,-0.6505,-0.6645,-0.7009,-0.7986,-0.9051,-1.0171,-1.1991,-1.3664,-1.4937,-1.6576,-1.7879,-1.8725,-2.0102,-2.0977,-2.0668,-2.2412,-2.3325,-2.2695,-2.4448,-2.4935,-2.3307,-2.3069,-2.3674,-2.5343,-2.488,-2.47,-2.5002,-2.6136,-2.6686,-2.6514,-2.7699,-2.8203,-2.8153,-2.8213,-2.8144,-2.7871,-2.7415,-2.7172,-2.6948,-2.6269,-2.6201,-2.6572,-2.6435,-2.665,-2.7012,-2.7012,-2.7012,-2.7012,0.0,0.0,0.0,0.0,0.0,0.0,0.0,-0.7509,-0.702,-0.702,-0.614,-0.5487,-0.5487,-0.4893,-0.4519,-0.4519,-0.4519,0.0,0.0,0.0,0.0,0.0,0.0,0.0,0.0,-0.5596,-0.6026,-0.6718,-0.7376,-0.8236,-0.9296,-1.034,-1.049,-0.9895,-1.0484,-0.9985,0.0,0.0,0.0,0.0,-0.6047,-0.6122,-0.6179,0.0,0.0,0.0,0.0,0.0,0.0,0.0,0.0,0.0,0.0,0.0,0.0,0.0,-0.7432,-0.9126,-1.171,-1.2666,-1.2849,-1.2889,-1.1621,-0.9969,-0.8718,-0.7603,-0.6685,-0.6441,-0.6393,-0.6393,-0.6393,-0.7286,-0.8159,-0.881,-1.0969,-1.2768,-1.3549,-1.5395,-1.7108,-1.8183,-1.9579,-2.0494,-2.0601,-2.1894,-2.2173,-2.1081,-2.2586,-2.2976,-2.1615,-2.1277,-2.1465,-2.2168,-2.2584,-2.2957,-2.3402,-2.4502,-2.5182,-2.5339,-2.6565,-2.7365,-2.7854,-2.7854,-2.7825,-2.7783,-2.7246,-2.7012,0.0,-2.6435,-2.6475,-2.6875,-2.6875,-2.7129,-2.75,-2.75,-2.7598,-2.7734,0.0,0.0,0.0,0.0,0.0,0.0,0.0,-0.8209,-0.7777,-0.7777,-0.6519,-0.5651,-0.5597,-0.4948,-0.457,-0.4519,0.0,0.0,0.0,0.0,0.0,0.0,0.0,0.0,0.0,-0.5521,-0.5671,-0.58,-0.6911,-0.7979,-0.9145,-1.019,-1.0634,-1.0484,-1.0634,-0.9452,0.0,0.0,0.0,0.0,-0.583,-0.5918,0.0,0.0,0.0,0.0,0.0,0.0,0.0,0.0,0.0,0.0,0.0,0.0,0.0,0.0,0.0,0.0,0.0,-1.0076,-1.0873,-0.9714,-0.9235,-0.8673,-0.7079,-0.6573,0.0,-0.6302,-0.6345,-0.6271,-0.6302,-0.6522,-0.7037,-0.8127,-1.0109,-1.1828,-1.2962,-1.5242,-1.7121,-1.8009,-1.8891,-1.9526,-1.9773,-2.0555,-2.0935,-2.0661,-2.0368,-2.0087,-1.9813,-1.9526,-1.9359,-1.9339,-2.0358,-2.1616,-2.3075,-2.3184,-2.375,-2.4664,-2.5101,-2.5901,-2.6899,-2.6937,-2.7046,-2.6992,-2.6953,-2.6953,-2.6973,-2.6943,-2.7178,-2.7578,-2.7607,-2.7881,-2.8252,-2.8281,-2.8535,-2.8877,0.0,0.0,0.0,0.0,0.0,0.0,0.0,0.0,0.0,0.0,-0.7771,-0.6961,-0.6421,-0.571,-0.5054,0.0,0.0,0.0,0.0,0.0,0.0,0.0,0.0,0.0,0.0,-0.562,-0.5769,-0.58,-0.6296,-0.6754,-0.7022,-0.8841,-0.8836,-0.7399,-0.8988,-0.8421,0.0,0.0,0.0,0.0,-0.6105,-0.6173,0.0,0.0,0.0,0.0,-0.6338,-0.639,0.0,0.0,0.0,0.0,0.0,0.0,0.0,0.0,-0.6285,-0.641,-0.6911,0.0,-0.7938,-0.8514,-0.7991,-0.717,0.0,-0.6498,-0.6464,-0.643,-0.6335,-0.6366,-0.6709,-0.6732,-0.6894,-0.7507,-0.9768,-1.161,-1.1978,-1.5349,-1.8043,-1.8945,-1.9626,-1.9967,-1.9813,-2.0187,-2.0414,-2.0341,-2.0067,-1.9873,-1.9806,-1.9526,-1.9265,-1.9038,-1.9067,-1.9341,-1.9907,-2.11,-2.1682,-2.1779,-2.3999,-2.5267,-2.5498,-2.6528,-2.6958,-2.693,-2.6636,-2.6507,-2.6504,-2.6172,-2.6289,-2.6719,-2.7041,-2.7432,-2.7851,-2.8174,-2.8359,-2.8437,0.0,0.0,0.0,0.0,0.0,0.0,0.0,0.0,0.0,0.0,0.0,0.0,0.0,0.0,0.0,0.0,0.0,0.0,0.0,0.0,0.0,0.0,0.0,-0.5277,-0.5425,-0.5586,-0.5735,-0.58,-0.604,-0.6419,-0.7022,-0.8084,-0.8012,-0.7019,-0.7538,-0.7104,0.0,0.0,0.0,-0.5847,-0.6064,0.0,0.0,0.0,0.0,0.0,-0.6338,-0.639,0.0,-0.6592,-0.6523,-0.6503,0.0,0.0,0.0,0.0,-0.6264,-0.6264,-0.6268,-0.6383,-0.6673,-0.7377,-0.7024,-0.6495,-0.6474,-0.642,-0.6393,-0.6458,-0.6359,-0.6376,-0.6756,-0.6698,-0.6742,-0.7193,-0.91,-1.1194,-1.3008,-1.5865,-1.8203,-1.9245,-1.9646,-1.988,-1.9987,-2.014,-2.018,-2.0047,-1.9887,-1.974,-1.9606,-1.9325,-1.9092,-1.8925,-1.8644,-1.8504,-1.8524,-1.9264,-1.9845,-2.0264,-2.1878,-2.3374,-2.4387,-2.5173,-2.5814,-2.6428,-2.6143,-2.6123,-2.6084,-2.6055,-2.6172,-2.6455,-2.707,-2.7461,-2.7715,-2.8135,-2.8418,-2.8584,0.0,0.0,0.0,0.0,0.0,0.0,0.0,0.0,0.0,0.0,0.0,0.0,0.0,0.0,0.0,0.0,0.0,0.0,0.0,0.0,0.0,0.0,0.0,-0.5439,-0.5396,-0.5521,-0.5671,-0.5837,-0.5966,-0.6565,-0.7594,-0.7718,-0.7783,-0.7774,-0.6543,-0.5959,0.0,-0.5837,-0.5766,-0.5681,-0.5956,0.0,0.0,0.0,0.0,0.0,0.0,0.0,0.0,-0.6634,-0.661,-0.6525,-0.6662,0.0,0.0,0.0,0.0,0.0,-0.6274,-0.6288,-0.64,-0.6417,-0.6366,-0.6325,-0.6444,-0.6396,-0.6369,-0.6512,-0.6427,-0.6424,-0.6746,-0.6678,-0.6712,-0.7139,-0.8635,-1.1218,-1.5068,-1.689,-1.8116,-1.9172,-1.9339,-1.9546,-1.9987,-2.0074,-2.0,-1.9753,-1.9733,-1.9606,-1.9319,-1.9058,-1.8885,-1.8791,-1.8551,-1.8283,-1.7976,-1.8023,-1.8431,-1.9405,-1.9835,-2.1144,-2.3046,-2.326,-2.417,-2.5373,-2.5411,0.0,-2.5762,-2.6133,-2.6289,-2.6377,-2.7236,-2.7568,-2.7627,-2.8115,-2.8525,-2.8818,0.0,0.0,0.0,0.0,0.0,0.0,0.0,0.0,0.0,0.0,0.0,0.0,0.0,0.0,0.0,0.0,0.0,0.0,0.0,0.0,0.0,-0.5087,-0.5267,-0.5423,-0.5552,-0.5579,-0.5725,-0.5993,-0.6017,-0.6246,-0.6752,-0.7471,-0.7783,-0.7774,-0.6543,-0.6017,-0.5993,-0.5993,-0.5983,-0.5976,-0.6156,0.0,0.0,0.0,0.0,0.0,0.0,0.0,0.0,-0.6515,-0.6563,-0.6566,-0.6599,0.0,0.0,0.0,0.0,0.0,-0.6278,-0.6452,-0.652,-0.64,-0.6366,-0.6444,-0.6468,-0.6556,-0.6675,-0.6827,-0.6739,-0.6763,-0.719,-0.7143,-0.7146,-0.7475,-1.0062,-1.3412,-1.7077,-1.8054,-1.851,-1.8938,-1.9219,-1.9305,-1.9138,-1.9352,-1.9486,-1.9432,-1.9432,-1.9305,-1.9005,-1.8951,-1.8698,-1.8196,-1.8136,-1.7963,-1.7655,-1.7916,-1.8131,-1.8292,-1.922,-1.9852,-2.0303,-2.1467,-2.2728,-2.3989,0.0,-2.4609,-2.5742,-2.581,-2.584,-2.5928,-2.6777,-2.7119,-2.7207,-2.8008,-2.833,-2.8389,0.0,0.0,0.0,0.0,0.0,0.0,0.0,0.0,0.0,0.0,0.0,0.0,0.0,0.0,0.0,0.0,0.0,0.0,0.0,0.0,0.0,-0.5125,-0.5277,-0.5433,-0.5586,-0.5664,-0.5813,-0.603,-0.619,-0.6339,-0.6471,-0.6874,-0.7028,-0.6942,-0.6412,-0.6108,-0.6034,-0.6118,-0.6105,-0.6044,0.0,0.0,0.0,0.0,0.0,0.0,0.0,0.0,0.0,0.0,-0.5764,-0.4903,-0.622,0.0,0.0,0.0,0.0,0.0,-0.4851,-0.5448,-0.6445,-0.6359,-0.6366,-0.6495,-0.6576,-0.6586,-0.6644,-0.6878,-0.6807,-0.6837,-0.7288,-0.718,-0.7467,-0.8882,-1.1395,-1.4046,-1.6621,-1.7851,-1.8597,-1.8885,-1.9045,-1.9138,-1.9158,-1.9285,-1.9299,-1.9138,-1.9125,-1.8998,-1.8704,-1.8537,-1.8323,-1.8056,-1.7883,-1.7729,-1.7582,-1.7722,-1.7796,-1.7796,-1.8252,-1.8776,-1.9363,-2.0093,-2.1088,-2.236,0.0,-2.3886,-2.4707,-2.543,-2.5742,-2.582,-2.668,-2.7012,-2.7119,-2.7978,-2.8291,-2.8291,0.0,0.0,0.0,0.0,0.0,0.0,0.0,0.0,0.0,0.0,0.0,0.0,0.0,0.0,0.0,0.0,0.0,0.0,0.0,0.0,-0.5111,-0.5182,-0.5264,-0.5413,-0.5633,-0.5715,-0.5861,-0.6084,-0.6312,-0.6441,-0.6471,-0.6471,-0.6396,-0.6338,-0.6338,-0.6176,-0.604,-0.6196,-0.6173,-0.6044,0.0,0.0,0.0,0.0,0.0,0.0,0.0,0.0,0.0,0.0,0.0,0.0,0.0,0.0,0.0,-0.6294,-0.5943,-0.5179,-0.3544,-0.4658,-0.6332,-0.6322,-0.6424,-0.6566,-0.6719,-0.6715,-0.6759,-0.7031,-0.6993,-0.7017,-0.736,-0.7295,-0.8044,-1.0645,-1.2516,-1.4309,-1.6515,-1.7935,-1.8778,-1.8998,-1.9025,-1.9118,-1.9345,-1.9305,-1.9165,-1.8945,-1.8865,-1.8698,-1.8404,-1.8103,-1.7943,-1.7943,-1.7642,-1.7515,-1.7582,-1.7582,-1.7582,-1.7582,-1.7582,-1.8047,-1.8782,-1.8782,-1.952,-2.0889,-2.194,-2.2894,-2.3791,-2.4815,-2.543,-2.582,-2.668,-2.7139,-2.7393,-2.8047,-2.8291,-2.8291,0.0,0.0,0.0,0.0,0.0,0.0,0.0,0.0,0.0,0.0,0.0,0.0,0.0,0.0,0.0,0.0,0.0,0.0,0.0,0.0,-0.5057,-0.5332,-0.5216,-0.5348,-0.5776,-0.5667,-0.5817,-0.6244,-0.6268,-0.6342,-0.6471,-0.6471,-0.6396,-0.6338,-0.6338,-0.6176,-0.604,-0.6196,-0.6173,-0.6044,-0.62,0.0,0.0,0.0,0.0,0.0,0.0,0.0,0.0,0.0,0.0,0.0,0.0,0.0,-0.6322,-0.6292,-0.4872,-0.3306,-0.3144,-0.4705,-0.6337,-0.6495,-0.6671,-0.6722,-0.6878,-0.7115,-0.7353,-0.7516,-0.7543,-0.7546,-0.7577,-0.779,-0.9103,-1.2546,-1.3485,-1.4961,-1.8201,-1.9118,-1.9312,-1.9332,-1.9332,-1.9345,-1.9366,-1.9118,-1.8945,-1.8925,-1.8677,-1.839,-1.8096,-1.7782,-1.7615,-1.7615,-1.7335,-1.7308,-1.7582,-1.7582,-1.7582,-1.7582,-1.7582,-1.7674,-1.7752,-1.7752,-1.8435,-1.9706,-1.9869,-2.133,-2.3692,-2.3791,-2.4609,-2.582,-2.668,-2.75,-2.8203,-2.8271,-2.8291,-2.8291,0.0,0.0,0.0,0.0,0.0,0.0,0.0,0.0,0.0,0.0,0.0,0.0,0.0,0.0,0.0,0.0,0.0,0.0,0.0,-0.5091,-0.5243,-0.5422,-0.5304,-0.5399,-0.5664,-0.5705,-0.5898,-0.6338,-0.6349,-0.6468,-0.6614,-0.6613,-0.6493,-0.6271,-0.6281,-0.6251,-0.6196,-0.6257,-0.6244,-0.619,-0.6254,-0.6278,0.0,0.0,0.0,0.0,0.0,0.0,0.0,0.0,-0.353,-0.0392,-0.2437,-0.4557,-0.6264,-0.6321,-0.4784,-0.3065,-0.3078,-0.3689,-0.4696,-0.6138,-0.6593,-0.6763,-0.7004,-0.7295,-0.7529,-0.7587,-0.7821,-0.7987,-0.7889,-0.8113,-0.9457,-1.2951,-1.3842,-1.4869,-1.7341,-1.87,-1.8938,-1.7693,-1.8499,-1.9018,-1.8844,-1.8718,-1.8577,-1.8397,-1.8277,-1.8003,-1.7515,-1.7375,-1.7228,-1.7041,-1.7163,-1.7224,-1.7338,-1.7573,-1.7582,-1.7582,-1.7582,-1.7395,-1.7041,-1.7277,-1.7449,-1.7633,-1.8839,-1.993,-2.0945,-2.2072,-2.3276,-2.4486,-2.5303,-2.5572,-2.5608,-2.6608,-2.6943,-2.7051,0.0,0.0,0.0,0.0,0.0,0.0,0.0,0.0,0.0,0.0,0.0,0.0,0.0,0.0,0.0,0.0,0.0,0.0,-0.4921,-0.5152,-0.5311,-0.5425,-0.5428,-0.5433,-0.5586,-0.5728,-0.5928,-0.6186,-0.6339,-0.6488,-0.6637,-0.6585,-0.6083,-0.5305,-0.5271,-0.5277,-0.5314,-0.5274,-0.5251,-0.5326,-0.6051,-0.5889,0.0,0.0,0.0,0.0,0.0,0.0,0.0,0.0,-0.2354,-0.0236,-0.165,-0.4081,-0.626,-0.6296,-0.4864,-0.3392,-0.3776,-0.394,-0.4428,-0.6051,-0.6593,-0.6851,-0.7146,-0.7448,-0.7706,-0.7848,-0.8123,-0.8292,-0.814,-0.8316,-0.9606,-1.2996,-1.3422,-1.406,-1.6426,-1.7778,-1.7944,-1.6594,-1.7849,-1.8704,-1.851,-1.8317,-1.8163,-1.8056,-1.7782,-1.7482,-1.7168,-1.7001,-1.6874,-1.6686,-1.6914,-1.7042,-1.7181,-1.7448,-1.7582,-1.7582,-1.7582,-1.7368,-1.6987,-1.7237,-1.7109,-1.6807,-1.8108,-1.8899,-1.9415,-2.0546,-2.1995,-2.3405,-2.4053,-2.4045,-2.3933,-2.4931,-2.5709,-2.6264,0.0,0.0,0.0,0.0,0.0,0.0,0.0,0.0,0.0,0.0,0.0,0.0,0.0,0.0,0.0,0.0,0.0,0.0,-0.4911,-0.5053,-0.5199,-0.5422,-0.5425,-0.5433,-0.5586,-0.5728,-0.5878,-0.6034,-0.6196,-0.6438,-0.6585,-0.6366,-0.5165,-0.3152,-0.3081,-0.3087,-0.3068,-0.3077,-0.3046,-0.3279,-0.5416,-0.5018,-0.3124,0.0,0.0,0.0,0.0,0.0,0.0,0.0,-0.0,-0.0,-0.0,-0.2893,-0.6234,-0.6322,-0.5173,-0.416,-0.5123,-0.572,-0.6009,-0.6244,-0.6607,-0.7004,-0.7305,-0.7604,-0.7943,-0.8394,-0.8482,-0.8438,-0.8299,-0.8391,-0.9575,-1.28,-1.2228,-1.2557,-1.581,-1.6298,-1.6298,-1.6292,-1.7563,-1.8484,-1.8477,-1.7929,-1.7702,-1.8009,-1.7208,-1.6834,-1.7128,-1.6573,-1.6374,-1.6636,-1.6683,-1.684,-1.7193,-1.7457,-1.7582,-1.7575,-1.7582,-1.7582,-1.7582,-1.7582,-1.7582,-1.7575,-1.7582,-1.8297,-1.9627,-1.9627,-2.0849,-2.2675,-2.3037,-2.3398,-2.371,-2.3822,-2.471,-2.6045,0.0,0.0,0.0,0.0,0.0,0.0,0.0,0.0,0.0,0.0,0.0,0.0,0.0,0.0,0.0,0.0,0.0,0.0,-0.5064,-0.5108,-0.5199,-0.5422,-0.5257,-0.527,-0.5426,-0.5576,-0.5878,-0.6342,-0.6298,-0.6438,-0.6589,-0.6404,-0.5956,-0.5258,-0.2281,-0.0893,-0.0951,-0.088,-0.0954,-0.0939,-0.1645,-0.3297,-0.5037,0.0,0.0,0.0,0.0,0.0,0.0,0.0,0.0,0.0,-0.0,-0.0862,-0.2451,-0.5402,-0.5975,-0.5608,-0.5668,-0.564,-0.5762,-0.6408,-0.6671,-0.6902,-0.7414,-0.7845,-0.8262,-0.871,-0.8632,-0.8503,-0.8567,-0.8615,-0.9326,-1.1522,-1.1661,-1.1893,-1.2999,-1.404,-1.4655,-1.4383,-1.5702,-1.6888,-1.7477,-1.7382,-1.7228,-1.7114,-1.686,-1.668,-1.6527,-1.6388,-1.6228,-1.6069,-1.6279,-1.6443,-1.6569,-1.7052,-1.7324,-1.7291,-1.756,-1.7546,-1.7298,-1.7462,-1.7355,-1.6987,-1.7402,-1.7671,-1.7997,-1.9125,-1.9608,-1.9888,-2.0937,-2.1107,-2.0816,-2.1926,-2.2589,-2.3255,0.0,0.0,0.0,0.0,0.0,0.0,0.0,0.0,0.0,0.0,0.0,0.0,0.0,0.0,0.0,0.0,0.0,0.0,0.0,-0.5064,-0.5172,-0.5267,-0.524,-0.5294,-0.545,-0.5596,-0.5878,-0.6298,-0.6311,-0.5957,-0.5203,-0.4214,-0.382,-0.3647,-0.1164,-0.0,-0.0,-0.0,-0.0,-0.0,-0.0,-0.1526,-0.351,0.0,0.0,0.0,0.0,0.0,0.0,0.0,0.0,0.0,-0.0,-0.0,-0.0788,-0.4763,-0.5623,-0.5442,-0.5654,-0.5689,-0.5736,-0.6431,-0.6742,-0.7034,-0.7638,-0.8123,-0.8523,-0.8794,-0.8703,-0.8581,-0.8615,-0.8574,-0.9086,-1.0648,-1.0605,-1.0546,-1.1313,-1.2197,-1.2692,-1.2464,-1.4163,-1.544,-1.5439,-1.6348,-1.6566,-1.5985,-1.6183,-1.6373,-1.6301,-1.6162,-1.5969,-1.5838,-1.615,-1.6265,-1.6265,-1.68,-1.7001,-1.6995,-1.7197,-1.7114,-1.7009,-1.7358,-1.7281,-1.7074,-1.7428,-1.7482,-1.7445,-1.8569,-1.8791,-1.8601,-1.9339,-1.9535,-1.93,-2.0181,-2.0947,-2.1624,0.0,0.0,0.0,0.0,0.0,0.0,0.0,0.0,0.0,0.0,-0.6588,0.0,0.0,0.0,0.0,0.0,0.0,0.0,0.0,0.0,-0.5138,-0.5148,-0.5287,-0.5426,-0.5566,-0.5708,-0.5857,-0.5939,-0.6228,-0.5228,-0.3047,-0.0966,-0.0,-0.0,-0.0,-0.0,-0.0,-0.0,-0.0,-0.0,-0.0,-0.0,-0.0,-0.0,0.0,0.0,0.0,0.0,0.0,0.0,0.0,0.0,-0.0,-0.0,-0.0625,-0.3908,-0.4484,-0.4315,-0.5428,-0.5772,-0.5901,-0.6413,-0.6854,-0.735,-0.7909,-0.8367,-0.8669,-0.8669,-0.8679,-0.8648,-0.8509,-0.8377,-0.8692,-0.9994,-0.9212,-0.8999,-1.0335,-1.0539,-1.0539,-1.0642,-1.2899,-1.4021,-1.2889,-1.4712,-1.556,-1.466,-1.513,-1.5575,-1.5921,-1.5711,-1.5622,-1.5622,-1.6048,-1.6265,-1.6265,-1.6545,-1.6637,-1.663,-1.672,-1.6707,-1.6714,-1.6987,-1.7268,-1.7542,-1.7542,-1.7555,-1.7602,-1.7883,-1.8183,-1.845,-1.845,-1.8624,-1.8885,-1.8911,-1.9794,-2.0922,0.0,0.0,0.0,0.0,0.0,0.0,0.0,0.0,0.0,0.0,0.0,0.0,0.0,0.0,0.0,0.0,0.0,0.0,0.0,0.0,-0.5186,-0.5308,-0.5411,-0.5442,-0.541,-0.5559,-0.5715,-0.5729,-0.6129,-0.5231,-0.3049,-0.0982,-0.0,-0.0,-0.0,-0.0,-0.0,-0.0,-0.0,-0.0,-0.0,-0.0,-0.0,-0.0,-0.0,0.0,0.0,0.0,0.0,0.0,0.0,0.0,-0.0,-0.0,-0.0157,-0.0937,-0.2988,-0.5144,-0.5622,-0.5881,-0.6069,-0.6641,-0.7221,-0.7733,-0.7984,-0.8208,-0.8367,-0.8367,-0.8455,-0.852,-0.8486,-0.8459,-0.8539,-0.8848,-0.8668,-0.8584,-0.8895,-0.8999,-0.941,-1.0539,-1.1259,-1.1816,-1.247,-1.2909,-1.3017,-1.2588,-1.263,-1.2764,-1.2829,-1.3814,-1.4343,-1.4343,-1.5305,-1.5933,-1.5933,-1.6219,-1.638,-1.641,-1.658,-1.6707,-1.6707,-1.6774,-1.6961,-1.7241,-1.7241,-1.7375,-1.7589,-1.7655,-1.7862,-1.8143,-1.8143,-1.8323,-1.8611,-1.8838,-1.9145,-1.9617,0.0,0.0,0.0,0.0,0.0,0.0,0.0,0.0,0.0,0.0,0.0,0.0,0.0,0.0,0.0,0.0,0.0,0.0,0.0,0.0,-0.5277,-0.5425,-0.5428,-0.5428,-0.5428,-0.5586,-0.5678,-0.5689,-0.6076,-0.5749,-0.456,-0.1482,-0.0,-0.0,-0.0,-0.0,-0.0,-0.0,-0.0,-0.0,-0.0,-0.0,-0.0,-0.0,-0.0,-0.0,-0.0,0.0,0.0,0.0,0.0,0.0,0.0,0.0,-0.0157,-0.1161,-0.2852,-0.4469,-0.5378,-0.5835,-0.6126,-0.6756,-0.7309,-0.7831,-0.7913,-0.8048,-0.816,-0.816,-0.8279,-0.8381,-0.8381,-0.8319,-0.8269,-0.8269,-0.8269,-0.8269,-0.8269,-0.8269,-0.8572,-0.9274,-0.9977,-1.0344,-1.0349,-1.143,-1.187,-1.1058,-1.1516,-1.1895,-1.1895,-1.2538,-1.3227,-1.3927,-1.4561,-1.5166,-1.5825,-1.5929,-1.6106,-1.6059,-1.6213,-1.6286,-1.6299,-1.658,-1.6714,-1.6747,-1.7027,-1.7235,-1.7388,-1.7522,-1.7762,-1.8029,-1.7883,-1.8009,-1.831,-1.8611,-1.8718,-1.8883,0.0,0.0,0.0,0.0,0.0,0.0,0.0,0.0,0.0,0.0,0.0,0.0,0.0,0.0,0.0,0.0,0.0,0.0,0.0,0.0,0.0,-0.5428,-0.5428,-0.5428,-0.5428,-0.5601,-0.5541,-0.5171,-0.596,-0.6291,-0.6215,-0.1983,-0.0,-0.0,-0.0,-0.0,-0.0,-0.0,-0.0,-0.0,-0.0,-0.0,-0.0,-0.0,-0.0,-0.0,-0.0,-0.0,-0.0,-0.0,0.0,0.0,0.0,0.0,-0.0313,-0.2069,-0.3079,-0.3956,-0.5234,-0.5829,-0.6267,-0.6777,-0.7315,-0.7746,-0.7736,-0.7851,-0.7963,-0.7963,-0.8106,-0.8231,-0.8231,-0.8126,-0.8038,-0.8038,-0.8038,-0.8038,-0.8038,-0.8038,-0.8028,-0.8004,-0.8977,-0.9158,-0.8065,-0.99,-1.0674,-0.9705,-1.0542,-1.1142,-1.1191,-1.1373,-1.2097,-1.3182,-1.3414,-1.4202,-1.5439,-1.5439,-1.554,-1.5832,-1.5832,-1.5832,-1.5845,-1.6333,-1.6453,-1.6299,-1.684,-1.7101,-1.7271,-1.7408,-1.7689,-1.7936,-1.7629,-1.7695,-1.8003,-1.8303,-1.841,-1.8497,0.0,0.0,0.0,0.0,0.0,0.0,0.0,0.0,0.0,0.0,-0.7004,-0.6409,0.0,0.0,0.0,0.0,0.0,0.0,0.0,0.0,0.0,-0.5428,-0.5428,-0.5428,-0.5428,-0.5601,-0.4876,-0.3123,-0.5266,-0.6286,-0.6212,-0.1998,-0.0,-0.0,-0.0,-0.0,-0.0,-0.0,-0.0,-0.0,-0.0,-0.0,-0.0,-0.0,-0.0,-0.0,-0.0,-0.0,-0.0,-0.0,-0.0,0.0,0.0,0.0,-0.0078,-0.0313,-0.3011,-0.5911,-0.614,-0.6371,-0.6624,-0.6716,-0.7126,-0.7478,-0.7441,-0.755,-0.7658,-0.7658,-0.7879,-0.8069,-0.8069,-0.8055,-0.8038,-0.8038,-0.8038,-0.8038,-0.8038,-0.8038,-0.7991,-0.7858,-0.8032,-0.7983,-0.7672,-0.7939,-0.8065,-0.7955,-0.8122,-0.8146,-0.8165,-0.9363,-1.0194,-1.0336,-1.1559,-1.2823,-1.4166,-1.4166,-1.4752,-1.5832,-1.5832,-1.5832,-1.5832,-1.5912,-1.6066,-1.6293,-1.662,-1.6914,-1.7154,-1.7194,-1.7382,-1.7615,-1.7321,-1.7388,-1.7682,-1.7989,-1.8103,-1.819,0.0,0.0,0.0,0.0,0.0,0.0,0.0,0.0,0.0,0.0,0.0,-0.6107,0.0,0.0,0.0,0.0,0.0,0.0,0.0,0.0,0.0,-0.5428,-0.5428,-0.5403,-0.5426,-0.5509,-0.507,-0.4247,-0.5652,-0.5122,-0.2744,-0.0849,-0.0,-0.0,-0.0,-0.0,-0.0,-0.0,-0.0,-0.0,-0.0,-0.0,-0.0,-0.0,-0.0,-0.0,-0.0,-0.0,-0.0,-0.0,-0.0,-0.0,-0.0,0.0,0.0,0.0,-0.2104,-0.4717,-0.5812,-0.6241,-0.6304,-0.6445,-0.6705,-0.7066,-0.7099,-0.7302,-0.7472,-0.7472,-0.7645,-0.7794,-0.7794,-0.7794,-0.7794,-0.7794,-0.7862,-0.7882,-0.7804,-0.7862,-0.7855,-0.7709,-0.7692,-0.7668,-0.7604,-0.76,-0.7617,-0.756,-0.7644,-0.758,-0.7608,-0.8255,-0.8909,-0.9643,-1.031,-1.1602,-1.3455,-1.3737,-1.4555,-1.5832,-1.5832,-1.5832,-1.5832,-1.5832,-1.5899,-1.6039,-1.6333,-1.654,-1.6673,-1.6834,-1.6974,-1.7094,-1.7134,-1.7228,-1.7402,-1.7869,-1.805,-1.811,0.0,0.0,0.0,0.0,0.0,0.0,0.0,0.0,0.0,0.0,0.0,0.0,0.0,0.0,0.0,0.0,0.0,0.0,0.0,0.0,0.0,-0.542,-0.5454,-0.5463,-0.5447,-0.4939,-0.4913,-0.5403,-0.4945,-0.3084,-0.0,-0.0,-0.0,-0.0,-0.0,-0.0,-0.0,-0.0,-0.0,-0.0,-0.0,-0.0,-0.0,-0.0,-0.0,-0.0,-0.0,-0.0,-0.0,-0.0,-0.0,-0.0,-0.0,-0.0,0.0,0.0,0.0,-0.2882,-0.5361,-0.6066,-0.6016,-0.6153,-0.6414,-0.6697,-0.6715,-0.7007,-0.7238,-0.7238,-0.737,-0.7482,-0.7389,-0.7546,-0.76,-0.76,-0.7689,-0.7723,-0.7614,-0.7692,-0.7702,-0.756,-0.7543,-0.7526,-0.7485,-0.7482,-0.7482,-0.7482,-0.7482,-0.7478,-0.7429,-0.7507,-0.7983,-0.8894,-0.9173,-1.0233,-1.2199,-1.2986,-1.4011,-1.5343,-1.5343,-1.5534,-1.5832,-1.5832,-1.5832,-1.5845,-1.6146,-1.6273,-1.6293,-1.6506,-1.664,-1.672,-1.6867,-1.7021,-1.7201,-1.7655,-1.7862,-1.7983,0.0,0.0,0.0,0.0,0.0,0.0,0.0,0.0,0.0,0.0,0.0,0.0,0.0,-0.5422,-0.5428,-0.5428,-0.5428,-0.5428,-0.5428,-0.5498,-0.5579,-0.5579,-0.5705,0.0,-0.5676,-0.3793,-0.3701,-0.5403,-0.1986,-0.0247,-0.0,-0.0,-0.0,-0.0,-0.0,-0.0,-0.0,-0.0,-0.0,-0.0,-0.0,-0.0,-0.0,-0.0,-0.0,-0.0,-0.0,-0.0,-0.0,-0.0,-0.0,-0.0,-0.0,-0.0,-0.0,0.0,0.0,0.0,-0.5191,-0.6117,-0.5943,-0.5879,-0.6204,-0.644,-0.6373,-0.6675,-0.6871,-0.6783,-0.6937,-0.7074,-0.6982,-0.7309,-0.76,-0.76,-0.7607,-0.7607,-0.76,-0.7607,-0.7553,-0.74,-0.7383,-0.7326,-0.718,-0.7166,-0.7166,-0.7166,-0.7166,-0.7156,-0.7139,-0.7323,-0.7399,-0.7468,-0.7622,-0.8344,-0.9705,-1.113,-1.2585,-1.3974,-1.3974,-1.4657,-1.5832,-1.5832,-1.5832,-1.5845,-1.6146,-1.6273,-1.6273,-1.6293,-1.646,-1.668,-1.642,-1.666,-1.7154,-1.7188,-1.7368,-1.7689,0.0,0.0,0.0,0.0,0.0,0.0,0.0,0.0,0.0,0.0,0.0,0.0,0.0,-0.5428,-0.5428,-0.5428,-0.5369,-0.548,-0.5583,-0.5507,-0.5504,-0.5651,-0.5724,-0.5735,-0.5535,-0.483,-0.3589,-0.1938,-0.0631,-0.0,-0.0,-0.0,-0.0,-0.0,-0.0,-0.0,-0.0,-0.0,-0.0,-0.0,-0.0,-0.0,-0.0,-0.0,-0.0,-0.0,-0.0,-0.0,-0.0,-0.0,-0.0,-0.0,-0.0,-0.0,-0.0,-0.0,-0.0,-0.0319,-0.1868,-0.4218,-0.616,-0.5956,-0.5983,-0.6099,-0.6261,-0.6448,-0.6687,-0.6712,-0.6894,-0.7093,-0.7017,-0.7141,-0.7305,-0.7305,-0.7387,-0.7417,-0.7319,-0.739,-0.7397,-0.7241,-0.7224,-0.72,-0.7146,-0.7139,-0.7139,-0.7139,-0.7139,-0.7135,-0.7329,-0.737,-0.7482,-0.7512,-0.757,-0.8295,-0.9703,-1.0901,-1.1908,-1.2624,-1.2624,-1.3301,-1.4561,-1.4561,-1.5045,-1.5838,-1.5939,-1.5985,-1.5985,-1.5985,-1.6052,-1.6166,-1.6446,-1.668,-1.6907,-1.7288,-1.7495,-1.7642,0.0,0.0,0.0,0.0,0.0,0.0,0.0,0.0,0.0,0.0,0.0,0.0,0.0,0.0,-0.546,-0.5515,-0.4897,-0.4519,-0.4675,-0.5235,-0.5297,-0.4697,-0.5507,-0.5897,-0.5695,-0.5701,-0.3795,-0.0,-0.0,-0.0,-0.0,-0.0,-0.0,-0.0,-0.0,-0.0,-0.0,-0.0,-0.0,-0.0,-0.0,-0.0,-0.0,-0.0,-0.0,-0.0,-0.0,-0.0,-0.0,-0.0,-0.0,-0.0,-0.0,-0.0,-0.0,-0.0,-0.0,-0.0,-0.0,-0.2061,-0.4511,-0.578,-0.6009,-0.596,-0.611,-0.6284,-0.6517,-0.6609,-0.685,-0.7027,-0.7007,-0.7051,-0.7139,-0.7139,-0.7227,-0.7258,-0.7153,-0.7227,-0.7255,-0.7153,-0.7139,-0.7139,-0.7139,-0.7139,-0.7139,-0.7139,-0.7145,-0.7275,-0.7346,-0.7446,-0.7443,-0.7522,-0.7522,-0.8031,-0.8973,-0.9776,-1.0568,-1.1158,-1.123,-1.1945,-1.3199,-1.368,-1.4364,-1.5146,-1.5635,-1.5832,-1.5832,-1.5832,-1.5832,-1.5879,-1.6366,-1.662,-1.6767,-1.7255,-1.7502,-1.7622,0.0,0.0,0.0,0.0,0.0,0.0,0.0,0.0,0.0,-0.5422,0.0,0.0,0.0,0.0,0.0,-0.5676,-0.3928,-0.2762,-0.2619,-0.4487,-0.4779,-0.2872,-0.4961,-0.6146,-0.609,-0.609,-0.4095,-0.0,-0.0,-0.0,-0.0,-0.0,-0.0,-0.0,-0.0,-0.0,-0.0,-0.0,-0.0,-0.0,-0.0,-0.0,-0.0,-0.0,-0.0,-0.0,-0.0,-0.0,-0.0,-0.0,-0.0,-0.0,-0.0,-0.0,-0.0,-0.0,-0.0,-0.0,0.0,0.0,0.0,-0.5102,-0.6192,-0.6094,-0.5798,-0.6159,-0.6532,-0.6538,-0.6714,-0.689,-0.6933,-0.7048,-0.7139,-0.7139,-0.7139,-0.7139,-0.7139,-0.7139,-0.7139,-0.7139,-0.7139,-0.7139,-0.7139,-0.7139,-0.7139,-0.7139,-0.7322,-0.7356,-0.7362,-0.7543,-0.7537,-0.738,-0.7383,-0.7387,-0.738,-0.7536,-0.8339,-0.9723,-0.9909,-1.0583,-1.1848,-1.3199,-1.3872,-1.3974,-1.5242,-1.5737,-1.5832,-1.5832,-1.5832,-1.5858,-1.6166,-1.646,-1.674,-1.7048,-1.7341,-1.7622,0.0,0.0,0.0,0.0,0.0,0.0,-0.4918,-0.5077,-0.5196,0.0,0.0,0.0,-0.5454,-0.5637,-0.5656,-0.5485,-0.4981,-0.3549,-0.0919,-0.1314,-0.2738,-0.5181,-0.2997,-0.1725,-0.1724,-0.1727,-0.1178,-0.0,-0.0,-0.0,-0.0,-0.0,-0.0,-0.0,-0.0,-0.0,-0.0,-0.0,-0.0,-0.0,-0.0,-0.0,-0.0,-0.0,-0.0,-0.0,-0.0,-0.0,-0.0,-0.0,-0.0,-0.0,-0.0,-0.0,-0.0,-0.0,-0.0,-0.0,-0.0,0.0,0.0,0.0,0.0,0.0,-0.6009,-0.6365,-0.642,-0.6729,-0.6922,-0.7007,-0.7044,-0.7051,-0.7139,-0.7139,-0.7139,-0.7139,-0.7139,-0.7139,-0.7139,-0.7139,-0.7139,-0.7139,-0.7139,-0.7139,-0.7139,0.0,-0.7128,-0.7289,-0.7547,-0.7748,-0.7777,-0.7383,-0.7685,-0.7753,-0.7539,-0.779,-0.8129,-0.8463,-0.851,-0.9217,-1.0583,-1.0872,-1.2129,-1.3872,-1.4262,-1.4949,-1.5832,-1.5832,-1.5832,-1.5879,-1.6386,-1.6633,-1.6767,-1.7275,-1.7515,-1.7622,0.0,0.0,0.0,0.0,0.0,-0.503,-0.5094,-0.5165,-0.5286,0.0,0.0,0.0,-0.4331,-0.5347,-0.5976,-0.5754,-0.4167,-0.2277,-0.0159,-0.0,-0.1122,-0.3574,-0.1351,-0.0,-0.0,-0.0,-0.0,-0.0,-0.0,-0.0,-0.0,-0.0,-0.0,-0.0,-0.0,-0.0,0.009,0.2092,0.1827,-0.0,-0.0,-0.0,-0.0,-0.0,-0.0,-0.0,-0.0,-0.0,-0.0,-0.0,-0.0,-0.0,-0.0,-0.0,-0.0,-0.0,-0.0,-0.0,-0.0,-0.0,-0.0,-0.0,0.0,0.0,-0.4658,-0.5788,-0.645,-0.6692,-0.6826,-0.6881,-0.6946,-0.69,-0.6954,-0.7034,-0.7048,-0.7051,-0.7051,-0.7139,-0.7139,-0.7139,-0.7139,-0.7139,-0.7139,-0.7139,-0.7139,-0.7139,-0.72,-0.7394,-0.7654,-0.7841,-0.7889,-0.7563,-0.7807,-0.7834,-0.76,-0.7828,-0.7943,-0.7943,-0.8011,-0.8432,-0.9217,-0.9702,-1.0872,-1.2323,-1.2813,-1.3782,-1.5045,-1.5045,-1.5343,-1.5885,-1.6473,-1.6707,-1.6774,-1.7368,-1.7582,-1.7609,0.0,0.0,-0.4918,-0.507,-0.5112,-0.5226,-0.5369,-0.5388,-0.5393,0.0,0.0,0.0,-0.2657,-0.4288,-0.5635,-0.5571,-0.218,-0.0,-0.0,-0.0,-0.0,-0.0,-0.0,-0.0,-0.0,-0.0,-0.0,-0.0,-0.0,-0.0,-0.0,-0.0,-0.0,-0.0,0.0539,0.0809,0.1078,0.5313,0.4672,0.0714,0.0173,-0.0,-0.0,-0.0,-0.0,-0.0,-0.0,-0.0,-0.0,-0.0,-0.0,-0.0,-0.0,-0.0,-0.0,-0.0,-0.0,-0.0,-0.0,-0.0,-0.0,-0.0,-0.0,0.0,-0.2373,-0.4743,-0.6576,-0.6552,-0.6546,-0.6586,-0.6722,-0.6733,-0.6757,-0.6929,-0.6946,-0.6943,-0.7051,-0.7139,-0.7139,-0.7139,-0.7139,-0.7139,-0.7139,-0.7139,-0.7139,-0.7139,-0.7285,-0.7485,-0.7746,-0.7923,-0.7943,-0.779,-0.7821,-0.7767,-0.7624,-0.7767,-0.7834,-0.7838,-0.7974,-0.8038,-0.8038,-0.9217,-0.9903,-1.0096,-1.1165,-1.2425,-1.368,-1.3878,-1.4657,-1.5885,-1.6473,-1.6707,-1.6774,-1.7368,-1.7582,-1.7589,-0.5147,-0.4832,-0.4693,-0.507,-0.5363,-0.5515,-0.5411,-0.5547,-0.5069,-0.3485,-0.4535,-0.4151,-0.088,-0.0967,-0.1221,-0.1244,-0.0501,-0.0,-0.0,-0.0,-0.0,-0.0,-0.0,-0.0,-0.0,-0.0,-0.0,-0.0,-0.0,-0.0,-0.0,-0.0,-0.0,0.0175,0.4014,0.5679,0.5768,0.6681,0.6523,0.537,0.1536,-0.0,-0.0,-0.0,-0.0,-0.0,-0.0,-0.0,-0.0,-0.0,-0.0,-0.0,-0.0,-0.0,-0.0,-0.0,-0.0,-0.0,-0.0,-0.0,-0.0,-0.0,-0.0,0.0,-0.0531,-0.3787,-0.6695,-0.6773,-0.6843,-0.7017,-0.7048,-0.6981,-0.7007,-0.7044,-0.6957,-0.6924,-0.7126,-0.7139,-0.7139,-0.7139,-0.7139,-0.7139,-0.7139,-0.7139,-0.7139,-0.7139,-0.7285,-0.7397,-0.7455,-0.7709,-0.779,-0.7645,-0.7872,-0.7923,-0.777,-0.7919,-0.7994,-0.7994,-0.8024,-0.8038,-0.8038,-0.8233,-0.9019,-0.9998,-1.0293,-1.1068,-1.2334,-1.3488,-1.4657,-1.5885,-1.6473,-1.6707,-1.6774,-1.7368,-1.7582,-1.7615,-0.5234,-0.5077,-0.5005,-0.5199,-0.545,-0.5587,-0.5597,-0.5539,-0.5259,-0.4617,-0.3425,-0.2043,-0.0165,-0.0,-0.0,-0.0,-0.0,-0.0,-0.0,-0.0,-0.0,-0.0,-0.0,-0.0,-0.0,-0.0,-0.0,-0.0,-0.0,-0.0,-0.0,-0.0,-0.0,0.0086,0.248,0.4893,0.7104,0.7062,0.7063,0.6684,0.1889,-0.0,-0.0,-0.0,-0.0,-0.0,-0.0,-0.0,-0.0,-0.0,-0.0,-0.0,-0.0,-0.0,-0.0,-0.0,-0.0,-0.0,-0.0,-0.0,-0.0,-0.0,-0.0,0.0,0.0,-0.2661,-0.5452,-0.6532,-0.685,-0.6919,-0.6919,-0.6919,-0.6946,-0.7021,-0.6912,-0.6892,-0.7109,-0.7078,-0.7061,-0.7132,-0.7139,-0.7139,-0.7139,-0.7139,-0.7139,-0.7139,-0.7285,-0.737,-0.737,-0.7651,-0.778,-0.7706,-0.7923,-0.8004,-0.7926,-0.8001,-0.8038,-0.8038,-0.8038,-0.8038,-0.8038,-0.8038,-0.8333,-0.9019,-0.9019,-0.9702,-1.1068,-1.2328,-1.3761,-1.5177,-1.617,-1.658,-1.676,-1.7208,-1.7462,-1.7602,-0.5321,-0.538,-0.5289,-0.4944,-0.5158,-0.5503,-0.5663,-0.5651,-0.5452,-0.5119,-0.2076,-0.0,-0.0,-0.0,-0.0,-0.0,-0.0,-0.0,-0.0,-0.0,-0.0,-0.0,-0.0,-0.0,-0.0,-0.0,-0.0,-0.0,-0.0,-0.0,-0.0,-0.0,-0.0,-0.0,-0.0,0.2639,0.7104,0.7085,0.7105,0.6801,0.2876,0.0805,-0.0,-0.0,-0.0,-0.0,-0.0,-0.0,-0.0,-0.0,-0.0,-0.0,-0.0,-0.0,-0.0,-0.0,-0.0,-0.0,-0.0,-0.0,-0.0,-0.0,-0.0,-0.0,0.0,0.0,0.0,-0.6383,-0.6851,-0.682,-0.6797,-0.679,-0.6817,-0.6912,-0.6824,-0.6827,-0.7065,-0.7,-0.6983,-0.7122,-0.7092,-0.7078,-0.7136,-0.7139,-0.7139,-0.7139,-0.7255,-0.7339,-0.737,-0.7597,-0.7753,-0.7811,-0.7929,-0.8011,-0.8038,-0.8038,-0.8038,-0.8038,-0.8038,-0.8038,-0.8038,-0.8038,-0.8038,-0.8038,-0.8038,-0.8627,-0.9706,-1.097,-1.2438,-1.3999,-1.5705,-1.6533,-1.6827,-1.7121,-1.7382,-1.7589,-0.5393,-0.542,-0.4885,-0.3267,-0.4359,-0.5429,-0.5472,-0.5899,-0.4915,-0.1216,-0.0332,-0.0,-0.0,-0.0,-0.0,-0.0,-0.0,-0.0,-0.0,-0.0,-0.0,-0.0,-0.0,-0.0,-0.0,-0.0,-0.0,-0.0,-0.0,-0.0,-0.0,-0.0,-0.0,-0.0,-0.0,0.2662,0.7093,0.7105,0.7082,0.7031,0.647,0.3761,-0.0,-0.0,-0.0,-0.0,-0.0,-0.0,-0.0,-0.0,-0.0,-0.0,-0.0,-0.0,-0.0,-0.0,-0.0,-0.0,-0.0,-0.0,-0.0,-0.0,-0.0,-0.0,-0.0,0.0,-0.4587,-0.6652,0.0,-0.7258,-0.7054,0.0,0.0,-0.6946,-0.6915,-0.6915,-0.6949,-0.6939,-0.6983,-0.7122,-0.6909,-0.6854,-0.7115,-0.7139,-0.7139,-0.7139,-0.7156,-0.7224,-0.7363,-0.7404,-0.7539,-0.7801,-0.7828,-0.7902,-0.8038,-0.8038,-0.8038,-0.8038,-0.8038,-0.8038,-0.8038,-0.8038,-0.8038,-0.8038,-0.8038,-0.8038,-0.8333,-0.9706,-1.0988,-1.251,-1.5444,-1.684,-1.7134,-1.7428,-1.7555,-1.7622,-0.5405,-0.3727,-0.201,-0.1238,-0.1787,-0.2292,-0.2281,-0.2448,-0.2011,-0.0254,-0.0,-0.0,-0.0,-0.0,-0.0,-0.0,-0.0,-0.0,-0.0,-0.0,-0.0,-0.0,-0.0,-0.0,-0.0,-0.0,0.1365,0.4158,0.4464,0.4433,0.4072,0.2704,0.1348,-0.0,-0.0,0.1138,0.3124,0.5927,0.7135,0.6858,0.4112,0.1791,-0.0,-0.0,-0.0,-0.0,-0.0,-0.0,-0.0,-0.0,-0.0,-0.0,-0.0,-0.0,-0.0,-0.0,-0.0,-0.0,-0.0,-0.0,-0.0,-0.0,-0.0,-0.0,-0.0,-0.0864,-0.2845,-0.6813,0.0,0.0,0.0,0.0,0.0,0.0,-0.6983,-0.6956,-0.7041,-0.6905,-0.6881,-0.7112,-0.7031,-0.697,-0.7014,-0.7017,-0.7017,-0.7017,-0.7095,-0.717,-0.7234,-0.7322,-0.7468,-0.7682,-0.777,-0.7885,-0.8038,-0.8038,-0.8038,-0.8038,-0.8038,-0.8038,-0.8038,-0.8038,-0.8038,-0.8038,-0.8038,-0.8038,-0.8137,-0.941,-1.0847,-1.2355,-1.4441,-1.5914,-1.6927,-1.7221,-1.7442,-1.7602,-0.3942,-0.1813,-0.0,-0.0,-0.0,-0.0,-0.0,-0.0,-0.0,-0.0,-0.0,-0.0,-0.0,-0.0,-0.0,-0.0,-0.0,-0.0,-0.0,-0.0,-0.0,-0.0,-0.0,-0.0,-0.0,-0.0,0.2426,0.733,0.7802,0.7735,0.7322,0.5455,0.3662,0.1869,0.0619,-0.0,0.0268,0.367,0.593,0.6637,0.1879,-0.0,-0.0,-0.0,-0.0,-0.0,-0.0,-0.0,-0.0,-0.0,-0.0,-0.0,-0.0,-0.0,-0.0,-0.0,-0.0,-0.0,-0.0,-0.0,-0.0,-0.0,-0.0,-0.0,-0.0,-0.0,-0.1543,-0.6849,-0.6914,0.0,0.0,0.0,-0.737,-0.7173,0.0,-0.7058,-0.7078,-0.6932,-0.6902,-0.7115,-0.7139,-0.7085,0.0,-0.6963,-0.697,-0.6932,-0.7024,-0.7082,-0.7082,-0.7224,-0.7397,-0.7594,-0.7736,-0.7885,-0.8038,-0.8038,-0.8038,-0.8038,-0.8038,-0.8038,-0.8038,-0.8038,-0.8038,-0.8038,-0.8038,-0.8038,-0.8038,-0.9019,-1.0371,-1.1795,-1.284,-1.4419,-1.6225,-1.6932,-1.7335,-1.7582,-0.0151,-0.0076,-0.0,-0.0,-0.0,-0.0,-0.0,-0.0,-0.0,-0.0,-0.0,-0.0,-0.0,-0.0,-0.0,-0.0,-0.0,-0.0,-0.0,-0.0,-0.0,-0.0,-0.0,-0.0,-0.0,-0.0,0.2573,0.7974,0.7953,0.8033,0.7932,0.7256,0.6969,0.6685,0.2049,-0.0,-0.0,0.0186,0.2905,0.6643,0.1951,-0.0,-0.0,-0.0,-0.0,-0.0,-0.0,-0.0,-0.0,-0.0,-0.0,0.0,0.0,-0.0,-0.0,-0.0,-0.0,-0.0,-0.0,-0.0,-0.0,-0.0,-0.0,-0.0,-0.0,-0.0,-0.1499,-0.6914,-0.7966,-0.789,-0.7736,-0.76,-0.7492,-0.719,-0.7261,0.0,0.0,-0.7044,-0.7129,-0.7139,-0.7139,-0.7085,-0.6943,-0.7051,-0.7078,-0.6939,-0.6932,-0.6936,-0.6936,-0.7068,-0.7285,-0.759,-0.7736,-0.7885,-0.8038,-0.8038,-0.8038,-0.8038,-0.8038,-0.8038,-0.8038,-0.8038,-0.8038,-0.8038,-0.8038,-0.8038,-0.8038,-0.8038,-0.8825,-1.0122,-1.0401,-1.2299,-1.5083,-1.6619,-1.7335,-1.7582,-0.0,-0.0,-0.0,-0.0,-0.0,-0.0,-0.0,-0.0,-0.0,-0.0,-0.0,-0.0,-0.0,-0.0,-0.0,-0.0,-0.0,-0.0,-0.0,-0.0,-0.0,-0.0,-0.0,-0.0,-0.0,-0.0,0.0874,0.272,0.6236,0.7955,0.7753,0.774,0.7594,0.7308,0.4587,0.2141,-0.0,-0.0,0.0947,0.2297,0.0692,-0.0,-0.0,-0.0,-0.0,-0.0,-0.0,-0.0,0.0,-0.0,-0.0,-0.0,-0.0,-0.0,-0.0,-0.0,-0.0,-0.0,0.0,0.0,-0.0,-0.0,-0.0,-0.0,-0.0,-0.0,-0.1006,-0.4595,-0.6796,-0.7957,-0.7777,-0.7665,-0.7533,-0.7326,-0.7251,-0.7183,0.0,-0.72,-0.7292,-0.7292,-0.7119,-0.7017,-0.7065,-0.6936,-0.6827,-0.678,-0.6871,-0.6929,-0.6929,-0.716,-0.7387,-0.7594,-0.7736,-0.7885,-0.8038,-0.8038,-0.8038,-0.8038,-0.8038,-0.8038,-0.8038,-0.8038,-0.8038,-0.8038,-0.8038,-0.8038,-0.8038,-0.8038,-0.8825,-1.0015,-1.0196,-1.2092,-1.488,-1.5579,-1.6593,-1.7582,-0.0,-0.0,-0.0,-0.0,-0.0,0.0659,0.2556,0.1182,-0.0,-0.0,-0.0,-0.0,-0.0,-0.0,-0.0,-0.0,-0.0,-0.0,-0.0,-0.0,-0.0,-0.0,-0.0,-0.0,-0.0,-0.0,-0.0,-0.0,0.3452,0.5517,0.6324,0.7492,0.794,0.7743,0.6652,0.4948,0.2764,0.0767,-0.0,-0.0,-0.0,-0.0,-0.0,-0.0,-0.0,-0.0,0.0,-0.0,-0.0,-0.0,-0.0,-0.0,-0.0,-0.0,-0.0,-0.0,-0.0,-0.0,-0.0,-0.0,0.0,-0.0,-0.0,0.0,-0.0,-0.0,-0.0504,-0.2211,-0.5436,-0.7935,-0.7758,-0.7787,-0.7672,-0.7414,-0.7333,-0.7285,0.0,-0.7309,-0.7411,-0.7516,-0.7268,-0.7122,-0.7214,-0.7,-0.6814,-0.6709,-0.6844,-0.6905,-0.6851,-0.7129,-0.7383,-0.7594,-0.7736,-0.7885,-0.8038,-0.8038,-0.8038,-0.8038,-0.8038,-0.8038,-0.8038,-0.8038,-0.8038,-0.8038,-0.8038,-0.8038,-0.8038,-0.8038,-0.8528,-0.9324,-0.9925,-1.1731,-1.4168,-1.4844,-1.6162,-1.7595,0.0081,0.0163,0.0322,0.0317,0.0409,0.2063,0.6825,0.3524,0.028,-0.0,-0.0,-0.0,-0.0,-0.0,-0.0,-0.0,-0.0,-0.0,-0.0,-0.0,-0.0,-0.0,-0.0,-0.0,-0.0,-0.0,-0.0,-0.0,-0.0,0.1306,0.3815,0.645,0.7782,0.7992,0.7989,0.8041,0.7695,0.2427,0.0097,-0.0,-0.0,-0.0,-0.0,-0.0,-0.0,-0.0,-0.0,-0.0,-0.0,-0.0,-0.0,-0.0,-0.0,-0.0,-0.0,-0.0,-0.0,-0.0,-0.0,-0.0,-0.0,-0.0,-0.0,0.0,0.0,-0.0,-0.0,-0.0,-0.4124,-0.7739,-0.7687,-0.7851,-0.7889,-0.7461,-0.7509,-0.7546,-0.7394,-0.7383,-0.7495,-0.777,-0.7553,-0.7383,-0.7383,-0.7221,-0.7004,-0.6722,-0.6834,-0.6854,-0.6709,-0.6987,-0.7288,-0.759,-0.7736,-0.7885,-0.8038,-0.8038,-0.8038,-0.8038,-0.8038,-0.8038,-0.8038,-0.8038,-0.8038,-0.8038,-0.8038,-0.8038,-0.8038,-0.8038,-0.8038,-0.8141,-0.943,-1.1153,-1.2972,-1.455,-1.6181,-1.7649,0.0663,0.2822,0.5312,0.5292,0.5667,0.5082,0.2481,0.4271,0.4485,0.0496,-0.0,-0.0,-0.0,-0.0,-0.0,-0.0,-0.0,-0.0,-0.0,-0.0,-0.0,-0.0,-0.0,-0.0,-0.0,-0.0,-0.0,-0.0,-0.0,0.0303,0.1008,0.1706,0.4218,0.7989,0.7962,0.801,0.777,0.4369,0.1854,-0.0,-0.0,-0.0,-0.0,0.0,-0.0,-0.0,-0.0,-0.0,-0.0,-0.0,-0.0,-0.0,-0.0,-0.0,-0.0,-0.0,-0.0,-0.0,-0.0,-0.0,-0.0,-0.0,-0.0,-0.0,0.0,0.0,0.0,-0.0,-0.2712,-0.5625,-0.7518,-0.7838,-0.7831,-0.7716,-0.7641,-0.7546,-0.7394,-0.756,-0.7689,-0.7658,-0.7587,-0.7543,-0.7543,-0.7099,-0.678,-0.6705,-0.6736,-0.6742,-0.6702,0.0,-0.74,-0.7594,-0.7736,-0.7885,-0.8038,-0.8038,-0.8038,-0.8038,-0.8038,-0.8038,-0.8038,-0.8038,-0.8038,-0.8038,-0.8038,-0.8038,-0.8038,-0.8038,-0.8038,-0.8062,-0.8688,-1.0632,-1.3529,-1.6045,-1.7338,-1.7943,0.3654,0.5232,0.7128,0.7053,0.7585,0.6945,0.3975,0.4059,0.4246,0.3627,0.1424,-0.0,-0.0,-0.0,-0.0,-0.0,-0.0,-0.0,-0.0,-0.0,-0.0,-0.0,-0.0,-0.0,-0.0,-0.0,-0.0,-0.0,-0.0,-0.0,0.0101,0.2412,0.5129,0.7989,0.7955,0.8034,0.776,0.3902,0.1378,-0.0,-0.0,-0.0,0.0,-0.0,-0.0,-0.0,-0.0,-0.0,-0.0,-0.0,-0.0,-0.0,-0.0,-0.0,-0.0,-0.0,-0.0,-0.0,-0.0,-0.0,-0.0,-0.0,-0.0,-0.0,-0.0,-0.0,-0.0,0.0,-0.3021,-0.6239,0.0,-0.7957,-0.7899,-0.7824,-0.7692,-0.759,-0.7567,-0.7706,-0.7804,-0.7794,-0.7733,-0.7692,-0.7692,-0.7207,-0.6868,-0.6803,-0.6858,-0.6865,0.0,0.0,-0.7373,-0.7594,-0.7736,-0.7885,-0.8038,-0.8592,-0.8592,-0.8038,-0.8627,-0.8531,-0.8038,-0.8038,-0.8038,-0.8038,-0.8038,-0.8038,-0.8038,-0.8038,-0.8079,-0.8271,-0.9186,-1.1424,-1.4316,-1.6154,-1.7339,-1.8063,0.7065,0.716,0.7225,0.7201,0.7671,0.7993,0.8038,0.4037,0.2474,0.6409,0.2883,-0.0,-0.0,-0.0,-0.0,-0.0,-0.0,-0.0,-0.0,-0.0,-0.0,-0.0,-0.0,-0.0,-0.0,-0.0,-0.0,-0.0,-0.0,-0.0,0.0101,0.5448,0.7992,0.7989,0.7955,0.797,0.7654,0.2253,-0.0,-0.0,-0.0,-0.0,-0.0,-0.0,-0.0,-0.0,-0.0,-0.0,-0.0,-0.0,-0.0,-0.0,-0.0,-0.0,-0.0,-0.0,-0.0,-0.0,-0.0,-0.0,-0.0,-0.0,-0.0,-0.0,-0.0,-0.0,-0.0,-0.0,-0.394,-0.7469,-0.7432,-0.7793,-0.7918,-0.7865,-0.7736,-0.7692,-0.7797,-0.7828,-0.7882,-0.7994,-0.7892,0.0,-0.7811,-0.7424,-0.7109,-0.6966,-0.7068,-0.7078,0.0,0.0,-0.7282,-0.759,-0.7719,-0.7875,-0.8069,-0.9268,-0.9268,-0.8069,-0.9324,-0.941,-0.8233,-0.8432,-0.8432,-0.8233,-0.8432,-0.8432,-0.8237,-0.8254,-0.8268,-0.8557,-1.0176,-1.2543,-1.4872,-1.564,-1.6854,-1.8196,0.7105,0.7536,0.7795,0.7801,0.7946,0.7985,0.8037,0.7235,0.5397,0.1893,0.0628,-0.0,-0.0,-0.0,-0.0,-0.0,-0.0,-0.0,-0.0,-0.0,-0.0,-0.0,-0.0,-0.0,-0.0,-0.0,-0.0,-0.0,-0.0,-0.0,0.0101,0.5448,0.7992,0.7989,0.7955,0.8014,0.7607,0.224,-0.0,-0.0,-0.0,-0.0,-0.0,-0.0,-0.0,-0.0,-0.0,-0.0,-0.0,-0.0,-0.0,-0.0,-0.0,-0.0,-0.0,-0.0,-0.0,-0.0,-0.0,-0.0,-0.0,-0.0,-0.0,-0.0,-0.0,-0.0,-0.0,-0.0,-0.2521,-0.4734,-0.4706,0.0,-0.8035,-0.8004,-0.7977,-0.7926,-0.7824,-0.7919,-0.7963,-0.7865,-0.7828,-0.7811,-0.7811,-0.7519,-0.7268,-0.7112,-0.7126,-0.7078,0.0,0.0,-0.7282,0.0,-0.7624,0.0,0.0,0.0,-0.8327,-0.8228,-0.9482,-0.9899,-0.9706,-1.0779,-1.0681,-0.9706,-1.0779,-1.0583,-0.9616,-0.9758,-0.9301,-0.8742,-1.0273,-1.2192,-1.4035,-1.5442,-1.7098,-1.8778,0.6843,0.7366,0.7631,0.7965,0.7965,0.7041,0.4245,0.6223,0.6091,0.0745,-0.0,-0.0,-0.0,-0.0,-0.0,-0.0,-0.0,-0.0,-0.0,-0.0,-0.0,-0.0,-0.0,-0.0,-0.0,-0.0,-0.0,-0.0,-0.0,-0.0,0.0101,0.5457,0.8009,0.8006,0.8011,0.6426,0.3715,0.1078,0.0,-0.0,-0.0,-0.0,-0.0,-0.0,-0.0,-0.0,-0.0,-0.0,-0.0,-0.0,-0.0,-0.0,-0.0,-0.0,-0.0,-0.0,-0.0,-0.0,-0.0,-0.0,-0.0,-0.0,-0.0,-0.0,-0.0,-0.0,-0.0,-0.0,-0.1009,-0.2823,-0.555,-0.7156,0.0,0.0,-0.8048,-0.8014,-0.794,-0.7994,-0.7984,-0.7828,-0.7811,-0.7811,-0.7811,-0.7682,-0.7506,-0.7278,-0.7258,-0.7197,0.0,0.0,-0.7282,0.0,0.0,0.0,-0.8147,0.0,-0.9141,-0.9245,-1.0435,-1.0974,-1.0974,-1.1653,-1.156,-1.0979,-1.0982,-1.1123,-1.1255,-1.1555,-1.1028,-1.0229,-1.172,-1.3472,-1.5122,-1.6034,-1.7397,-1.8925,0.5443,0.556,0.6126,0.7701,0.7035,0.4876,0.0652,0.3584,0.476,0.0539,-0.0,-0.0,-0.0,-0.0,-0.0,-0.0,-0.0,-0.0,-0.0,-0.0,-0.0,-0.0,-0.0,-0.0,-0.0,-0.0,-0.0,-0.0,-0.0,-0.0,0.0101,0.4343,0.6888,0.8012,0.8001,0.0,0.0,0.0,-0.0,-0.0,-0.0,-0.0,-0.0,-0.0,-0.0,-0.0,-0.0,-0.0,-0.0,-0.0,-0.0,-0.0,-0.0,-0.0,-0.0,-0.0,-0.0,-0.0,-0.0,-0.0,-0.0,-0.0,-0.0,-0.0,-0.0,-0.0,-0.0,-0.0,-0.0404,-0.2117,-0.6374,-0.7582,0.0,0.0,-0.7955,-0.8045,-0.8038,-0.8038,-0.7984,-0.7828,-0.7838,-0.7845,-0.7814,-0.7841,-0.775,-0.7485,-0.7438,-0.7353,-0.7197,0.0,0.0,0.0,0.0,-0.7902,-0.8089,0.0,-0.9658,-0.9665,-1.1189,-1.1755,-1.156,-1.2093,-1.2016,-1.1536,-1.1244,-1.1861,-1.2957,-1.3357,-1.2802,-1.1937,-1.3241,-1.4803,-1.6405,-1.6606,-1.7659,-1.9025,0.1543,0.0618,0.2177,0.7149,0.3988,0.0544,0.0109,0.0443,0.0558,0.0112,-0.0,-0.0,-0.0,-0.0,-0.0,-0.0,-0.0,-0.0,-0.0,-0.0,-0.0,-0.0,-0.0,-0.0,-0.0,-0.0,-0.0,-0.0,-0.0,-0.0,0.0,0.0504,0.332,0.7995,0.0,0.0,0.0,-0.0,-0.0,-0.0,-0.0,-0.0,-0.0,-0.0,-0.0,-0.0,-0.0,-0.0,-0.0,-0.0,-0.0,-0.0,-0.0,-0.0,-0.0,-0.0,-0.0,-0.0,-0.0,-0.0,-0.0,-0.0,-0.0,-0.0,-0.0,-0.0,-0.0,-0.0,-0.1913,-0.3817,-0.432,-0.6342,-0.7965,0.0,-0.7959,-0.7962,-0.8041,-0.8038,-0.7984,-0.7828,-0.7933,-0.7963,-0.7824,-0.7936,-0.795,-0.7784,-0.7651,-0.7512,0.0,0.0,0.0,-0.7594,-0.7736,-0.7953,-0.8245,-0.8223,-0.832,-0.8449,-1.0766,-1.1268,-1.0297,-1.2745,-1.2636,-1.0545,-1.2972,-1.4333,-1.4775,-1.5053,-1.4445,-1.3472,-1.3918,-1.5161,-1.6647,-1.6671,-1.7784,-1.9366,0.0421,-0.0,0.0636,0.2812,0.1416,-0.0,0.0,-0.0,-0.0,-0.0,-0.0,-0.0,-0.0,-0.0,-0.0,-0.0,-0.0,-0.0,-0.0,-0.0,-0.0,-0.0,-0.0,-0.0,-0.0,-0.0,-0.0,-0.0,-0.0,-0.0,-0.0,-0.0,0.0,0.0,0.0,0.1986,-0.0,-0.0,-0.0,-0.0,-0.0,-0.0,-0.0,-0.0,-0.0,-0.0,-0.0,-0.0,-0.0,-0.0,-0.0,-0.0,-0.0,-0.0,-0.0,-0.0,-0.0,-0.0,-0.0,-0.0,-0.0,-0.0,-0.0,-0.0,-0.0,-0.0,-0.0909,-0.4152,-0.5667,-0.6364,-0.635,-0.7266,-0.7979,-0.7972,0.0,-0.7969,-0.7962,-0.8048,-0.7984,-0.7828,-0.7865,-0.7879,-0.7818,-0.7868,-0.7916,-0.7946,-0.7811,-0.7662,0.0,0.0,0.0,-0.7723,0.0,-0.7916,-0.813,-0.8069,-0.8464,-0.9322,-1.0337,-1.1051,-1.1354,-1.2571,-1.2644,-1.1944,-1.4836,-1.5431,-1.431,-1.6162,-1.6344,-1.5586,-1.6613,-1.752,-1.8346,-1.8346,-1.8887,-1.9646,-0.0,0.0,-0.0,0.0,-0.0,-0.0,-0.0,-0.0,-0.0,-0.0,-0.0,-0.0,-0.0,-0.0,-0.0,-0.0,-0.0,-0.0,-0.0,-0.0,-0.0,-0.0,-0.0,-0.0,-0.0,-0.0,-0.0,-0.0,-0.0,-0.0,0.0,0.0,0.0,0.0,-0.0,-0.0,-0.0,-0.0,-0.0,-0.0,-0.0,-0.0,-0.0,-0.0,-0.0,-0.0,-0.0,-0.0,-0.0,-0.0,-0.0,-0.0,-0.0,-0.0,-0.0,-0.0,-0.0,-0.0,-0.0,-0.0,-0.0,-0.0,-0.0,-0.0,-0.0,-0.0,-0.1515,-0.6905,-0.8026,-0.8009,-0.7989,-0.7985,-0.7982,-0.7975,0.0,-0.7972,-0.7965,-0.8048,-0.7984,-0.7828,-0.7851,-0.7862,-0.7814,-0.7851,-0.7923,-0.8031,-0.794,0.0,0.0,0.0,0.0,0.0,0.0,0.0,-0.8038,-0.8038,-0.8432,-0.9414,-0.9979,-1.0466,-1.108,-1.1648,-1.2506,-1.3662,-1.5787,-1.6043,-1.5153,-1.7245,-1.7779,-1.7507,-1.8542,-1.9185,-1.9379,-1.9466,-1.9626,-1.9826,-0.0,-0.0,-0.0,-0.0,-0.0,-0.0,-0.0,-0.0,-0.0,-0.0,-0.0,-0.0,-0.0,-0.0,-0.0,-0.0,-0.0,-0.0,-0.0,-0.0,-0.0,-0.0,-0.0,-0.0,-0.0,-0.0,-0.0,-0.0,-0.0,0.0,-0.0,0.0,-0.0,-0.0,-0.0,-0.0,-0.0,-0.0,-0.0,-0.0,-0.0,-0.0,-0.0,-0.0,-0.0,-0.0,-0.0,-0.0,-0.0,-0.0,-0.0,-0.0,-0.0,-0.0,-0.0,-0.0,-0.0,-0.0,-0.0,-0.0,-0.0,-0.0,-0.0,-0.0,-0.0,-0.0,-0.1513,-0.6868,-0.7992,-0.7985,-0.7975,-0.7972,-0.7965,-0.8045,0.0,0.0,-0.8041,-0.8038,-0.7984,-0.7828,-0.7943,-0.7977,-0.7824,-0.7946,-0.8038,-0.8038,0.0,0.0,0.0,0.0,0.0,-0.7811,-0.796,0.0,-0.8038,-0.8038,-0.8038,-0.8041,-0.9477,-0.9568,-0.8381,-1.0136,-1.2515,-1.5411,-1.5411,-1.6334,-1.7961,-1.8364,-1.8657,-1.8951,-1.9245,-1.9366,-1.9406,-1.9686,-1.98,-1.9887,-0.0,-0.0,-0.0,-0.0,-0.0,-0.0,-0.0,-0.0,-0.0,-0.0,-0.0,-0.0,-0.0,-0.0,-0.0,0.0,-0.0,-0.0,0.0,-0.0,-0.0,-0.0,-0.0,-0.0,-0.0,-0.0,-0.0,-0.0,0.0,0.0,0.0,-0.0,-0.0,-0.0,-0.0,-0.0,-0.0,-0.0,-0.0,-0.0,-0.0,-0.0,-0.0,-0.0,-0.0,-0.0,-0.0,-0.0,-0.0,-0.0,-0.0,-0.0,-0.0,-0.0,-0.0,-0.0,-0.0,-0.0,-0.0,-0.0,-0.0,-0.0,-0.0,-0.0,-0.0,-0.0,-0.1009,-0.4522,-0.6762,-0.8006,-0.7979,-0.7979,-0.7982,-0.7975,-0.7972,0.0,-0.7962,-0.8048,-0.8021,-0.7974,-0.8011,-0.8021,-0.797,-0.8011,-0.8038,-0.8038,0.0,0.0,0.0,0.0,0.0,0.0,-0.8014,0.0,-0.8197,-0.8197,-0.8245,-0.8343,-0.8909,-0.9625,-1.0494,-1.2128,-1.3941,-1.605,-1.707,-1.7916,-1.8651,-1.8744,-1.8958,-1.9232,-1.9332,-1.9492,-1.9673,-1.9766,-2.0054,-2.0428,-0.0,-0.0,-0.0,-0.0,-0.0,-0.0,-0.0,-0.0,-0.0,-0.0,-0.0,-0.0,-0.0,-0.0,0.0,-0.0,-0.0,-0.0,-0.0,-0.0,-0.0,-0.0,-0.0,-0.0,-0.0,-0.0,0.0,-0.0,-0.0,-0.0,-0.0,-0.0,-0.0,-0.0,-0.0,-0.0,-0.0,-0.0,-0.0,-0.0,-0.0,-0.0,-0.0,-0.0,-0.0,-0.0,-0.0,-0.0,-0.0,-0.0,-0.0,-0.0,-0.0,-0.0,-0.0,-0.0,-0.0,-0.0,-0.0,-0.0,-0.0,-0.0,-0.0,-0.0,-0.0,-0.0,-0.0806,-0.3409,-0.6147,-0.8002,-0.7965,-0.7965,-0.7972,-0.7972,-0.7965,-0.7959,-0.7959,-0.8048,-0.8038,-0.8038,-0.8038,-0.8038,0.0,-0.8038,-0.8038,0.0,0.0,0.0,0.0,0.0,0.0,-0.8038,-0.8096,0.0,-0.8269,-0.8323,-0.8394,-0.8482,-0.8696,-0.9713,-1.1481,-1.2487,-1.4127,-1.6304,-1.7229,-1.8078,-1.8925,-1.8925,-1.9098,-1.9366,-1.9366,-1.9546,-1.9813,-1.992,-2.0267,-2.0688,-0.0,-0.0,-0.0,0.0,-0.0,0.0,-0.0,-0.0,-0.0,-0.0,-0.0,-0.0,-0.0,-0.0,-0.0,-0.0,0.0,0.0,0.0,-0.0,-0.0,-0.0,-0.0,-0.0,-0.0,-0.0,-0.0,-0.0,-0.0,-0.0,-0.0,-0.0,-0.0,-0.0,-0.0,-0.0,-0.0,-0.0,-0.0,-0.0,-0.0,-0.0,-0.0,-0.0,-0.0,-0.0,-0.0,-0.0,-0.0,-0.0,-0.0,-0.0,-0.0,-0.0,-0.0,-0.0,-0.0,-0.0,-0.0,-0.0,-0.0101,-0.0505,-0.0505,-0.0505,-0.0101,-0.0101,-0.1008,-0.3509,-0.6139,-0.7979,-0.8048,-0.8041,-0.8041,-0.8041,-0.8041,-0.8038,-0.8038,-0.8038,-0.8038,-0.8038,0.0,0.0,-0.8038,-0.8038,-0.8038,0.0,0.0,0.0,0.0,0.0,-0.8055,-0.8055,-0.8204,-0.8289,-0.8299,-0.8442,-0.8523,-0.8547,-0.8835,-0.9894,-1.1557,-1.1557,-1.3274,-1.6139,-1.6139,-1.7196,-1.8951,-1.8951,-1.9118,-1.9372,-1.9392,-1.9573,-1.9867,-2.0154,-2.0448,-2.0742,0.0,0.0,-0.0,-0.0,-0.0,-0.0,-0.0,-0.0,-0.0,-0.0,-0.0,-0.0,-0.0,-0.0,-0.0,-0.0,-0.0,-0.0,-0.0,-0.0,-0.0,-0.0,-0.0,-0.0,-0.0,-0.0,-0.0,-0.0,-0.0,-0.0,-0.0,-0.0,-0.0,-0.0,-0.0,-0.0,-0.0,-0.0,-0.0,-0.0,-0.0,-0.0,-0.0,-0.0,-0.0,-0.0,-0.0,-0.0,-0.0,-0.0,-0.0,-0.0,-0.0,-0.0,-0.0,-0.0,-0.0,-0.0,-0.0,-0.0,-0.101,-0.5071,-0.6085,-0.5054,-0.0906,-0.1609,-0.3214,-0.3914,-0.6142,-0.7985,-0.7969,-0.7965,-0.7965,-0.7965,-0.7952,-0.8038,-0.8038,-0.8038,-0.8038,0.0,-0.8038,-0.8038,-0.8038,-0.8038,-0.8038,0.0,0.0,0.0,0.0,-0.815,-0.8214,-0.8214,-0.8357,-0.8489,-0.8604,-0.8757,-0.8944,-0.9171,-0.9242,-1.017,-1.1866,-1.1866,-1.3689,-1.6785,-1.6785,-1.7768,-1.9265,-1.9265,-1.9305,-1.9392,-1.9613,-1.9873,-2.0167,-2.0461,-2.0755,-2.1015,-0.0,-0.0,-0.0,-0.0,-0.0,-0.0,-0.0,-0.0,-0.0,-0.0,-0.0,-0.0,-0.0,-0.0,-0.0,-0.0,-0.0,-0.0,-0.0,-0.0,-0.0,-0.0,-0.0,-0.0,-0.0,-0.0,-0.0,-0.0,-0.0,-0.0,-0.0,-0.0,-0.0,-0.0,-0.0,-0.0,-0.0,-0.0,-0.0,-0.0,-0.0,-0.0,-0.0,-0.0,-0.0,-0.0,-0.0,-0.0,-0.0,-0.0,-0.0,-0.0,-0.0,-0.0,-0.0,-0.0,-0.0,-0.0,-0.0,-0.0,-0.1313,-0.6701,-0.8032,-0.7196,-0.4331,-0.3819,-0.4318,-0.5529,-0.6956,-0.7975,-0.7962,-0.7959,-0.7959,-0.7959,-0.8048,-0.8038,-0.8038,-0.8038,-0.8038,-0.8038,-0.8038,-0.8038,-0.8038,-0.8038,-0.8038,-0.8038,-0.8106,0.0,-0.8143,-0.8418,-0.8482,-0.8279,-0.8543,-0.873,-0.8815,-0.9032,-0.9256,-0.9486,-0.9486,-1.0026,-1.0998,-1.0998,-1.2825,-1.5902,-1.5902,-1.7214,-1.9366,-1.9366,-1.9366,-1.9399,-1.9686,-1.9973,-2.0267,-2.0568,-2.0862,-2.1109,-0.0,-0.0,-0.0,-0.0,-0.0,-0.0,-0.0,-0.0,-0.0,-0.0,-0.0,-0.0,-0.0,-0.0,-0.0,-0.0,-0.0,-0.0,-0.0,-0.0,-0.0,-0.0,-0.0,-0.0,-0.0,-0.0,-0.0,-0.0,-0.0,-0.0,-0.0,-0.0,-0.0,-0.0,-0.0,-0.0,-0.0,-0.0,-0.0,-0.0,-0.0,-0.0,-0.0,-0.0,-0.0,-0.0,-0.0,-0.0,-0.0,-0.0,-0.0,-0.0,-0.0,-0.0,-0.0,-0.0,-0.0,-0.0,-0.0,-0.0606,-0.2221,-0.6377,-0.7708,-0.8012,-0.7992,-0.6242,-0.5222,-0.7563,-0.7969,-0.7962,-0.8041,-0.8038,-0.8038,-0.8038,-0.8038,-0.8038,-0.8038,0.0,-0.8048,-0.8072,-0.8075,-0.8082,-0.8106,-0.8106,-0.8106,-0.8106,-0.8228,-0.8313,-0.8336,-0.872,-0.8774,-0.8414,-0.8794,-0.9015,-0.9039,-0.9289,-0.9493,-0.9642,-0.9642,-0.9703,-0.9822,-0.9822,-1.1619,-1.4604,-1.4604,-1.6385,-1.9366,-1.9366,-1.9366,-1.9399,-1.9733,-2.0013,-2.0274,-2.0615,-2.0895,-2.1109,-0.0,-0.0,-0.0,-0.0,-0.0,-0.0,-0.0,-0.0,-0.0,-0.0,-0.0,-0.0,-0.0,-0.0,-0.0,-0.0,-0.0,-0.0,-0.0,-0.0,-0.0,-0.0,-0.0,-0.0,-0.0,-0.0,-0.0,-0.0,-0.0,-0.0,-0.0,-0.0,-0.0,-0.0,-0.0,-0.0,-0.0,-0.0,-0.0,-0.0,-0.0,-0.0,-0.0,-0.0,-0.0,-0.0,-0.0,-0.0,-0.0,-0.0,-0.0,-0.0,-0.0,-0.0,-0.0,-0.0,-0.0,-0.0,-0.0,-0.3334,-0.6377,-0.4933,-0.6348,-0.7979,-0.7975,-0.7653,-0.754,-0.7869,-0.7959,-0.8041,-0.8038,-0.8038,-0.8038,-0.8038,-0.8038,-0.8038,-0.8038,0.0,-0.8089,-0.8218,-0.8235,-0.8282,-0.8401,-0.8414,-0.8414,-0.8414,-0.8435,-0.8506,-0.8635,-0.8832,-0.8964,-0.9015,-0.9208,-0.9374,-0.9503,-0.9551,-0.9646,-0.9788,-0.9788,-0.9798,-0.9822,-0.9822,-1.1619,-1.4604,-1.4604,-1.6385,-1.9366,-1.9366,-1.9366,-1.9419,-1.9953,-2.0194,-2.0301,-2.0842,-2.1069,-2.1109,-0.0,-0.0,-0.0,-0.0,-0.0,-0.0,-0.0,-0.0,-0.0,-0.0,-0.0,-0.0,-0.0,-0.0,-0.0,-0.0,-0.0,-0.0,-0.0,-0.0,-0.0,-0.0,-0.0,-0.0,-0.0,-0.0,-0.0,-0.0,-0.0,-0.0,-0.0,-0.0,-0.0,-0.0,-0.0,-0.0,-0.0,-0.0,-0.0,-0.0,-0.0,-0.0,-0.0,-0.0,-0.0,-0.0,-0.0,-0.0,-0.0,-0.0,-0.0,-0.0,-0.0,-0.0,-0.0,-0.0,-0.0,-0.0,-0.0,-0.394,-0.7711,-0.6456,-0.7056,-0.7969,-0.7959,-0.8045,-0.8041,-0.7952,-0.8045,-0.8038,-0.8038,-0.8038,-0.8038,-0.8038,-0.8038,0.0,-0.8038,-0.8109,-0.8191,-0.8262,-0.8336,-0.8411,-0.8476,-0.8557,-0.8604,-0.8604,-0.8754,-0.8872,-0.8947,-0.9171,-0.933,-0.9398,-0.9466,-0.9574,-0.9724,-0.9724,-0.9754,-0.9822,-0.9822,-0.9822,-0.9822,-0.9822,-1.114,-1.3407,-1.4242,-1.5908,-1.8163,-1.9004,-1.9459,-1.9639,-2.0067,-2.0327,-2.0521,-2.0955,-2.1109,-2.1109,-0.0,-0.0,-0.0,-0.0,-0.0,-0.0,-0.0,-0.0,-0.0,-0.0,-0.0,-0.0,-0.0,-0.1214,-0.2071,-0.2061,-0.0837,-0.0306,-0.0913,-0.1517,-0.1313,-0.0101,-0.0,-0.0,-0.0,-0.0,-0.0,-0.0,-0.0,-0.0,-0.0,-0.0,-0.0,-0.0,-0.0,-0.0,-0.0,-0.0,-0.0,-0.0,-0.0,-0.0,-0.0,-0.0,-0.0,-0.0,-0.0,-0.0,-0.0,-0.0,-0.0,-0.0,-0.0,-0.0,-0.0,-0.0,-0.0909,-0.1817,-0.1817,-0.4444,-0.719,-0.7889,-0.7975,-0.7972,-0.8089,-0.8092,-0.8102,-0.8136,-0.8143,-0.8143,-0.8143,-0.8116,-0.8092,-0.8092,0.0,-0.8052,0.0,-0.8197,-0.8296,-0.8364,-0.8469,-0.8564,-0.8632,-0.8743,-0.8828,-0.8862,-0.9079,-0.9222,-0.9256,-0.9483,-0.9625,-0.9656,-0.9659,-0.971,-0.9819,-0.9822,-0.9822,-0.9822,-0.9822,-0.9822,-0.9822,-0.9822,-1.066,-1.2213,-1.3526,-1.5192,-1.7091,-1.8355,-1.9233,-1.9833,-2.0194,-2.0474,-2.0715,-2.1002,-2.1109,-2.1109,-0.0,-0.0,-0.0,-0.0,-0.0,-0.0,-0.0,-0.0,-0.0,-0.0,-0.0,-0.0,-0.0,-0.4931,-0.8251,-0.8192,-0.3206,-0.105,-0.3507,-0.6017,-0.5159,-0.0202,-0.0,-0.0,-0.0,-0.0,-0.0,-0.0,-0.0,-0.0,-0.0,-0.0,-0.0,-0.0,-0.0,-0.0,-0.0,-0.0,-0.0,-0.0,-0.0,-0.0,-0.0,-0.0,-0.0,-0.0,-0.0,-0.0,-0.0,-0.0,-0.0,-0.0,-0.0,-0.0,-0.0,-0.0,-0.3536,-0.7406,-0.7406,-0.5854,-0.4924,-0.7363,-0.7959,-0.8079,-0.8221,-0.8252,-0.8292,-0.8421,-0.8448,-0.8448,-0.8448,-0.8343,-0.8252,-0.8252,0.0,0.0,-0.8235,-0.8262,-0.8374,-0.8645,-0.8686,-0.8801,-0.9076,-0.9113,-0.9178,-0.932,-0.9351,-0.9425,-0.9568,-0.9598,-0.9669,-0.9802,-0.9805,-0.9812,-0.9822,-0.9822,-0.9822,-0.9822,-0.9822,-0.9822,-0.9822,-0.9822,-1.066,-1.2217,-1.2333,-1.4118,-1.6985,-1.7345,-1.8433,-1.9853,-2.0428,-2.0661,-2.0715,-2.1002,-2.1109,-2.1109,-0.0,-0.0,-0.0,-0.0,-0.0,-0.0,-0.0,-0.3129,-0.547,-0.547,-0.2348,-0.0672,-0.2567,-0.6428,-0.8855,-0.8879,-0.6816,-0.5836,-0.643,-0.748,-0.6337,-0.2616,-0.0906,-0.0,-0.0,-0.0,-0.0,-0.0,-0.0,-0.0,-0.0,-0.0,-0.0,-0.0,-0.0,-0.0,-0.0,-0.0,-0.0,-0.0,-0.0,-0.0,-0.0,-0.0,-0.0,-0.0,-0.0,-0.0,-0.0,-0.0,-0.0,-0.0,-0.0,-0.0,-0.0,-0.0,-0.4075,-0.848,-0.8357,-0.7499,-0.696,-0.7896,-0.8262,-0.833,-0.8387,-0.8401,-0.8418,-0.8472,-0.8482,-0.8482,-0.8482,-0.8438,-0.8401,-0.8401,0.0,-0.8336,-0.8394,-0.8482,-0.8621,-0.8828,-0.893,-0.9066,-0.9273,-0.9381,-0.9459,-0.9517,-0.9605,-0.968,-0.9737,-0.9741,-0.9764,-0.9819,-0.9822,-0.9822,-0.9822,-0.9822,-0.9869,-0.9961,-0.9866,-0.9869,-0.9961,-0.9866,-1.0236,-1.0927,-1.1784,-1.3472,-1.5763,-1.6943,-1.8425,-2.0107,-2.0521,-2.0782,-2.0955,-2.1069,-2.1109,-2.1109,-0.2778,-0.2797,-0.2794,-0.2794,-0.2794,-0.2797,-0.2806,-0.6277,-0.8856,-0.8944,-0.5357,-0.3238,-0.4344,-0.7185,-0.8852,-0.8853,-0.8903,-0.8648,-0.8255,-0.8043,-0.7152,-0.5334,-0.3522,-0.1711,-0.0,-0.0,-0.0,-0.0,-0.0,-0.0,-0.0,-0.0,-0.0,-0.0,-0.0,-0.0,-0.0,-0.0,-0.0,-0.0,-0.0,-0.0,-0.0,-0.0,-0.0,-0.0,-0.0,-0.0,-0.0,-0.0,-0.0,-0.0,-0.0,-0.0,-0.0404,-0.2238,-0.5041,-0.7714,-0.8377,-0.8508,-0.8408,-0.836,-0.8418,-0.8496,-0.8543,-0.8591,-0.8638,-0.8682,-0.873,-0.8764,-0.8764,-0.8726,-0.8693,-0.8693,-0.8655,-0.8642,-0.8686,-0.8784,-0.8906,-0.9059,-0.9164,-0.9286,-0.9439,-0.9547,-0.9629,-0.9673,-0.9768,-0.9822,-0.9822,-0.9822,-0.9822,-0.9822,-0.9822,-0.9842,-0.9893,-0.9893,-0.9971,-1.012,-1.0015,-1.0019,-1.0117,-1.0012,-1.0022,-1.0114,-1.111,-1.2585,-1.4293,-1.6075,-1.7941,-1.9646,-2.044,-2.0935,-2.1109,-2.1109,-2.1109,-2.1109,-0.8947,-0.886,-0.894,-0.894,-0.894,-0.8856,-0.8933,-0.8943,-0.8917,-0.895,-0.894,-0.7811,-0.4899,-0.7154,-0.8863,-0.8863,-0.8954,-0.8852,-0.8648,-0.8262,-0.7959,-0.7992,-0.8012,-0.5457,-0.0101,-0.0,-0.0,-0.0,-0.0,-0.0,-0.0,-0.0,-0.0,-0.0,-0.0,-0.0,-0.0,-0.0,-0.0,-0.0,-0.0,-0.0,-0.0,-0.0,-0.0,-0.0,-0.0,-0.0,-0.0,-0.0,-0.0,-0.0,-0.0,-0.0,-0.1217,-0.7159,-0.6861,-0.5085,-0.7836,-0.8615,-0.8676,-0.8523,-0.8486,-0.8526,-0.8679,-0.8832,-0.8981,-0.9123,-0.9276,-0.9381,-0.9381,-0.9256,-0.9154,-0.9154,-0.9035,-0.8991,-0.9133,-0.9154,-0.9211,-0.9364,-0.9384,-0.9442,-0.9595,-0.9612,-0.9669,-0.9812,-0.9822,-0.9822,-0.9822,-0.9822,-0.9822,-0.9822,-0.9822,-0.9897,-1.0046,-1.0046,-1.0127,-1.0283,-1.028,-1.028,-1.0283,-1.028,-1.028,-1.0283,-1.028,-1.115,-1.2909,-1.4857,-1.6597,-1.8279,-2.0346,-2.1109,-2.1109,-2.1109,-2.1109,-2.1109,-0.8906,-0.8947,-0.894,-0.894,-0.894,-0.8947,-0.886,-0.8863,-0.8856,-0.8944,-0.894,-0.8602,-0.77,-0.8393,-0.8856,-0.895,-0.8944,-0.8794,-0.8452,-0.8377,-0.8309,-0.8221,-0.8032,-0.635,-0.2912,-0.1006,-0.0,-0.0,-0.0,-0.0,-0.0,-0.0,-0.0,-0.0,-0.0,-0.0,-0.0,-0.0,-0.0,-0.0,-0.0,-0.0,-0.0,-0.0,-0.0,-0.0,-0.0,-0.0,-0.0,-0.0,-0.0,-0.0,-0.0,-0.2834,-0.6642,-0.8397,-0.8239,-0.7751,-0.8558,-0.8774,-0.8832,-0.8679,-0.8723,-0.8842,-0.8988,-0.9055,-0.913,-0.9283,-0.9351,-0.9381,-0.9381,-0.9344,-0.9313,-0.9313,-0.9276,-0.9266,-0.9306,-0.9313,-0.9371,-0.9523,-0.954,-0.9598,-0.9744,-0.9758,-0.9774,-0.9819,-0.9822,-0.9822,-0.9822,-0.9822,-0.9822,-0.9822,-0.9924,-1.0005,-1.0049,-0.9941,-1.0073,-1.0426,-1.0219,-1.0226,-1.0422,-1.0212,-1.0232,-1.0419,-1.0209,-1.111,-1.2969,-1.492,-1.6597,-1.8279,-2.0346,-2.1109,-2.1109,-2.1109,-2.1109,-2.1109,-0.8862,-0.894,-0.894,-0.894,-0.894,-0.894,-0.894,-0.894,-0.894,-0.894,-0.894,-0.894,-0.894,-0.895,-0.8954,-0.894,-0.894,-0.8784,-0.8418,-0.8448,-0.8462,-0.8418,-0.8245,-0.7333,-0.5597,-0.1917,-0.0,-0.0,-0.0,-0.0,-0.0,-0.0,-0.0,-0.0,-0.0,-0.0,-0.0,-0.0,-0.0,-0.0,-0.0,-0.0,-0.0,-0.0,-0.0,-0.0,-0.0,-0.0,-0.0,-0.0,-0.1448,-0.324,-0.3476,-0.5174,-0.7422,-0.8508,-0.8915,-0.8882,-0.8989,-0.8967,-0.9015,-0.8984,-0.9001,-0.9062,-0.9208,-0.9289,-0.9361,-0.9452,-0.9517,-0.9554,-0.9554,-0.9554,-0.9554,-0.9554,-0.9554,-0.9554,-0.9554,-0.9554,-0.9588,-0.9683,-0.9693,-0.9727,-0.9812,-0.9822,-0.9846,-0.9907,-0.9852,-0.9873,-0.9995,-0.9944,-0.991,-0.991,-1.0059,-1.011,-1.0049,-0.9958,-1.008,-1.0405,-1.0226,-1.0263,-1.0487,-1.0307,-1.0354,-1.0571,-1.0392,-1.0923,-1.2129,-1.4051,-1.5716,-1.7395,-1.9351,-2.0456,-2.1109,-2.1109,-2.1109,-2.1109,-0.8781,-0.8913,-0.894,-0.894,-0.894,-0.894,-0.894,-0.894,-0.894,-0.894,-0.894,-0.894,-0.894,-0.894,-0.894,-0.894,-0.894,-0.8821,-0.854,-0.8523,-0.856,-0.8642,-0.8431,-0.8213,-0.802,-0.2946,-0.0201,-0.0,-0.0,-0.0,-0.0,-0.0,-0.0,-0.0,-0.0,-0.0,-0.0,-0.0,-0.0,-0.0,-0.0,-0.0,-0.0,-0.0,-0.0,-0.0101,-0.0506,-0.0717,-0.0725,-0.0511,-0.3658,-0.7778,-0.8577,-0.7015,-0.5448,-0.8138,-0.8886,-0.8948,-0.9198,-0.9164,-0.9211,-0.9364,-0.9296,-0.9228,-0.9371,-0.951,-0.9612,-0.9625,-0.973,-0.9822,-0.9822,-0.9822,-0.9822,-0.9822,-0.9822,-0.9822,-0.9822,-0.9822,-0.9822,-0.9822,-0.9822,-0.9822,-0.9822,-0.9822,-0.9883,-1.0036,-0.992,-0.9968,-1.0263,-1.0134,-1.0049,-1.0049,-1.0202,-1.0205,-1.0049,-1.0076,-1.0154,-1.028,-1.028,-1.0354,-1.049,-1.049,-1.0575,-1.0721,-1.0707,-1.0707,-1.085,-1.2541,-1.4232,-1.5913,-1.7731,-1.9419,-2.0849,-2.0982,-2.1109,-2.1109,-0.8476,-0.8723,-0.894,-0.894,-0.894,-0.894,-0.894,-0.894,-0.894,-0.894,-0.894,-0.894,-0.894,-0.894,-0.894,-0.894,-0.894,-0.891,-0.8845,-0.8842,-0.8798,-0.8699,-0.8642,-0.8464,-0.8259,-0.4906,-0.2109,-0.0,-0.0,-0.0,-0.0,-0.0,-0.0,-0.0,-0.0,-0.0,-0.0,-0.0,-0.0,-0.0,-0.0,-0.0,-0.0,-0.0,-0.0,-0.0506,-0.4739,-0.6236,-0.5952,-0.4151,-0.4249,-0.5604,-0.7889,-0.8291,-0.806,-0.8682,-0.8991,-0.9192,-0.9137,-0.9242,-0.9367,-0.952,-0.9537,-0.952,-0.9554,-0.9585,-0.9642,-0.9751,-0.9798,-0.9822,-0.9822,-0.9822,-0.9822,-0.9822,-0.9822,-0.9822,-0.9822,-0.9822,-0.9822,-0.9822,-0.9822,-0.9822,-0.9822,-0.9822,-0.9883,-1.0036,-1.0019,-1.0083,-1.027,-1.0134,-1.0049,-1.0049,-1.0202,-1.0205,-1.0049,-1.028,-1.0358,-1.028,-1.028,-1.0354,-1.049,-1.049,-1.0575,-1.0714,-1.0595,-1.0609,-1.085,-1.2541,-1.3582,-1.4232,-1.7339,-1.8768,-1.9285,-2.0589,-2.1109,-2.1109,-0.8523,-0.8686,-0.8852,-0.8927,-0.894,-0.894,-0.894,-0.894,-0.894,-0.894,-0.894,-0.894,-0.894,-0.894,-0.894,-0.894,-0.894,-0.894,-0.894,-0.894,-0.8903,-0.8821,-0.8726,-0.8618,-0.8394,-0.6757,-0.4012,-0.0,-0.1308,-0.1209,-0.0,-0.0,-0.0,-0.0,-0.0,-0.0,-0.0,-0.0,-0.0,-0.0,-0.0,-0.0,-0.0307,-0.287,-0.3772,-0.4255,-0.7367,-0.8304,-0.8052,-0.6829,-0.6473,-0.6728,-0.825,-0.8752,-0.8876,-0.9018,-0.9103,-0.9184,-0.933,-0.9429,-0.9527,-0.9673,-0.971,-0.971,-0.971,-0.971,-0.973,-0.9805,-0.9822,-0.9822,-0.9822,-0.9822,-0.9822,-0.9822,-0.9822,-0.9822,-0.9822,-0.9822,-0.9822,-0.9822,-0.9822,-0.9849,-0.9924,-0.993,-1.0022,-1.0243,-1.0198,-1.0256,-1.048,-1.0344,-1.0259,-1.0259,-1.0409,-1.0385,-1.0161,-1.0382,-1.0422,-1.028,-1.028,-1.0354,-1.049,-1.049,-1.0575,-1.0714,-1.0636,-1.0646,-1.0717,-1.1633,-1.2545,-1.3582,-1.6172,-1.7731,-1.8634,-1.9546,-1.9807,-1.9935,-0.872,-0.875,-0.8791,-0.8916,-0.894,-0.894,-0.894,-0.894,-0.894,-0.894,-0.894,-0.894,-0.894,-0.894,-0.894,-0.894,-0.894,-0.894,-0.894,-0.894,-0.894,-0.894,-0.8777,-0.8638,-0.8523,-0.8255,-0.5856,-0.1407,-0.3112,-0.3116,-0.1312,-0.0403,-0.0,-0.0,-0.0909,-0.0808,-0.0,-0.0504,-0.102,-0.1453,-0.0414,-0.0621,-0.1973,-0.6474,-0.819,-0.8187,-0.8656,-0.8675,-0.8567,-0.8497,-0.8562,-0.8683,-0.8841,-0.8876,-0.8801,-0.9072,-0.9171,-0.9252,-0.9534,-0.9629,-0.9676,-0.9791,-0.9822,-0.9822,-0.9822,-0.9822,-0.9822,-0.9822,-0.9822,-0.9822,-0.9822,-0.9842,-0.9849,-0.9825,-0.9842,-0.9859,-0.9859,-0.9859,-0.9869,-0.9897,-0.99,-0.9937,-1.0039,-1.0073,-1.0202,-1.0473,-1.0382,-1.0436,-1.0707,-1.0575,-1.049,-1.049,-1.0616,-1.0565,-1.0321,-1.046,-1.0473,-1.0354,-1.0354,-1.0402,-1.0493,-1.0517,-1.0602,-1.0721,-1.0721,-1.0721,-1.0721,-1.0721,-1.1501,-1.3062,-1.4749,-1.656,-1.8116,-1.8768,-1.8768,-1.8768,-0.8876,-0.8906,-0.8913,-0.8933,-0.894,-0.894,-0.894,-0.894,-0.894,-0.894,-0.894,-0.894,-0.894,-0.894,-0.894,-0.894,-0.894,-0.894,-0.894,-0.894,-0.894,-0.894,-0.8913,-0.8828,-0.8682,-0.8509,-0.7888,-0.6954,-0.4924,-0.5029,-0.6768,-0.2211,-0.0,-0.0201,-0.4849,-0.4345,-0.0202,-0.2514,-0.5095,-0.7288,-0.2035,-0.3064,-0.7726,-0.847,-0.8774,-0.877,-0.8587,-0.8526,-0.8543,-0.8676,-0.8703,-0.871,-0.8866,-0.891,-0.894,-0.9106,-0.9245,-0.9388,-0.9561,-0.97,-0.9795,-0.9815,-0.9822,-0.9822,-0.9822,-0.9822,-0.9822,-0.9822,-0.9822,-0.9822,-0.9822,-0.993,-0.9975,-0.9842,-0.993,-1.0019,-1.0019,-1.0019,-1.0066,-1.0202,-1.0219,-1.0175,-1.0059,-1.0171,-1.0317,-1.048,-1.0473,-1.0538,-1.0711,-1.0575,-1.049,-1.049,-1.051,-1.0504,-1.0463,-1.0612,-1.068,-1.066,-1.066,-1.0602,-1.0497,-1.0629,-1.07,-1.0721,-1.0721,-1.0721,-1.0721,-1.0721,-1.085,-1.124,-1.2931,-1.4749,-1.6565,-1.9674,-1.9807,-1.8768,-0.8923,-0.894,-0.894,-0.894,-0.894,-0.894,-0.894,-0.894,-0.894,-0.894,-0.894,-0.894,-0.894,-0.894,-0.894,-0.894,-0.894,-0.894,-0.894,-0.894,-0.894,-0.894,-0.894,-0.8906,-0.8838,-0.8662,-0.8482,-0.8299,-0.6903,-0.6842,-0.7989,-0.5536,-0.3717,-0.231,-0.4732,-0.5244,-0.4437,-0.4121,-0.5703,-0.8223,-0.5755,-0.5384,-0.6427,-0.6427,-0.7383,-0.8682,-0.8594,-0.8689,-0.876,-0.8818,-0.8838,-0.8849,-0.8916,-0.8994,-0.9089,-0.9235,-0.9388,-0.954,-0.9686,-0.9774,-0.9842,-0.9927,-0.9883,-0.9842,-0.993,-0.9883,-0.9822,-0.9822,-0.989,-0.9947,-0.9947,-1.0073,-1.0158,-1.0086,-1.0134,-1.0178,-1.0178,-1.0178,-1.0205,-1.0273,-1.028,-1.0287,-1.0297,-1.0358,-1.046,-1.0609,-1.0619,-1.0649,-1.0717,-1.0656,-1.0619,-1.0619,-1.0619,-1.0619,-1.0619,-1.0687,-1.0721,-1.0721,-1.0721,-1.0683,-1.0622,-1.0687,-1.0721,-1.0721,-1.0721,-1.0721,-1.0721,-1.0721,-1.0721,-1.085,-1.2672,-1.3709,-1.4879,-1.8378,-1.8506,-1.7474]},{"header":{"parameterUnit":"m.s-1","parameterCategory":1,"la1":30.6,"la2":28.766,"lo1":-90.7593,"lo2":-88.6598,"dy":0.0162,"dx":0.0183,"nx":116,"ny":114,"refTime":"2023-04-12T06:00:00:Z","depth":0,"parameterNumber":3,"parameterNumberName":"V-component_of_WINDS"},"data":[0.0,0.0,0.0,0.0,0.0,0.0,0.0,0.0,0.0,0.0,0.0,0.0,0.0,0.0,0.0,0.0,0.0,0.0,0.0,0.0,0.0,0.0,0.0,0.0,0.0,0.0,0.0,0.0,0.0,0.0,0.0,0.0,0.0,0.0,0.0,0.0,0.0,0.0,0.0,0.0,0.0,0.0,0.0,0.0,0.0,0.0,0.0,0.0,0.0,0.0,0.0,0.0,0.0,0.0,0.0,0.0,0.0,0.0,0.0,0.0,0.0,0.0,0.0,0.0,0.0,0.0,0.0,0.0,0.0,0.0,0.0,0.0,0.0,0.0,0.0,0.0,0.0,0.0,0.0,0.0,0.0,0.0,0.0,0.0,0.0,0.0,0.0,0.0,0.0,0.0,0.0,0.0,0.0,0.0,0.0,0.0,0.0,0.0,0.0,0.0,0.0,0.0,0.0,0.0,0.0,0.0,0.0,0.0,0.0,0.0,0.0,0.0,0.0,0.0,0.0,0.0,0.0,0.0,0.0,0.0,0.0,0.0,0.0,0.0,0.0,0.0,0.0,0.0,0.0,0.0,0.0,0.0,0.0,0.0,0.0,0.0,0.0,0.0,0.0,0.0,0.0,0.0,0.0,0.0,0.0,0.0,0.0,0.0,0.0,0.0,0.0,0.0,0.0,0.0,0.0,0.0,0.0,0.0,0.0,0.0,0.0,0.0,0.0,0.0,0.0,0.0,0.0,0.0,0.0,0.0,0.0,0.0,0.0,0.0,0.0,0.0,0.0,0.0,0.0,0.0,0.0,0.0,0.0,0.0,0.0,0.0,0.0,0.0,0.0,0.0,0.0,0.0,0.0,0.0,0.0,0.0,0.0,0.0,0.0,0.0,0.0,0.0,0.0,0.0,0.0,0.0,0.0,0.0,0.0,0.0,0.0,0.0,0.0,0.0,0.0,0.0,0.0,0.0,0.0,0.0,0.0,0.0,0.0,0.0,0.0,0.0,0.0,0.0,0.0,0.0,0.0,0.0,0.0,0.0,0.0,0.0,0.0,0.0,0.0,0.0,0.0,0.0,0.0,0.0,0.0,0.0,0.0,0.0,0.0,0.0,0.0,0.0,0.0,0.0,0.0,0.0,0.0,0.0,0.0,0.0,0.0,0.0,0.0,0.0,0.0,0.0,0.0,0.0,0.0,0.0,0.0,0.0,0.0,0.0,0.0,0.0,0.0,0.0,0.0,0.0,0.0,0.0,0.0,0.0,0.0,0.0,0.0,0.0,0.0,0.0,0.0,0.0,0.0,0.0,0.0,0.0,0.0,0.0,0.0,0.0,0.0,0.0,0.0,0.0,0.0,0.0,0.0,0.0,0.0,0.0,0.0,0.0,0.0,0.0,0.0,0.0,0.0,0.0,0.0,0.0,0.0,0.0,0.0,0.0,0.0,0.0,0.0,0.0,0.0,0.0,0.0,0.0,0.0,0.0,0.0,0.0,0.0,0.0,0.0,0.0,0.0,0.0,0.0,0.0,0.0,0.0,0.0,0.0,0.0,0.0,0.0,0.0,0.0,0.0,0.0,0.0,0.0,0.0,0.0,0.0,0.0,0.0,0.0,0.0,0.0,0.0,0.0,0.0,0.0,0.0,0.0,0.0,0.0,0.0,0.0,0.0,0.0,0.0,0.0,0.0,0.0,0.0,0.0,0.0,0.0,0.0,0.0,0.0,0.0,0.0,0.0,0.0,0.0,0.0,0.0,0.0,0.0,0.0,0.0,0.0,0.0,0.0,0.0,0.0,0.0,0.0,0.0,0.0,0.0,0.0,0.0,0.0,0.0,0.0,0.0,0.0,0.0,0.0,0.0,0.0,0.0,0.0,0.0,0.0,0.0,0.0,0.0,0.0,0.0,0.0,0.0,0.0,0.0,0.0,0.0,0.0,0.0,0.0,0.0,0.0,0.0,0.0,0.0,0.0,0.0,0.0,0.0,0.0,0.0,0.0,0.0,0.0,0.0,0.0,0.0,0.0,0.0,0.0,0.0,0.0,0.0,0.0,0.0,0.0,0.0,0.0,0.0,0.0,0.0,0.0,0.0,0.0,0.0,0.0,0.0,0.0,0.0,0.0,0.0,0.0,0.0,0.0,0.0,0.0,0.0,0.0,0.0,0.0,0.0,0.0,0.0,0.0,0.0,0.0,0.0,0.0,0.0,0.0,0.0,0.0,0.0,0.0,0.0,0.0,0.0,0.0,0.0,0.0,0.0,0.0,0.0,0.0,0.0,0.0,0.0,0.0,0.0,0.0,0.0,0.0,0.0,0.0,0.0,0.0,0.0,0.0,0.0,0.0,0.0,0.0,0.0,0.0,0.0,0.0,0.0,0.0,0.0,0.0,0.0,0.0,0.0,0.0,0.0,0.0,0.0,0.0,0.0,0.0,0.0,0.0,0.0,0.0,0.0,0.0,0.0,0.0,0.0,0.0,0.0,0.0,0.0,0.0,0.0,0.0,0.0,0.0,0.0,0.0,0.0,0.0,0.0,0.0,0.0,0.0,0.0,0.0,0.0,0.0,0.0,0.0,0.0,0.0,0.0,0.0,0.0,0.0,0.0,0.0,0.0,0.0,0.0,0.0,0.0,0.0,0.0,0.0,0.0,0.0,0.0,0.0,0.0,0.0,0.0,0.0,0.0,0.0,0.0,0.0,0.0,0.0,0.0,0.0,0.0,0.0,0.0,0.0,0.0,0.0,0.0,0.0,0.0,0.0,0.0,0.0,0.0,0.0,0.0,0.0,0.0,0.0,0.0,0.0,0.0,0.0,0.0,0.0,0.0,0.0,0.0,0.0,0.0,0.0,0.0,0.0,0.0,0.0,0.0,0.0,0.0,0.0,0.0,0.0,0.0,0.0,0.0,0.0,0.0,0.0,0.0,0.0,0.0,0.0,0.0,0.0,0.0,0.0,0.0,0.0,0.0,0.0,0.0,0.0,0.0,0.0,0.0,0.0,0.0,0.0,0.0,0.0,0.0,0.0,0.0,0.0,0.0,0.0,0.0,0.0,0.0,0.0,0.0,0.0,0.0,0.0,0.0,0.0,0.0,0.0,0.0,0.0,0.0,0.0,0.0,0.0,0.0,0.0,0.0,0.0,0.0,0.0,0.0,0.0,0.0,0.0,0.0,0.0,0.0,0.0,0.0,0.0,0.0,0.0,0.0,0.0,0.0,0.0,0.0,0.0,0.0,0.0,0.0,0.0,0.0,0.0,0.0,0.0,0.0,0.0,0.0,0.0,0.0,0.0,0.0,0.0,0.0,0.0,0.0,0.0,0.0,0.0,0.0,0.0,0.0,0.0,0.0,0.0,0.0,0.0,0.0,0.0,0.0,0.0,0.0,0.0,0.0,0.0,0.0,0.0,0.0,0.0,0.0,0.0,0.0,0.0,0.0,0.0,0.0,0.0,0.0,0.0,0.0,0.0,0.0,0.0,0.0,0.0,0.0,0.0,0.0,0.0,0.0,0.0,0.0,0.0,0.0,0.0,0.0,0.0,0.0,0.0,0.0,0.0,0.0,0.0,0.0,0.0,0.0,0.0,0.0,0.0,0.0,0.0,0.0,0.0,0.0,0.0,0.0,0.0,0.0,0.0,0.0,0.0,0.0,0.0,0.0,0.0,0.0,0.0,0.0,0.0,0.0,0.0,0.0,0.0,0.0,0.0,0.0,0.0,0.0,0.0,0.0,0.0,0.0,0.0,0.0,0.0,0.0,0.0,0.0,0.0,0.0,0.0,0.0,0.0,0.0,0.0,0.0,0.0,0.0,0.0,0.0,0.0,0.0,0.0,0.0,0.0,0.0,0.0,0.0,0.0,0.0,0.0,0.0,0.0,0.0,0.0,0.0,0.0,0.0,0.0,0.0,0.0,0.0,0.0,0.0,0.0,0.0,0.0,0.0,0.0,0.0,0.0,0.0,0.0,0.0,0.0,0.0,0.0,0.0,0.0,0.0,0.0,0.0,0.0,0.0,0.0,0.0,0.0,0.0,0.0,0.0,0.0,0.0,0.0,0.0,0.0,0.0,0.0,0.0,0.0,0.0,0.0,0.0,0.0,0.0,0.0,0.0,0.0,0.0,0.0,0.0,0.0,0.0,0.0,0.0,0.0,0.0,0.0,0.0,0.0,0.0,0.0,0.0,0.0,0.0,0.0,0.0,0.0,0.0,0.0,0.0,0.0,0.0,0.0,0.0,0.0,0.0,0.0,0.0,0.0,0.0,0.0,0.0,0.0,0.0,0.0,0.0,0.0,0.0,0.0,0.0,0.0,0.0,0.0,0.0,0.0,0.0,0.0,0.0,0.0,0.0,0.0,0.0,0.0,0.0,0.0,0.0,0.0,0.0,0.0,0.0,0.0,0.0,0.0,0.0,0.0,0.0,0.0,0.0,0.0,0.0,0.0,0.0,0.0,0.0,0.0,0.0,0.0,0.0,0.0,0.0,0.0,0.0,0.0,0.0,0.0,0.0,0.0,0.0,0.0,0.0,0.0,0.0,0.0,0.0,0.0,0.0,0.0,0.0,0.0,0.0,0.0,0.0,0.0,0.0,0.0,0.0,0.0,0.0,0.0,0.0,0.0,0.0,0.0,0.0,0.0,0.0,0.0,0.0,0.0,0.0,0.0,0.0,0.0,0.0,0.0,0.0,0.0,0.0,0.0,0.0,0.0,0.0,0.0,0.0,0.0,0.0,0.0,0.0,0.0,0.0,0.0,0.0,0.0,0.0,0.0,0.0,0.0,0.0,0.0,0.0,0.0,0.0,0.0,0.0,0.0,0.0,0.0,0.0,0.0,0.0,0.0,0.0,0.0,0.0,0.0,0.0,0.0,0.0,0.0,0.0,0.0,0.0,0.0,0.0,0.0,0.0,0.0,0.0,0.0,0.0,0.0,0.0,0.0,0.0,0.0,0.0,0.0,0.0,0.0,0.0,0.0,0.0,0.0,0.0,0.0,0.0,0.0,0.0,0.0,0.0,0.0,0.0,0.0,0.0,0.0,0.0,0.0,0.0,0.0,0.0,0.0,0.0,0.0,0.0,0.0,0.0,0.0,0.0,0.0,0.0,0.0,0.0,0.0,0.0,0.0,0.0,0.0,0.0,0.0,0.0,0.0,0.0,0.0,0.0,0.0,0.0,0.0,0.0,0.0,0.0,0.0,0.0,0.0,0.0,0.0,0.0,0.0,0.0,0.0,0.0,0.0,0.0,0.0,0.0,0.0,0.0,0.0,0.0,0.0,0.0,0.0,0.0,0.0,0.0,0.0,0.0,0.0,0.0,0.0,0.0,0.0,0.0,0.0,0.0,0.0,0.0,0.0,0.0,0.0,0.0,0.0,0.0,0.0,0.0,0.0,0.0,0.0,0.0,0.0,0.0,0.0,0.0,0.0,0.0,0.0,0.0,0.0,0.0,0.0,0.0,0.0,0.0,0.0,0.0,0.0,0.0,0.0,0.0,0.0,0.0,0.0,0.0,0.0,0.0,0.0,0.0,0.0,0.0,0.0,0.0,0.0,0.0,0.0,0.0,0.0,0.0,0.0,0.0,0.0,0.0,0.0,0.0,0.0,0.0,0.0,0.0,0.0,0.0,0.0,0.0,0.0,0.0,0.0,0.0,0.0,0.0,0.0,0.0,0.0,0.0,0.0,0.0,0.0,0.0,0.0,0.0,0.0,0.0,0.0,0.0,0.0,0.0,0.0,0.0,0.0,0.0,0.0,0.0,0.0,0.0,0.0,0.0,0.0,0.0,0.0,0.0,0.0,0.0,0.0,0.0,0.0,0.0,0.0,0.0,0.0,0.0,0.0,0.0,0.0,0.0,0.0,0.0,0.0,0.0,0.0,0.0,0.0,0.0,0.0,0.0,0.0,0.0,0.0,0.0,0.0,0.0,0.0,0.0,0.0,0.0,0.0,0.0,0.0,0.0,0.0,0.0,0.0,0.0,0.0,0.0,0.0,0.0,0.0,0.0,0.0,0.0,0.0,0.0,0.0,0.0,0.0,0.0,0.0,0.0,0.0,0.0,0.0,0.0,0.0,0.0,0.0,0.0,0.0,0.0,0.0,0.0,0.0,0.0,0.0,-1.966,-2.0027,0.0,0.0,0.0,0.0,0.0,0.0,0.0,0.0,0.0,0.0,0.0,0.0,0.0,0.0,0.0,0.0,0.0,0.0,0.0,0.0,0.0,0.0,0.0,0.0,0.0,0.0,0.0,0.0,0.0,0.0,0.0,0.0,0.0,0.0,0.0,0.0,0.0,-3.0184,-3.0758,-3.138,-3.211,-3.3815,-3.5107,-3.6017,0.0,0.0,0.0,0.0,0.0,0.0,0.0,0.0,0.0,0.0,0.0,0.0,0.0,0.0,0.0,0.0,0.0,0.0,0.0,0.0,0.0,0.0,0.0,0.0,0.0,0.0,0.0,0.0,0.0,0.0,0.0,0.0,0.0,0.0,0.0,0.0,0.0,0.0,0.0,0.0,0.0,0.0,0.0,0.0,0.0,0.0,0.0,0.0,0.0,0.0,0.0,0.0,0.0,0.0,0.0,0.0,0.0,0.0,0.0,0.0,0.0,0.0,0.0,0.0,0.0,0.0,0.0,0.0,0.0,0.0,-2.2697,-2.1568,0.0,0.0,0.0,0.0,0.0,0.0,0.0,0.0,0.0,0.0,0.0,0.0,0.0,0.0,0.0,0.0,0.0,0.0,0.0,0.0,0.0,0.0,0.0,-2.5243,-2.5815,-2.5945,-2.5975,-2.6365,-2.7281,0.0,0.0,0.0,0.0,0.0,-2.9084,-3.0791,-3.1641,-3.1468,-3.1775,-3.2487,-3.3603,-3.5353,-3.6001,-3.5761,-3.674,0.0,0.0,0.0,0.0,0.0,0.0,0.0,0.0,0.0,0.0,0.0,0.0,0.0,0.0,0.0,0.0,0.0,0.0,0.0,0.0,0.0,0.0,0.0,0.0,0.0,0.0,0.0,0.0,0.0,0.0,0.0,0.0,0.0,0.0,0.0,0.0,0.0,0.0,0.0,0.0,0.0,0.0,0.0,0.0,0.0,0.0,0.0,0.0,0.0,0.0,0.0,0.0,0.0,0.0,0.0,0.0,0.0,0.0,0.0,0.0,0.0,0.0,0.0,-2.8457,-2.861,-2.7995,-2.8763,-2.9525,-3.0123,-2.7102,-2.4569,-2.262,-2.3662,0.0,0.0,0.0,0.0,0.0,0.0,0.0,0.0,0.0,0.0,0.0,0.0,0.0,0.0,0.0,0.0,0.0,0.0,0.0,-2.5013,-2.5689,-2.5893,-2.6247,-2.6942,-2.7053,-2.7186,-2.745,0.0,0.0,0.0,0.0,-2.9406,-3.0163,-3.1186,-3.1333,-3.0571,-3.2025,-3.393,-3.6238,-3.7988,-3.9127,-3.966,-3.7907,-3.786,-3.9067,0.0,0.0,0.0,0.0,0.0,0.0,0.0,0.0,0.0,0.0,0.0,0.0,0.0,0.0,0.0,0.0,0.0,0.0,0.0,0.0,0.0,0.0,0.0,0.0,0.0,0.0,0.0,0.0,0.0,0.0,0.0,0.0,0.0,0.0,0.0,0.0,0.0,0.0,0.0,0.0,0.0,-2.6139,-2.5792,0.0,0.0,0.0,0.0,0.0,0.0,0.0,0.0,0.0,0.0,0.0,0.0,0.0,-3.0257,-2.946,-3.0446,-3.0869,-3.0881,-3.0447,-2.9944,-2.9333,-2.9825,-3.1086,-3.29,-3.1279,0.0,-2.4792,-2.4529,0.0,0.0,0.0,0.0,0.0,0.0,0.0,0.0,0.0,0.0,0.0,0.0,0.0,0.0,0.0,0.0,0.0,0.0,0.0,0.0,0.0,-2.6937,-2.7667,-2.7916,-2.8772,-2.9188,-2.8917,-2.9247,0.0,0.0,-3.0294,-3.0737,-3.1121,-3.1948,-3.2679,-3.3263,-3.4949,-3.6334,-3.7469,-3.9181,-4.0162,-4.0469,-3.9814,-3.9635,-3.9724,-3.8131,0.0,0.0,0.0,0.0,0.0,0.0,0.0,0.0,0.0,0.0,0.0,0.0,0.0,0.0,0.0,0.0,0.0,0.0,0.0,0.0,0.0,0.0,0.0,0.0,0.0,0.0,0.0,0.0,0.0,0.0,0.0,0.0,0.0,0.0,0.0,0.0,0.0,0.0,0.0,-2.7654,-2.8061,-2.8113,-2.9431,-3.0497,0.0,0.0,0.0,0.0,0.0,0.0,0.0,0.0,0.0,-3.0094,-3.1368,-3.1242,-2.943,-3.084,-3.1747,-3.2078,-3.2153,-3.208,-3.1777,-3.1692,-3.2736,-3.4562,-3.3472,-3.1364,-2.8582,-2.7176,-2.6222,-2.5674,0.0,0.0,0.0,0.0,-2.459,-2.4188,0.0,0.0,0.0,0.0,0.0,0.0,0.0,0.0,0.0,0.0,0.0,0.0,-2.6746,-2.8161,-2.9261,-2.9719,-3.0696,-3.1186,-3.088,-3.081,-3.0765,-3.0744,-3.1141,-3.1468,-3.1698,-3.2929,-3.441,-3.6142,-3.7815,-3.8873,-3.9335,-4.1008,-4.1912,-4.2162,-4.2527,-4.2067,-4.0881,-3.8567,-3.7771,-3.808,0.0,0.0,0.0,0.0,0.0,0.0,0.0,0.0,0.0,0.0,0.0,0.0,0.0,0.0,0.0,0.0,0.0,0.0,0.0,0.0,0.0,0.0,0.0,0.0,0.0,0.0,0.0,0.0,0.0,0.0,0.0,0.0,0.0,0.0,0.0,0.0,0.0,-2.9027,-2.9692,-2.9807,-3.1444,-3.2713,0.0,0.0,0.0,0.0,0.0,0.0,-3.3914,-3.4675,-3.4413,-3.2967,-3.3725,-3.316,-3.097,-3.2491,-3.3442,-3.3769,-3.4262,-3.4312,-3.3991,-3.3657,-3.4244,-3.5457,-3.4819,-3.3602,-3.2032,-2.9711,-2.8127,-2.7103,-2.722,-2.7103,-2.6927,-2.6986,-2.644,-2.5687,0.0,0.0,0.0,0.0,0.0,0.0,0.0,0.0,0.0,0.0,0.0,-2.6274,-2.8681,-2.9492,-3.0731,-3.2957,-3.2694,-3.2656,-3.3184,-3.1474,-3.079,-3.1602,-3.0891,-3.0852,-3.1679,-3.4122,-3.6199,-3.7873,-3.9546,-4.1219,-4.2874,-4.4547,-4.5778,-4.6568,-4.6278,-4.5194,-4.3397,-4.0196,-3.9223,-3.9833,-3.9339,0.0,0.0,0.0,0.0,0.0,0.0,0.0,0.0,0.0,0.0,0.0,0.0,0.0,0.0,0.0,0.0,0.0,0.0,0.0,0.0,0.0,0.0,0.0,0.0,0.0,0.0,0.0,0.0,0.0,0.0,0.0,0.0,0.0,0.0,0.0,0.0,0.0,0.0,-2.9163,-3.1579,0.0,0.0,0.0,0.0,-3.4387,-3.5013,-3.5436,-3.5504,-3.6248,-3.6625,-3.6554,-3.7797,-3.8092,-3.7219,-3.793,-3.7892,-3.7165,-3.7195,-3.658,-3.5371,-3.5356,-3.5427,-3.5503,-3.5474,-3.5056,-3.4173,-3.1511,-2.9842,-2.9011,-2.9793,-2.9624,-2.8864,-2.9053,-2.8302,-2.7145,0.0,0.0,0.0,0.0,0.0,0.0,0.0,0.0,-2.5495,-2.6063,-2.7084,-2.8627,-3.0965,-3.2583,-3.3904,-3.4911,-3.4963,-3.4372,-3.2987,-3.2664,-3.2269,-3.1725,-3.2487,-3.357,-3.5018,-3.6954,-3.9046,-4.1277,-4.3528,-4.5201,-4.6355,-4.8067,-4.9048,-4.9336,-4.922,-4.8815,-4.7894,-4.2661,-4.0711,-4.0991,-3.9189,-3.9065,0.0,0.0,0.0,0.0,0.0,0.0,0.0,0.0,0.0,0.0,0.0,0.0,0.0,0.0,0.0,0.0,0.0,0.0,0.0,0.0,0.0,0.0,0.0,0.0,0.0,0.0,0.0,0.0,0.0,0.0,0.0,0.0,0.0,0.0,0.0,0.0,0.0,-3.3787,-3.4928,0.0,-3.6535,-3.6214,-3.6163,-3.6654,-3.6941,-3.7499,-3.8464,-3.9665,-4.037,-4.0337,-4.0809,-4.0415,-3.9054,-3.9253,-3.8877,-3.8033,-3.8033,-3.8033,-3.7988,-3.7124,-3.673,-3.6663,-3.5852,-3.5347,-3.504,-3.3634,-3.2375,-3.1258,-3.1131,-3.0896,-3.0644,-3.0703,-3.01,-2.9299,0.0,0.0,0.0,0.0,0.0,0.0,0.0,-2.5303,-2.5514,-2.6101,-2.7884,-2.9997,-3.2323,-3.4618,-3.6314,-3.7074,-3.6486,-3.5515,-3.4204,-3.3446,-3.2915,-3.2602,-3.4256,-3.5689,-3.6805,-3.955,-4.195,-4.3932,-4.6509,-4.8029,-4.8586,-5.0298,-5.1106,-5.1125,-5.1414,-5.1529,-5.126,-4.6781,-4.4001,-4.2508,-4.0816,-4.0969,-4.2027,0.0,0.0,0.0,0.0,0.0,0.0,0.0,0.0,0.0,0.0,0.0,0.0,0.0,0.0,0.0,0.0,0.0,0.0,0.0,0.0,0.0,0.0,0.0,0.0,0.0,0.0,0.0,0.0,0.0,0.0,0.0,0.0,0.0,0.0,-3.3554,-3.5053,-3.7276,-3.8193,-3.9022,-4.0003,-3.9445,-3.9225,-3.9732,-4.002,-4.0696,-4.1931,-4.2929,-4.3536,-4.3823,-4.3043,-4.2007,-4.0902,-4.0297,-3.9534,-3.8736,-3.9005,-3.9268,-3.9395,-3.8477,-3.8067,-3.7956,-3.6238,-3.5637,-3.5789,-3.51,-3.4307,-3.3455,-3.2781,-3.2392,-3.2258,-3.2706,-3.2257,-3.1483,0.0,0.0,0.0,0.0,0.0,0.0,-2.5264,-2.5303,-2.5303,-2.5322,-2.7565,-3.014,-3.2689,-3.5425,-3.7772,-3.9506,-3.7221,-3.6095,-3.7027,-3.3757,-3.2569,-3.4327,-3.6033,-3.6942,-3.6949,-4.1835,-4.4836,-4.5759,-4.8279,-4.951,-4.9548,-5.1221,-5.1991,-5.2049,-5.2876,-5.326,-5.3222,-5.2318,-4.9086,-4.4528,-4.4412,-4.3912,-4.3297,0.0,0.0,0.0,0.0,0.0,0.0,0.0,0.0,0.0,0.0,0.0,0.0,0.0,0.0,0.0,0.0,0.0,0.0,0.0,0.0,0.0,0.0,0.0,0.0,0.0,0.0,0.0,0.0,0.0,0.0,0.0,0.0,0.0,-3.3286,-3.659,-3.9056,-3.9157,-4.1068,-4.2371,-4.2388,-4.3064,-4.3487,-4.3487,-4.4215,-4.4976,-4.5703,-4.5771,-4.6109,-4.6802,-4.4505,-4.3201,-4.3185,-4.1392,-4.0141,-3.9439,-4.0276,-4.0231,-3.9424,-3.9424,-3.9403,-3.9239,-3.6724,-3.5961,-3.6432,-3.5804,-3.5534,-3.5444,-3.4771,-3.4113,-3.3724,-3.5026,-3.4666,-3.3529,0.0,0.0,0.0,0.0,0.0,0.0,-2.5284,-2.5303,-2.5476,-2.5966,-2.8704,-3.1668,-3.4413,-3.7218,-3.9556,-4.1203,-3.7561,-3.5645,-3.675,-3.3613,-3.3311,-3.6914,-3.7469,-3.9167,-4.2305,-4.4876,-4.7201,-4.9298,-5.1221,-5.2164,-5.2183,-5.328,-5.4107,-5.4645,-5.4299,-5.4472,-5.4914,-5.3472,-5.1683,-4.9606,-4.7163,-4.6047,-4.5722,0.0,0.0,0.0,0.0,0.0,0.0,0.0,0.0,0.0,0.0,0.0,0.0,0.0,0.0,0.0,0.0,0.0,0.0,0.0,0.0,0.0,0.0,0.0,0.0,0.0,0.0,0.0,0.0,0.0,0.0,0.0,-3.8492,-3.9165,-3.8538,-3.9198,-4.0595,-4.2777,-4.3589,-4.4164,-4.4705,-4.4959,-4.5077,-4.5077,-4.5771,-4.6278,-4.6481,-4.7005,-4.7394,-4.7597,-4.6921,-4.6009,-4.4849,-4.3816,-4.2382,-4.0659,-4.0888,-4.0398,-3.9416,-3.9416,-3.9367,-3.937,-3.8662,-3.7638,-3.6477,-3.6297,-3.5938,-3.5489,-3.5295,-3.5115,-3.4996,-3.537,-3.4951,-3.4203,0.0,0.0,0.0,0.0,0.0,0.0,-2.5192,-2.5253,-2.5437,-2.5831,-2.9006,-3.1991,-3.3989,-3.669,-3.8652,-3.9375,-3.6613,-3.5018,-3.5423,-3.4779,-3.5502,-3.7977,-3.9783,-4.2225,-4.5436,-4.7472,-4.974,-5.2279,-5.326,-5.3914,-5.426,-5.4761,-5.5241,-5.5684,-5.5203,-5.5472,-5.6184,-5.5203,-5.4703,-5.4355,-5.1845,-4.9997,-4.852,-4.643,-4.6101,-4.6392,-4.384,-4.3513,-4.3899,-4.1143,0.0,0.0,0.0,0.0,0.0,0.0,0.0,0.0,0.0,0.0,0.0,0.0,0.0,0.0,0.0,0.0,0.0,0.0,0.0,0.0,0.0,0.0,0.0,0.0,-4.1794,-4.3075,-4.4664,-4.3475,-4.32,-4.5263,-4.5788,-4.6397,-4.7445,-4.7547,-4.7665,-4.7986,-4.8105,-4.8173,-4.8173,-4.8308,-4.8376,-4.8376,-4.7732,-4.6941,-4.5939,-4.4835,-4.3327,-4.1388,-4.1806,-4.1382,-4.0201,-3.9652,-3.9397,-3.9369,-3.939,-3.8611,-3.7255,-3.6985,-3.6492,0.0,0.0,0.0,0.0,0.0,-3.525,-3.4906,0.0,0.0,0.0,0.0,0.0,0.0,-2.5065,-2.5163,-2.5244,-2.5245,-2.8645,-3.1339,-3.202,-3.4589,-3.6099,-3.58,-3.4785,-3.4093,-3.3927,-3.6523,-3.8339,-3.8916,-4.2766,-4.5705,-4.7432,-4.9875,-5.2241,-5.4491,-5.4684,-5.5088,-5.5703,-5.5799,-5.5895,-5.5992,-5.5895,-5.6376,-5.728,-5.7184,-5.7547,-5.8093,-5.6866,-5.4463,-5.1351,-4.9325,-4.93,-5.0002,-4.7197,-4.6308,-4.6052,-4.3247,0.0,0.0,0.0,0.0,0.0,0.0,0.0,0.0,0.0,0.0,0.0,0.0,0.0,0.0,0.0,0.0,0.0,0.0,0.0,0.0,0.0,0.0,0.0,0.0,-4.5378,-4.6217,-5.0522,-4.8415,-4.6666,-4.7208,-4.7885,-4.8798,-5.0101,-5.0219,-5.049,-5.1166,-5.0524,-5.0084,-5.0084,-4.9407,0.0,0.0,0.0,-4.6761,-4.6595,-4.5163,-4.3623,-4.216,-4.2994,-4.263,-4.1122,-3.9968,-3.9379,-3.9406,-3.941,-3.9094,-3.8477,-3.7778,-3.7105,-3.6417,-3.5759,-3.5504,-3.5504,-3.5504,-3.5504,-3.5504,0.0,0.0,0.0,0.0,0.0,0.0,-2.5224,-2.505,-2.4901,-2.4889,-2.7687,-2.968,-2.9691,-3.19,-3.3812,-3.4842,-3.2901,-3.2613,-3.5,-3.694,-3.9854,-4.397,-4.6241,-4.851,-5.0894,-5.2799,-5.401,-5.4491,-5.5838,-5.6242,-5.5722,-5.6415,-5.7107,-5.778,-5.7049,-5.7588,-5.8973,-5.8319,-5.7848,-5.7546,-5.7017,-5.5367,-5.3141,-5.1367,-4.9691,-4.7998,-4.5798,-4.5844,-4.6488,-4.3367,-4.3553,-4.4766,-4.2685,-4.0844,0.0,0.0,0.0,0.0,0.0,0.0,0.0,0.0,0.0,0.0,0.0,0.0,0.0,0.0,0.0,0.0,0.0,0.0,0.0,-4.7352,-4.9343,-5.082,-5.1812,-5.1451,-5.0918,-5.0401,-5.049,-5.0693,-5.098,-5.0997,-5.1065,-5.12,-5.0524,-5.0084,-5.0084,-4.9407,-4.9001,-4.9001,-4.8726,-4.7928,-4.675,-4.6462,-4.554,-4.4087,-4.4074,0.0,-3.9787,-3.9536,-3.9425,-3.9385,-3.9429,-3.9298,-3.9179,-3.8447,-3.7524,-3.6417,-3.5759,-3.5504,-3.5504,-3.5504,-3.5504,-3.5504,0.0,0.0,0.0,0.0,0.0,0.0,-2.5025,-2.4911,-2.4815,-2.4889,-2.6759,-2.8064,-2.7966,-2.9669,-3.1005,-3.1506,-3.1396,-3.2679,-3.5897,-3.8892,-4.2258,-4.6086,-4.8663,-5.1202,-5.376,-5.4645,-5.5722,-5.6992,-5.7434,-5.7434,-5.6992,-5.6992,-5.7223,-5.7627,-5.7184,-5.7934,-5.9473,-5.9069,-5.8976,-5.9063,-5.8578,-5.7578,-5.6083,-5.3758,-5.2098,-5.0766,-4.8548,-4.7737,-4.7333,-4.4929,-4.4223,-4.4272,-4.3751,-4.2581,-4.1623,0.0,0.0,0.0,0.0,0.0,0.0,0.0,0.0,0.0,0.0,0.0,0.0,0.0,0.0,-4.1589,-4.3222,0.0,-4.8067,-5.0894,-5.2445,-5.3473,-5.3884,-5.3719,-5.2959,-5.1349,-5.1217,-5.1352,-5.1725,-5.1758,-5.1928,-5.2334,-5.1302,-5.0659,-5.0659,-4.961,-4.9001,-4.9001,-4.9001,-4.8646,-4.7902,-4.753,-4.6736,-4.561,-4.5316,-4.4009,-4.1822,-4.179,-4.1388,-4.0639,-3.9783,-3.9406,-3.9339,-3.8327,-3.7524,-3.6851,-3.5878,-3.5504,-3.5504,-3.5504,-3.5504,-3.5504,0.0,0.0,0.0,0.0,0.0,0.0,-2.4798,-2.4724,-2.4733,-2.4889,-2.5901,-2.6549,-2.6383,-2.7524,-2.8326,-2.8435,-3.0428,-3.3276,-3.6969,-4.0758,-4.4278,-4.7509,-5.0548,-5.3356,-5.5895,-5.5953,-5.703,-5.9281,-5.8781,-5.8454,-5.83,-5.7742,-5.7492,-5.7492,-5.7492,-5.8319,-5.9762,-5.9653,-6.006,-6.0724,-5.9985,-5.9269,-5.8446,-5.5868,-5.4675,-5.4087,-5.1665,-4.9648,-4.7868,-4.625,-4.4395,-4.3023,-4.3886,-4.3639,-4.3174,-4.3971,-4.3888,0.0,0.0,0.0,0.0,0.0,0.0,0.0,0.0,-4.2286,-4.269,-4.3332,-4.4232,-4.5516,-4.748,-4.9315,-5.1426,-5.4179,-5.4807,-5.5161,-5.5659,-5.5042,-5.3794,-5.1637,-5.1572,-5.1894,-5.2486,-5.2536,-5.2739,-5.323,-5.1995,-5.115,-5.0997,-4.9729,-4.9001,-4.9001,-4.9001,-4.8934,-4.8798,-4.8206,-4.7497,-4.664,-4.6454,-4.5854,-4.4918,-4.4876,-4.3643,-4.1398,-4.0001,-3.9424,-3.932,-3.7958,-3.7404,-3.7285,-3.6013,-3.5504,-3.5504,-3.5504,-3.5504,-3.5504,0.0,0.0,0.0,0.0,0.0,0.0,0.0,0.0,-2.4346,-2.4542,-2.5156,-2.53,-2.4576,-2.5274,-2.6562,-2.8407,-3.0494,-3.3776,-3.8681,-4.0854,-4.4451,-5.0029,-5.2068,-5.4241,-5.6799,-5.6838,-5.7357,-5.8434,-5.9069,-5.9011,-5.8319,-5.8934,-5.9223,-5.9223,-5.9223,-5.9742,-6.0623,-6.0204,-6.0335,-6.0667,-5.9346,-5.854,-5.8015,-5.6914,-5.5647,-5.4087,-5.1665,-4.9416,-4.7323,-4.5458,-4.4826,-4.4832,-4.4997,-4.4476,-4.4076,-4.5569,-4.4407,-4.2677,-4.2902,-4.1662,-4.0728,-4.2578,-4.2828,-4.3157,0.0,-4.6471,-4.7535,-4.7609,-4.8875,-5.0068,-5.0343,-5.2289,-5.4197,-5.528,-5.6098,-5.64,-5.5801,-5.5042,-5.3983,-5.2397,-5.2807,-5.3281,-5.3365,-5.3365,-5.3112,-5.2486,-5.1674,-5.093,-5.0253,-4.9458,-4.9001,-4.9001,-4.9001,-4.8697,-4.8054,-4.7953,-4.7521,-4.6785,-4.741,-4.7518,-4.7116,-4.7151,-4.443,-3.9668,-3.9496,-3.9424,-3.932,-3.7958,-3.7404,-3.7285,-3.6013,-3.5504,-3.5504,-3.5504,-3.5504,-3.5504,0.0,0.0,0.0,0.0,0.0,0.0,0.0,0.0,-2.4271,-2.4467,-2.4613,-2.4559,-2.4226,-2.5133,-2.6564,-2.8544,-3.0075,-3.3122,-3.82,-4.1066,-4.4778,-4.9721,-5.251,-5.4664,-5.6203,-5.6742,-5.7434,-5.83,-5.8646,-5.8377,-5.755,-5.8415,-5.88,-5.8819,-5.93,-5.9973,-6.0777,-6.0578,-6.0319,-5.9937,-5.9346,-5.8665,-5.7759,-5.5526,-5.3248,-5.1169,-5.1118,-4.8989,0.0,-4.4712,-4.4387,-4.4451,-4.4258,-4.4569,-4.5153,-4.5817,-4.5208,-4.4078,-4.3082,-4.2366,-4.2313,-4.398,-4.5194,-4.6504,-4.8326,-4.9279,-4.9903,-5.0362,-5.1389,-5.2491,-5.3408,-5.4803,-5.6069,-5.6859,-5.6964,-5.6616,-5.5819,-5.4717,-5.338,-5.1807,-5.1961,-5.2334,-5.2756,-5.2418,-5.2215,-5.23,-5.1217,-5.0422,-5.0101,-4.9407,-4.9001,-4.9001,-4.9001,-4.8849,-4.8545,-4.8545,-4.8392,-4.8088,-4.8392,-4.8291,-4.774,-4.7212,-4.4188,-3.9468,-4.0504,-4.0929,-4.0752,-3.8949,-3.8152,-3.7964,-3.618,-3.5504,-3.5504,-3.5504,-3.5504,-3.5504,0.0,0.0,0.0,0.0,0.0,0.0,0.0,0.0,0.0,0.0,-2.4321,-2.4228,-2.4266,-2.5367,-2.6617,-2.7979,-2.9506,-3.2256,-3.6661,-4.0142,-4.3932,-4.8163,-5.1395,-5.3703,-5.4972,-5.5857,-5.6838,-5.7934,-5.7934,-5.7742,-5.7357,-5.7992,-5.8415,-5.8665,-5.9242,-5.9907,-6.0597,-6.0571,-6.0102,-5.936,-5.8779,-5.6755,-5.3979,-5.375,-5.0949,-4.7383,-4.9264,-4.7439,-4.4026,-4.3586,-4.3352,-4.3259,-4.3386,-4.4181,-4.51,-4.5224,-4.4995,-4.4537,-4.3519,-4.3502,-4.4149,-4.5804,-4.7608,-4.9426,-5.1077,-5.1811,-5.2344,-5.3151,-5.3794,-5.4564,-5.5721,-5.6418,-5.6987,-5.7574,-5.7071,-5.6367,-5.5762,-5.4025,-5.2375,-5.1044,-5.0557,-5.0591,-5.1319,-5.1285,-5.1352,-5.1674,-5.0896,-5.0219,-4.9813,-4.9475,-4.9204,-4.9018,-4.9001,-4.9001,-4.9001,-4.9001,-4.9001,-4.9001,-4.9001,-4.8731,-4.8162,-4.7558,-4.5359,-4.2087,-4.2475,-4.2701,-4.2541,-4.0039,-3.903,-3.8825,-3.6651,-3.5782,-3.5782,-3.5554,-3.5504,-3.5504,0.0,0.0,0.0,0.0,0.0,0.0,0.0,0.0,0.0,0.0,0.0,-2.4266,-2.4461,-2.5565,-2.6314,-2.6371,-2.8847,-3.1506,-3.4141,-3.7507,-4.1296,-4.5528,-4.8182,-5.0721,-5.3222,-5.4126,-5.5395,-5.703,-5.703,-5.7453,-5.8261,-5.83,-5.8723,-5.9454,-5.9492,-5.9728,-6.0122,-5.9985,-5.9702,-5.9219,-5.7291,-5.1445,-4.4718,-5.1991,-4.974,-4.3037,-4.563,-4.4318,-4.1396,-4.1882,-4.1718,-4.1497,-4.2781,-4.3232,-4.3347,-4.376,-4.3262,-4.2942,-4.45,-4.5017,-4.5722,-4.8159,-4.9769,-5.1151,-5.2766,-5.4326,-5.5666,-5.6492,-5.6675,-5.6712,-5.6767,-5.6785,-5.6822,-5.684,-5.6199,-5.5706,-5.5706,-5.3124,-5.0963,-5.0202,-4.8883,-4.8308,-4.9035,-5.0388,-5.093,-5.0202,-5.0794,-5.0557,-4.912,-4.9678,-4.9729,-4.9018,-4.9001,-4.9001,-4.9001,-4.9001,-4.9001,-4.9001,-4.9001,-4.8984,-4.8984,-4.8946,-4.8882,-4.8543,-4.5505,-4.435,-4.43,-4.1128,-3.9886,-3.962,-3.7435,-3.6554,-3.6508,-3.5782,-3.5504,-3.5504,0.0,0.0,0.0,0.0,0.0,0.0,0.0,0.0,0.0,0.0,0.0,0.0,0.0,0.0,0.0,0.0,-2.7868,-3.0044,-3.3141,-3.6007,-3.895,-4.2066,-4.5759,-4.8144,-4.9009,-5.0952,-5.226,-5.2818,-5.2818,-5.2972,-5.328,-5.4124,-5.4661,-5.4987,-5.6395,-5.7118,-5.7251,-5.7162,-5.7473,-5.7654,-5.3741,-4.9307,-4.5513,-4.9103,-4.596,-3.9863,0.0,-4.168,-4.1125,-4.0228,-4.0515,-4.1125,-4.0272,-4.1264,-4.2813,-4.3216,-4.3731,-4.4357,-4.5224,-4.6896,-4.9043,-5.1835,-5.3681,-5.5207,-5.6822,-5.7611,-5.7611,-5.6271,-5.5574,-5.4876,-5.3812,-5.4051,-5.4601,-5.5115,-5.5065,-5.4889,-5.4983,-5.3211,-5.1116,-4.89,-4.8646,-4.8303,-4.7494,-4.8405,-4.9323,-5.0033,-5.0321,-5.0253,-4.9746,-5.0439,-5.049,-4.9746,-4.9729,-4.9492,-4.9001,-4.9001,-4.9001,-4.9001,-4.9001,-4.9001,-4.9001,-4.9001,-4.8968,-4.8826,-4.5784,-4.4527,-4.4404,-4.1822,-4.0753,-4.0547,-3.8291,-3.7397,-3.7397,-3.7115,-3.7011,-3.689,0.0,0.0,0.0,0.0,0.0,0.0,0.0,0.0,0.0,0.0,0.0,0.0,0.0,0.0,0.0,0.0,0.0,-2.8602,-3.1352,-3.366,-3.6045,-3.8604,-4.1931,-4.4008,-4.4605,-4.6509,-4.7798,-4.8413,-4.8413,-4.8567,-4.8894,-5.0019,-5.065,-5.0923,-5.2577,-5.3524,-5.3809,-5.3933,-5.4019,-5.3774,-5.0034,-4.6658,-4.4104,-4.6104,-4.3669,0.0,-3.8487,-3.8937,-3.9736,-3.9216,-3.9924,-4.0769,-3.9426,-4.0207,-4.1779,-4.2507,-4.3907,-4.5445,-4.6523,-4.9365,-5.252,-5.4724,-5.6473,-5.7941,-5.8969,-5.8767,-5.7758,-5.5611,-5.4289,-5.3041,-5.1426,-5.1316,-5.1811,-5.2931,-5.2906,-5.3087,-5.3971,-5.2362,-5.0526,-4.924,-4.8779,-4.8455,-4.8295,-4.8247,-4.8643,-4.9598,-5.0178,-5.0379,-5.0084,-5.0557,-5.0591,-5.0101,-5.0084,-4.9864,-4.9407,-4.939,-4.9255,-4.9001,-4.9001,-4.8968,-4.8978,-4.8982,-4.8702,-4.809,-4.5983,-4.4906,-4.4411,-4.2451,-4.1599,-4.1394,-3.9096,-3.8189,-3.8133,-3.7921,-3.7822,-3.7648,0.0,0.0,0.0,0.0,0.0,0.0,0.0,0.0,0.0,0.0,0.0,0.0,0.0,0.0,0.0,0.0,0.0,0.0,-2.8871,-3.0641,-3.2718,-3.5128,-3.693,-3.8623,-4.02,-4.1143,-4.2374,-4.397,-4.4008,-4.447,-4.5278,-4.6165,-4.6857,-4.7373,-4.819,-4.9029,-4.9892,-5.0291,-4.9557,-4.7994,-4.6341,-4.3524,-4.0565,-4.3108,-4.2691,-4.0299,-3.6782,-3.6229,-3.7416,-3.8719,-3.9758,-4.0441,-4.0158,-4.0157,-4.0516,-4.1793,-4.3901,-4.6325,-4.8528,-5.2354,-5.5923,-5.6822,-5.818,-5.9263,-5.9226,-5.7941,-5.6253,-5.4608,-5.2899,-5.1187,-4.9593,-4.8712,-4.8746,-5.0453,-5.0185,-5.0599,-5.3015,-5.0896,-4.9573,-5.0997,-4.9305,-4.8835,-5.0909,-4.9852,-4.9014,-4.8834,-5.0287,-5.0832,-5.0198,-5.0185,-5.0202,-5.0202,-5.0202,-5.0185,-5.0152,-5.0101,-4.9729,-4.9001,-4.9001,-4.8978,-4.8991,-4.8855,-4.8022,-4.668,-4.6157,-4.5405,-4.4401,-4.2929,-4.2286,-4.203,-3.981,-3.8962,-3.8854,-3.8206,-3.7937,-3.7937,0.0,0.0,0.0,0.0,0.0,0.0,0.0,0.0,0.0,0.0,0.0,0.0,0.0,0.0,0.0,0.0,0.0,0.0,-2.7217,-2.9429,-3.1025,-3.1667,-3.4564,-3.6353,-3.6776,-3.8219,-3.9181,-3.9604,-4.0258,-4.0598,-4.0633,-4.1808,-4.2319,-4.2307,-4.3461,-4.4429,-4.5192,-4.4709,-4.4939,-4.5461,-4.3655,-4.1857,-4.033,-4.0606,-3.9958,-3.8594,-3.6306,-3.6227,-3.7209,-3.7334,-3.8594,-4.0082,-3.9819,-4.0957,-4.2699,-4.4256,-4.6686,-4.9514,-5.2456,-5.5286,-5.7868,-5.9869,-6.0236,-5.9942,-5.9355,-5.7501,-5.5165,-5.2619,-4.962,-4.704,-4.5656,-4.6006,-4.726,-4.9536,-5.0775,-5.2147,-5.3971,-5.3151,-5.1796,-5.0532,-5.09,-5.0754,-4.951,-5.0626,-5.0696,-4.8903,-4.9778,-5.0572,-5.0896,-5.1437,-5.1742,-5.1742,-5.1742,-5.1471,-5.093,-5.0371,-4.9729,-4.9001,-4.9001,-4.8984,-4.8927,-4.67,-4.5505,-4.5136,-4.5037,-4.4401,-4.3449,-4.3071,-4.2342,-4.139,-4.0272,-3.9782,-3.9782,-3.9558,-3.9506,-3.9506,0.0,0.0,0.0,0.0,0.0,0.0,0.0,0.0,0.0,0.0,0.0,0.0,0.0,0.0,0.0,0.0,0.0,0.0,0.0,-2.7948,-2.8909,-2.9294,-3.1487,-3.2872,-3.3244,-3.4564,-3.5411,-3.5757,-3.6622,-3.6983,-3.6875,-3.8327,-3.885,-3.8658,-3.9713,-4.0504,-4.0997,-4.0173,-4.056,0.0,0.0,-3.9222,-3.8808,-3.8047,-3.7614,-3.7278,-3.5971,-3.6096,-3.6897,-3.6892,-3.8324,-4.0292,-4.1248,-4.2706,-4.4522,-4.6698,-4.9111,-5.1733,-5.4851,-5.735,-5.9465,-6.1172,-6.0731,-5.9575,-5.8419,-5.5815,-5.2797,-4.9782,-4.6953,-4.4628,-4.3211,-4.343,-4.4709,-4.7517,-4.8522,-4.998,-5.3086,-5.2622,-5.1879,-5.1555,-5.2063,-5.2056,-5.135,-5.192,-5.1896,-5.0934,-5.1004,-5.1089,-5.12,-5.1606,-5.1978,-5.2283,-5.23,-5.1961,-5.1217,-5.0794,-5.005,-4.9001,-4.9001,-4.8748,-4.8284,-4.7072,-4.5824,-4.4606,-4.4603,-4.4052,-4.3196,-4.2864,-4.2119,-4.1136,-4.0375,-4.007,-4.007,-4.007,-4.007,-4.007,0.0,0.0,0.0,0.0,0.0,0.0,0.0,0.0,0.0,0.0,0.0,0.0,0.0,0.0,0.0,0.0,0.0,0.0,0.0,0.0,-2.6986,-2.7852,-2.8659,-2.9506,-3.0379,-3.1116,-3.1815,-3.2506,-3.3358,-3.3766,-3.3758,-3.5431,-3.6086,-3.5837,-3.6634,-3.7197,-3.7466,-3.6649,-3.6779,-3.7429,-3.6482,-3.6341,-3.6625,0.0,-3.5854,-3.6285,-3.571,-3.586,-3.6481,-3.719,-3.884,-4.0998,-4.3225,-4.4846,-4.6487,-4.9266,-5.1445,-5.3637,-5.6507,-5.8877,-6.0731,-6.1429,-6.0309,-5.8602,-5.6948,-5.3539,-4.991,-4.6973,-4.4885,-4.3189,-4.1913,-4.1477,-4.2408,-4.5681,-4.5747,-4.7025,-5.1777,-5.1202,-5.1097,-5.3166,-5.2926,-5.3018,-5.4125,-5.3223,-5.2762,-5.3186,-5.2727,-5.2145,-5.1369,-5.1369,-5.1708,-5.2435,-5.2469,-5.2063,-5.1217,-5.1217,-5.0473,-4.9001,-4.9001,-4.8504,-4.7607,-4.8337,-4.7284,-4.4739,-4.4636,-4.4131,-4.3352,-4.2557,-4.1813,-4.1136,-4.0375,-4.007,-4.007,-4.007,-4.007,-4.007,0.0,0.0,0.0,0.0,0.0,0.0,0.0,0.0,0.0,0.0,-2.5303,-2.5303,0.0,0.0,0.0,0.0,0.0,0.0,0.0,0.0,0.0,-2.7852,-2.8659,-2.9506,-3.0379,-3.033,-3.0362,-3.0496,-3.12,-3.1429,-3.1259,-3.2891,-3.3508,-3.3272,-3.4092,-3.4847,-3.545,-3.4641,-3.477,-3.5469,-3.5118,-3.4865,-3.4764,-3.5296,-3.5571,0.0,-3.5532,-3.5569,-3.6023,-3.832,-4.0517,-4.2451,-4.3314,-4.6452,-5.0184,-5.2032,-5.4222,-5.6581,-5.9079,-6.0566,-6.1429,-6.1557,-5.9887,-5.7684,-5.5673,-5.1603,-4.7844,-4.6524,-4.363,-4.1494,-4.1933,-4.2268,-4.368,-4.7279,-4.7939,-4.9404,-5.3509,-5.2805,-5.2292,-5.3362,-5.3908,-5.3832,-5.2802,-5.3604,-5.3511,-5.1711,-5.2632,-5.294,-5.2147,-5.2114,-5.2469,-5.3264,-5.3298,-5.2621,-5.1234,-5.1217,-5.0473,-4.9001,-4.9001,-4.8595,-4.78,-4.7403,-4.659,-4.5483,-4.4874,-4.4108,-4.3335,-4.2179,-4.1504,-4.1136,-4.0375,-4.007,-4.007,-4.007,-4.007,-4.007,0.0,0.0,0.0,0.0,0.0,0.0,0.0,-2.5687,-2.5986,-2.5986,-2.637,-2.6313,-2.5399,-2.5303,-2.5303,0.0,0.0,0.0,0.0,0.0,0.0,-2.7236,-2.8429,-2.9294,-2.9717,-2.9907,-2.9999,-2.9999,0.0,-3.1563,-3.1464,-3.3135,-3.3818,-3.372,-3.4111,-3.4407,-3.4567,-3.416,-3.4234,-3.4567,-3.4333,-3.4362,-3.4602,-3.504,-3.5316,0.0,-3.5504,-3.5496,-3.57,-3.6971,-3.9489,-4.2458,-4.4667,-4.7884,-5.1206,-5.3243,-5.5244,-5.7336,-5.974,-6.0676,-6.108,-6.1502,-5.8841,-5.5576,-5.3456,-4.9023,-4.4974,-4.3874,-4.1575,-3.9965,-4.066,-4.1555,-4.2959,-4.5404,-4.5603,-4.6991,-5.1441,-5.0726,-5.055,-5.2604,-5.3577,-5.3727,-5.3026,-5.3594,-5.3574,-5.2452,-5.3078,-5.3162,-5.235,-5.2706,-5.2909,-5.2892,-5.2892,-5.2147,-5.0642,-5.0642,-5.0084,-4.9001,-4.9001,-4.8612,-4.7885,-4.7123,-4.6473,-4.5788,-4.5003,-4.4361,-4.3936,-4.2926,-4.2233,-4.1728,-4.1373,-4.1221,-4.1221,-4.1221,-4.1221,-4.1221,0.0,0.0,0.0,0.0,0.0,0.0,0.0,-2.6043,-2.6601,-2.6601,-2.7351,-2.7313,-2.5755,-2.5572,-2.5495,0.0,0.0,0.0,0.0,0.0,0.0,0.0,-2.839,-2.9179,-2.9371,0.0,0.0,-3.0186,-3.1242,0.0,0.0,0.0,0.0,0.0,-3.4411,-3.4282,-3.3881,-3.4048,-3.4035,0.0,0.0,-3.4267,-3.481,0.0,0.0,0.0,0.0,-3.5492,-3.5505,-3.5495,-3.7589,-4.0868,-4.4558,-4.7813,-5.071,-5.2968,-5.5005,-5.7042,-5.9281,-6.0144,-6.0474,-6.075,-5.7317,-5.3332,-5.1268,-4.66,-4.2429,-4.1587,-4.0062,-3.909,-3.9743,-4.0708,-4.1946,-4.3508,-4.3175,-4.436,-4.893,-4.8622,-4.9015,-5.1962,-5.3139,-5.3783,-5.3946,-5.3832,-5.3717,-5.3717,-5.3618,-5.323,-5.2587,-5.2993,-5.2959,-5.2317,-5.2147,-5.142,-5.0101,-5.0084,-4.9729,-4.9001,-4.9001,-4.8545,-4.7682,-4.7393,-4.6667,-4.5676,-4.494,-4.4575,-4.4555,-4.3745,-4.3064,-4.2523,-4.2354,-4.2286,-4.2286,-4.2286,-4.2286,-4.2286,0.0,0.0,0.0,0.0,0.0,0.0,0.0,-2.6043,-2.6601,-2.6601,-2.7351,-2.7544,-2.6582,-2.6486,-2.6159,0.0,0.0,0.0,0.0,0.0,0.0,0.0,0.0,0.0,0.0,0.0,0.0,-3.0808,-3.0538,0.0,0.0,0.0,0.0,0.0,0.0,-3.3464,-3.2794,-3.3529,0.0,0.0,0.0,0.0,0.0,0.0,0.0,0.0,0.0,-3.5512,-3.5513,-3.551,-3.5741,-3.6656,-4.0178,-4.4623,-4.8875,-5.0618,-5.3298,-5.6069,-5.7758,-5.9281,-6.007,-5.8676,-5.5244,-5.1719,-4.9894,-4.5096,-4.1165,-4.1642,-4.0419,-3.9557,-4.0499,-4.0772,-4.1705,-4.417,-4.4048,-4.4832,-4.8307,-4.9286,-5.0362,-5.2174,-5.3662,-5.4757,-5.5437,-5.4878,-5.4482,-5.4482,-5.3881,-5.3467,-5.3399,-5.2773,-5.2384,-5.23,-5.1657,-5.0913,-5.0101,-5.0084,-4.9729,-4.9001,-4.9001,-4.8257,-4.6938,-4.8192,-4.7293,-4.4705,-4.4653,-4.4586,-4.4558,-4.3724,-4.3369,-4.325,-4.2557,-4.2286,-4.2286,-4.2286,-4.2286,-4.2286,0.0,0.0,0.0,0.0,0.0,0.0,-2.5077,-2.5953,-2.6601,-2.6601,-2.7351,-2.7563,-2.6697,-2.6601,-2.6255,-2.538,0.0,0.0,0.0,0.0,0.0,0.0,0.0,0.0,0.0,0.0,-3.0739,-3.0884,-3.1576,0.0,0.0,0.0,0.0,0.0,0.0,-3.3623,-3.3348,-3.3857,0.0,0.0,0.0,0.0,0.0,0.0,0.0,0.0,0.0,0.0,-3.5498,-3.5511,-3.5503,-3.5799,-3.7504,-4.0002,-4.3062,-4.694,-5.0397,-5.3496,-5.5875,-5.7721,-5.8694,-5.7556,-5.4409,-5.0916,-4.8434,-4.3945,-4.0324,-4.031,-3.9354,-3.8741,-3.9467,-4.0276,-4.1248,-4.2607,-4.2014,-4.2594,-4.5952,-4.6223,-4.7474,-5.1136,-5.2485,-5.3791,-5.5525,-5.5419,-5.5262,-5.5262,-5.4171,-5.3464,-5.3518,-5.2714,-5.1894,-5.0997,-5.0693,-5.0185,-4.9441,-4.9441,-4.9289,-4.9001,-4.9001,-4.8697,-4.8105,-4.7808,-4.7513,-4.7123,-4.5344,-4.4906,-4.5388,-4.4468,-4.4113,-4.4079,-4.3792,-4.3656,-4.3656,-4.3656,-4.3656,-4.3656,0.0,0.0,0.0,0.0,0.0,-2.4756,-2.493,-2.5834,-2.6499,-2.6499,-2.733,-2.7563,-2.6697,-2.6601,-2.6255,-2.538,-2.587,0.0,0.0,0.0,0.0,0.0,0.0,0.0,0.0,0.0,-3.1309,-3.1388,-3.2472,-3.3022,0.0,0.0,-3.3807,-3.3807,0.0,0.0,0.0,0.0,0.0,0.0,0.0,0.0,0.0,0.0,0.0,0.0,0.0,0.0,0.0,0.0,0.0,-3.5575,-3.5935,-3.6709,-3.848,-4.3548,-4.7103,-5.0065,-5.3123,-5.5055,-5.6059,-5.5362,-5.2508,-4.9172,-4.6563,-4.2469,-3.9185,-3.8962,-3.8219,-3.7778,-3.8307,-3.9406,-4.0344,-4.0784,-4.0589,-4.1317,-4.3844,-4.4281,-4.571,-4.9475,-5.0761,-5.2392,-5.5079,-5.5776,-5.5948,-5.5706,-5.4504,-5.3718,-5.345,-5.2727,-5.1606,-5.0118,-5.0096,-4.9739,-4.9018,-4.9001,-4.9001,-4.9001,-4.9001,-4.8866,-4.8517,-4.777,-4.7791,-4.8269,-4.6591,-4.6085,-4.6377,-4.5371,-4.5043,-4.5213,-4.4993,-4.5043,-4.5229,-4.5229,-4.5229,-4.5229,0.0,0.0,0.0,0.0,0.0,0.0,-2.4775,-2.5658,-2.6308,-2.6308,-2.7244,-2.7563,-2.6697,-2.6601,-2.6255,-2.538,-2.5303,0.0,0.0,0.0,0.0,0.0,0.0,0.0,0.0,0.0,-3.1691,-3.2496,-3.2818,-3.3417,-3.4176,-3.391,-3.3807,-3.3807,0.0,0.0,0.0,0.0,0.0,0.0,0.0,0.0,-3.5493,0.0,0.0,0.0,0.0,0.0,0.0,0.0,0.0,0.0,0.0,-3.5512,-3.6389,-4.0764,-4.3529,-4.5885,-4.9152,-5.1043,-5.1952,-5.1473,-4.8887,-4.5973,-4.4137,-4.0517,-3.7618,-3.7943,-3.7315,-3.6876,-3.7411,-3.8232,-3.889,-3.9096,-4.0514,-4.1841,-4.2515,-4.4551,-4.6356,-4.7331,-4.8722,-5.0878,-5.4092,-5.5904,-5.6563,-5.5762,-5.4924,-5.4164,-5.3458,-5.2643,-5.1577,-5.0147,-5.0017,-4.9681,-4.9001,-4.9001,-4.9001,-4.9001,-4.9001,-4.8467,-4.7545,-4.85,-4.8189,-4.6887,-4.8337,-4.8413,-4.7403,-4.6201,-4.6126,-4.6701,-4.5974,-4.6126,-4.6769,-4.6769,-4.6769,-4.6769,0.0,0.0,0.0,0.0,0.0,0.0,0.0,-2.4982,-2.5267,-2.5267,-2.5653,-2.5807,-2.5539,-2.5617,-2.5591,-2.5322,-2.5303,0.0,0.0,0.0,0.0,0.0,0.0,0.0,0.0,0.0,-3.2436,-3.2496,-3.3806,-3.4471,-3.4529,-3.4218,-3.4189,-3.4416,-3.4189,-3.4111,0.0,0.0,0.0,0.0,0.0,-3.5488,-3.5493,0.0,0.0,0.0,0.0,0.0,0.0,0.0,0.0,0.0,0.0,0.0,0.0,-3.7802,-4.03,-4.293,-4.5227,-4.756,-4.9116,-4.8196,-4.7091,-4.5514,-4.2639,-4.031,-3.8431,-3.7339,-3.6892,-3.6748,-3.6919,-3.7978,-3.9203,-4.0419,-4.114,-4.2054,-4.3379,-4.493,-4.6882,-4.9423,-5.3058,-5.5734,-5.6785,-5.6897,-5.7015,-5.7247,-5.5562,-5.4401,-5.4248,-5.3372,-5.225,-5.0829,-5.0731,-5.0363,-4.9602,-4.9677,-4.9406,-4.8833,-4.8957,-4.8849,-4.8517,-4.8866,-4.8748,-4.8274,-4.7725,-4.7302,-4.6912,-4.55,-4.5382,-4.6024,-4.5788,-4.616,-4.6786,-4.6786,-4.6786,-4.6786,0.0,0.0,0.0,0.0,0.0,0.0,0.0,-2.4561,-2.4685,-2.4685,-2.4858,-2.501,-2.501,-2.5173,-2.5303,-2.5303,-2.5303,0.0,0.0,0.0,0.0,0.0,0.0,0.0,0.0,-3.1737,-3.2513,-3.2656,-3.3974,-3.464,-3.4694,-3.4357,-3.4311,-3.4508,-3.4292,-3.4258,0.0,0.0,0.0,0.0,-3.4295,-3.4718,-3.5045,0.0,0.0,0.0,0.0,0.0,0.0,0.0,0.0,0.0,0.0,0.0,0.0,0.0,-3.7792,-3.9927,-4.187,-4.3811,-4.5181,-4.458,-4.414,-4.318,-4.0578,-3.9112,-3.7911,-3.6526,-3.6257,-3.6257,-3.6257,-3.7482,-3.88,-3.9738,-4.0939,-4.209,-4.2973,-4.4709,-4.7003,-4.9958,-5.3794,-5.6308,-5.6602,-5.7036,-5.7389,-5.7529,-5.5903,-5.4792,-5.4524,-5.3671,-5.2795,-5.191,-5.1325,-5.0667,-4.9902,-4.996,-4.9423,-4.8418,-4.9182,-4.9368,-4.8982,-4.8982,-4.8683,-4.8122,-4.7192,-4.6786,0.0,-4.5788,-4.5855,-4.6549,-4.6549,-4.6989,-4.7631,-4.7631,-4.78,-4.8037,0.0,0.0,0.0,0.0,0.0,0.0,0.0,-2.4357,-2.4478,-2.4478,-2.4762,-2.4974,-2.4986,-2.5163,-2.5274,-2.5303,0.0,0.0,0.0,0.0,0.0,0.0,0.0,0.0,0.0,-3.1314,-3.216,-3.2891,-3.3593,-3.4219,-3.4734,-3.4401,-3.4246,-3.4292,-3.4246,-3.4085,0.0,0.0,0.0,0.0,-3.3064,-3.3564,0.0,0.0,0.0,0.0,0.0,0.0,0.0,0.0,0.0,0.0,0.0,0.0,0.0,0.0,0.0,0.0,0.0,-4.0041,-4.058,-4.0853,-4.0403,-3.9528,-3.8197,-3.7276,0.0,-3.5738,-3.5532,-3.5565,-3.5738,-3.6988,-3.7967,-3.7828,-4.0173,-4.1938,-4.1745,-4.4266,-4.704,-4.9481,-5.1903,-5.3647,-5.4326,-5.6473,-5.7519,-5.6767,-5.5959,-5.5188,-5.4436,-5.3647,-5.3188,-5.3133,-5.1682,-5.0617,-5.0054,-5.0004,-4.9239,-4.7889,-4.953,-4.9756,-4.8778,-4.8846,-4.8048,-4.6752,-4.6684,-4.6684,-4.6718,-4.6667,-4.7073,-4.7767,-4.7817,-4.8291,-4.8934,-4.8984,-4.9424,-5.0016,0.0,0.0,0.0,0.0,0.0,0.0,0.0,0.0,0.0,0.0,-2.4459,-2.4682,-2.4828,-2.4981,-2.5122,0.0,0.0,0.0,0.0,0.0,0.0,0.0,0.0,0.0,0.0,-3.1872,-3.2718,-3.2891,-3.4389,-3.5158,-3.5304,-3.4813,-3.4794,-3.5187,-3.4755,-3.4414,0.0,0.0,0.0,0.0,-3.4622,-3.5007,0.0,0.0,0.0,0.0,-3.5493,-3.6238,0.0,0.0,0.0,0.0,0.0,0.0,0.0,0.0,-3.5641,-3.5897,-3.64,0.0,-3.8586,-3.8403,-3.8416,-3.822,0.0,-3.6853,-3.6661,-3.6469,-3.593,-3.6103,-3.8046,-3.818,-3.8608,-4.0502,-4.1483,-4.2222,-4.2829,-4.6209,-4.9572,-5.205,-5.3922,-5.4858,-5.4436,-5.5464,-5.6088,-5.5886,-5.5133,-5.4601,-5.4418,-5.3647,-5.2931,-5.2307,-5.1339,-5.1049,-5.1522,-5.094,-5.0163,-4.9204,-4.9205,-4.828,-4.6717,-4.7128,-4.6929,-4.6178,-4.5445,-4.5452,-4.5906,-4.5331,-4.5534,-4.6278,-4.6836,-4.7513,-4.824,-4.8798,-4.912,-4.9255,0.0,0.0,0.0,0.0,0.0,0.0,0.0,0.0,0.0,0.0,0.0,0.0,0.0,0.0,0.0,0.0,0.0,0.0,0.0,0.0,0.0,0.0,0.0,-2.9929,-3.0379,-3.1679,-3.2526,-3.2891,-3.4257,-3.5062,-3.5304,-3.5016,-3.5053,-3.5285,-3.4718,-3.4152,0.0,0.0,0.0,-3.316,-3.4391,0.0,0.0,0.0,0.0,0.0,-3.5493,-3.6238,0.0,-3.7868,-3.7959,-3.7844,0.0,0.0,0.0,0.0,-3.5526,-3.5526,-3.5545,-3.6199,-3.6901,-3.7086,-3.6995,-3.6834,-3.6719,-3.6411,-3.6257,-3.6622,-3.6065,-3.6161,-3.8315,-3.7988,-3.8238,-4.0796,-4.1474,-4.2516,-4.4993,-4.7416,-5.0013,-5.2876,-5.3977,-5.462,-5.4913,-5.5335,-5.5445,-5.5078,-5.4638,-5.4234,-5.3867,-5.3096,-5.2454,-5.1995,-5.1224,-5.0839,-5.0894,-5.0514,-4.9742,-4.8622,-4.9139,-4.7924,-4.5386,-4.5648,-4.5626,-4.5318,-4.4828,-4.4794,-4.5179,-4.5128,-4.5331,-4.5821,-4.6887,-4.7564,-4.8003,-4.8731,-4.9221,-4.9509,0.0,0.0,0.0,0.0,0.0,0.0,0.0,0.0,0.0,0.0,0.0,0.0,0.0,0.0,0.0,0.0,0.0,0.0,0.0,0.0,0.0,0.0,0.0,-3.0456,-3.0602,-3.1314,-3.216,-3.3103,-3.3833,-3.4578,-3.5346,-3.5179,-3.5105,-3.5066,-3.4462,-3.3795,0.0,-3.3103,-3.2699,-3.2218,-3.3776,0.0,0.0,0.0,0.0,0.0,0.0,0.0,0.0,-3.7147,-3.7012,-3.7007,-3.8272,0.0,0.0,0.0,0.0,0.0,-3.5584,-3.5661,-3.5839,-3.6392,-3.6103,-3.5872,-3.6546,-3.6276,-3.6122,-3.693,-3.6449,-3.643,-3.8257,-3.7873,-3.8065,-4.0489,-4.1514,-4.3377,-4.7429,-4.8366,-4.9774,-5.2674,-5.3133,-5.3702,-5.4913,-5.5152,-5.495,-5.4271,-5.4216,-5.3867,-5.3078,-5.2362,-5.1885,-5.1628,-5.0967,-5.0233,-4.9389,-4.9517,-4.897,-4.7729,-4.9094,-4.8054,-4.4987,-4.4921,-4.4749,-4.4618,-4.4686,0.0,-4.4621,-4.5263,-4.5534,-4.5686,-4.7175,-4.775,-4.7851,-4.8697,-4.9407,-4.9915,0.0,0.0,0.0,0.0,0.0,0.0,0.0,0.0,0.0,0.0,0.0,0.0,0.0,0.0,0.0,0.0,0.0,0.0,0.0,0.0,0.0,-2.8852,-2.9871,-3.0756,-3.1487,-3.1641,-3.2468,-3.3987,-3.4122,-3.4974,-3.643,-3.5531,-3.5105,-3.5066,-3.4462,-3.4122,-3.3987,-3.3987,-3.393,-3.3891,-3.4911,0.0,0.0,0.0,0.0,0.0,0.0,0.0,0.0,-3.6949,-3.7219,-3.7238,-3.7906,0.0,0.0,0.0,0.0,0.0,-3.5603,-3.6128,-3.6512,-3.5839,-3.6103,-3.6546,-3.668,-3.718,-3.7853,-3.8719,-3.8219,-3.8354,-4.0777,-4.0508,-4.0527,-4.2393,-4.4021,-4.6015,-4.8901,-4.9942,-5.0857,-5.2032,-5.2803,-5.3041,-5.2582,-5.317,-5.3537,-5.339,-5.339,-5.3041,-5.2215,-5.2068,-5.1371,-4.9994,-4.9829,-4.9352,-4.8508,-4.9224,-4.9478,-4.9252,-4.8792,-4.7926,-4.6695,-4.63,-4.5586,-4.4647,0.0,-4.5089,-4.4587,-4.4705,-4.4756,-4.4908,-4.638,-4.6972,-4.7124,-4.8511,-4.9069,-4.9171,0.0,0.0,0.0,0.0,0.0,0.0,0.0,0.0,0.0,0.0,0.0,0.0,0.0,0.0,0.0,0.0,0.0,0.0,0.0,0.0,0.0,-2.9063,-2.9929,-3.0814,-3.1679,-3.2122,-3.2968,-3.4199,-3.5103,-3.5949,-3.6699,-3.6209,-3.5741,-3.53,-3.5023,-3.4641,-3.4218,-3.4699,-3.4622,-3.4276,0.0,0.0,0.0,0.0,0.0,0.0,0.0,0.0,0.0,0.0,-3.6916,-3.6626,-3.7674,0.0,0.0,0.0,0.0,0.0,-3.5648,-3.5917,-3.6089,-3.5608,-3.6103,-3.6834,-3.7296,-3.7353,-3.768,-3.9008,-3.8604,-3.8777,-4.1335,-4.0719,-4.0787,-4.3656,-4.6133,-4.819,-4.9676,-5.0409,-5.1096,-5.1885,-5.2325,-5.2582,-5.2637,-5.2986,-5.3023,-5.2582,-5.2546,-5.2197,-5.1389,-5.093,-5.0343,-4.9609,-4.9132,-4.871,-4.8306,-4.8691,-4.8893,-4.8893,-4.8495,-4.7666,-4.6458,-4.6211,-4.5744,-4.5093,0.0,-4.4923,-4.5035,-4.472,-4.4587,-4.4722,-4.621,-4.6786,-4.6972,-4.846,-4.9001,-4.9001,0.0,0.0,0.0,0.0,0.0,0.0,0.0,0.0,0.0,0.0,0.0,0.0,0.0,0.0,0.0,0.0,0.0,0.0,0.0,0.0,-2.8986,-2.939,-2.9852,-3.0698,-3.1948,-3.241,-3.3237,-3.4507,-3.5795,-3.6526,-3.6699,-3.6699,-3.6276,-3.5493,-3.5493,-3.5026,-3.4257,-3.5141,-3.5007,-3.4276,0.0,0.0,0.0,0.0,0.0,0.0,0.0,0.0,0.0,0.0,0.0,0.0,0.0,0.0,0.0,-3.6155,-3.5997,-3.572,-3.5978,-3.5989,-3.5911,-3.5853,-3.643,-3.7238,-3.8104,-3.8084,-3.8334,-3.9873,-3.9662,-3.9796,-4.1739,-4.1373,-4.1871,-4.5209,-4.7964,-4.9903,-5.0452,-5.1001,-5.1591,-5.2197,-5.227,-5.2527,-5.3151,-5.3041,-5.2656,-5.205,-5.183,-5.1371,-5.0563,-4.9738,-4.9297,-4.9297,-4.8471,-4.8122,-4.8306,-4.8306,-4.8306,-4.8306,-4.8306,-4.7633,-4.6486,-4.6486,-4.6266,-4.5836,-4.5233,-4.5175,-4.5459,-4.4998,-4.472,-4.4722,-4.621,-4.7005,-4.7445,-4.8578,-4.9001,-4.9001,0.0,0.0,0.0,0.0,0.0,0.0,0.0,0.0,0.0,0.0,0.0,0.0,0.0,0.0,0.0,0.0,0.0,0.0,0.0,0.0,-2.8679,-3.0237,-2.9583,-3.0333,-3.2756,-3.2141,-3.2987,-3.5411,-3.5545,-3.5968,-3.6699,-3.6699,-3.6276,-3.5493,-3.5493,-3.5026,-3.4257,-3.5141,-3.5007,-3.4276,-3.5161,0.0,0.0,0.0,0.0,0.0,0.0,0.0,0.0,0.0,0.0,0.0,0.0,0.0,-3.5853,-3.7602,-3.7005,-3.5981,-3.6858,-3.6987,-3.6881,-3.6834,-3.7358,-3.8123,-3.9008,-4.0354,-4.17,-4.2624,-4.2777,-4.2797,-4.297,-4.4182,-4.5763,-4.7653,-4.9464,-5.0914,-5.1756,-5.2527,-5.3059,-5.3115,-5.3115,-5.3151,-5.3206,-5.2527,-5.205,-5.1995,-5.1316,-5.0527,-4.9719,-4.8857,-4.8398,-4.8398,-4.7627,-4.7553,-4.8306,-4.8306,-4.8306,-4.8306,-4.8306,-4.8231,-4.8119,-4.8119,-4.7715,-4.6993,-4.7093,-4.6536,-4.5511,-4.5459,-4.5089,-4.4722,-4.621,-4.7631,-4.8849,-4.8968,-4.9001,-4.9001,0.0,0.0,0.0,0.0,0.0,0.0,0.0,0.0,0.0,0.0,0.0,0.0,0.0,0.0,0.0,0.0,0.0,0.0,0.0,-2.8871,-2.9737,-3.0359,-3.0083,-3.0621,-3.2122,-3.2352,-3.3449,-3.5493,-3.6007,-3.668,-3.7507,-3.7031,-3.6358,-3.5565,-3.5622,-3.5449,-3.5141,-3.5488,-3.5411,-3.5103,-3.5468,-3.5603,0.0,0.0,0.0,0.0,0.0,0.0,0.0,0.0,-3.5842,-3.5896,-3.5972,-3.5824,-3.5982,-3.7775,-3.7607,-3.6885,-3.704,-3.6631,-3.6279,-3.6677,-3.7392,-3.8354,-3.9719,-4.1373,-4.2701,-4.3028,-4.4355,-4.5297,-4.4739,-4.6009,-4.7545,-4.8758,-5.0338,-5.1855,-5.2976,-5.3175,-5.3111,-5.288,-5.2604,-5.2252,-5.1775,-5.1426,-5.1041,-5.0545,-5.0215,-4.9462,-4.8122,-4.7737,-4.7333,-4.6819,-4.6837,-4.7002,-4.7314,-4.7956,-4.8306,-4.8306,-4.8306,-4.7792,-4.6819,-4.7149,-4.6669,-4.5638,-4.6336,-4.6388,-4.596,-4.6015,-4.5681,-4.5333,-4.6845,-4.8605,-5.0258,-4.978,-4.9622,-4.9563,0.0,0.0,0.0,0.0,0.0,0.0,0.0,0.0,0.0,0.0,0.0,0.0,0.0,0.0,0.0,0.0,0.0,0.0,-2.7909,-2.9217,-3.0121,-3.0379,-3.0398,-3.0814,-3.1679,-3.2487,-3.3622,-3.5084,-3.5949,-3.6796,-3.7642,-3.6877,-3.635,-3.6037,-3.5805,-3.5844,-3.6095,-3.5825,-3.567,-3.5639,-3.5682,-3.5669,0.0,0.0,0.0,0.0,0.0,0.0,0.0,0.0,-3.5919,-3.5995,-3.5997,-3.5823,-3.5963,-3.7621,-3.7577,-3.6915,-3.6701,-3.5976,-3.5427,-3.6157,-3.7392,-3.8854,-4.0527,-4.2239,-4.3701,-4.4509,-4.6067,-4.7028,-4.6163,-4.7163,-4.8292,-4.8928,-5.0533,-5.202,-5.2899,-5.2749,-5.2486,-5.2232,-5.1837,-5.1389,-5.0857,-5.0325,-4.9903,-4.9609,-4.8857,-4.8031,-4.7168,-4.6709,-4.6361,-4.6158,-4.5847,-4.6195,-4.7205,-4.7939,-4.8306,-4.8306,-4.8306,-4.7719,-4.6673,-4.7039,-4.669,-4.5865,-4.6564,-4.6776,-4.6585,-4.6695,-4.6636,-4.6688,-4.798,-4.9574,-5.1034,-5.0554,-5.0185,-4.9919,0.0,0.0,0.0,0.0,0.0,0.0,0.0,0.0,0.0,0.0,0.0,0.0,0.0,0.0,0.0,0.0,0.0,0.0,-2.7852,-2.8659,-2.9486,-3.0359,-3.0379,-3.0814,-3.1679,-3.2487,-3.3333,-3.4218,-3.5141,-3.6051,-3.6877,-3.6103,-3.6176,-3.6956,-3.6119,-3.6197,-3.6923,-3.608,-3.571,-3.5689,-3.5705,-3.5704,-3.5703,0.0,0.0,0.0,0.0,0.0,0.0,0.0,-3.5996,-3.5996,-3.5996,-3.5762,-3.5809,-3.728,-3.6806,-3.5814,-3.5886,-3.5123,-3.452,-3.5411,-3.7469,-3.9719,-4.1431,-4.3124,-4.5047,-4.7605,-4.8105,-4.7855,-4.7067,-4.7586,-4.8139,-4.8192,-4.9971,-5.1318,-5.1311,-5.1301,-5.1301,-5.1283,-5.1006,-5.0784,-5.0765,-4.926,-4.8636,-4.9481,-4.7278,-4.625,-4.7058,-4.5846,-4.5606,-4.6654,-4.462,-4.5041,-4.8218,-4.8289,-4.8306,-4.8288,-4.8306,-4.8306,-4.8306,-4.8306,-4.8306,-4.8288,-4.8306,-4.7977,-4.7385,-4.7385,-4.7949,-4.8905,-4.9685,-5.0464,-5.1138,-5.1086,-5.0662,-5.0033,0.0,0.0,0.0,0.0,0.0,0.0,0.0,0.0,0.0,0.0,0.0,0.0,0.0,0.0,0.0,0.0,0.0,0.0,-2.8717,-2.8967,-2.9486,-3.0359,-2.9813,-2.989,-3.0775,-3.1621,-3.3333,-3.5968,-3.5718,-3.6051,-3.6897,-3.679,-3.6569,-3.6261,-3.7294,-3.7196,-3.6316,-3.6669,-3.6433,-3.5847,-3.588,-3.5884,-3.5839,0.0,0.0,0.0,0.0,0.0,0.0,0.0,0.0,0.0,-3.5996,-3.5927,-3.6187,-3.7839,-3.7199,-3.5912,-3.5784,-3.5116,-3.4899,-3.681,-3.7834,-3.9142,-4.2047,-4.4489,-4.6855,-4.9394,-4.8952,-4.8221,-4.8586,-4.8856,-4.9122,-4.9417,-5.0507,-5.1516,-5.2134,-5.1944,-5.1531,-5.0999,-5.0567,-4.9751,-4.8344,-4.7755,-4.7333,-4.7021,-4.6324,-4.5828,-4.5718,-4.5332,-4.4891,-4.445,-4.3832,-4.398,-4.4912,-4.7169,-4.7922,-4.7186,-4.7919,-4.7882,-4.7204,-4.7976,-4.7682,-4.6673,-4.781,-4.7899,-4.7192,-4.7337,-4.8532,-5.0166,-4.9928,-5.0958,-5.2509,-5.197,-5.1643,-5.1325,0.0,0.0,0.0,0.0,0.0,0.0,0.0,0.0,0.0,0.0,0.0,0.0,0.0,0.0,0.0,0.0,0.0,0.0,0.0,-2.8717,-2.9333,-2.9871,-2.9717,-3.0025,-3.091,-3.1737,-3.3333,-3.5718,-3.5339,-3.5599,-3.6447,-3.6987,-3.7128,-3.7028,-3.8107,-3.8203,-3.7559,-3.7734,-3.748,-3.6973,-3.7012,-3.6804,-3.6452,0.0,0.0,0.0,0.0,0.0,0.0,0.0,0.0,0.0,-3.5996,-3.5996,-3.6124,-3.6802,-3.6009,-3.4851,-3.4718,-3.4455,-3.4744,-3.6944,-3.8238,-3.9892,-4.3316,-4.6067,-4.8336,-4.9875,-4.9356,-4.8663,-4.8856,-4.8625,-4.8432,-4.8533,-4.9362,-5.0153,-5.0506,-5.032,-4.9976,-4.953,-4.899,-4.8234,-4.7166,-4.6487,-4.614,-4.6096,-4.5385,-4.4984,-4.5093,-4.4707,-4.4175,-4.3516,-4.3484,-4.3504,-4.3504,-4.5847,-4.6709,-4.6067,-4.6929,-4.7021,-4.6415,-4.7369,-4.748,-4.6911,-4.7884,-4.8031,-4.7607,-4.8061,-4.9273,-5.0762,-5.038,-5.1225,-5.2669,-5.2233,-5.1846,-5.1567,0.0,0.0,0.0,0.0,0.0,0.0,0.0,0.0,0.0,0.0,-2.4804,0.0,0.0,0.0,0.0,0.0,0.0,0.0,0.0,0.0,-2.914,-2.9198,-2.9987,-3.0775,-3.1564,-3.2372,-3.3218,-3.4116,-3.4441,-3.4982,-3.573,-3.6882,-3.7793,-3.8496,-3.873,-3.9199,-3.9726,-3.9023,-3.8672,-3.8594,-3.8594,-3.8125,-3.7402,-3.7324,0.0,0.0,0.0,0.0,0.0,0.0,0.0,0.0,-3.5996,-3.5996,-3.5834,-3.4978,-3.4061,-3.3335,-3.333,-3.359,-3.434,-3.6372,-3.8873,-4.1681,-4.4855,-4.7451,-4.9163,-4.9163,-4.9221,-4.9048,-4.8259,-4.7509,-4.6897,-4.6517,-4.7394,-4.7972,-4.7602,-4.7537,-4.7537,-4.7514,-4.6911,-4.6588,-4.6873,-4.5616,-4.5189,-4.6145,-4.4572,-4.3984,-4.4959,-4.406,-4.3511,-4.3511,-4.3501,-4.3504,-4.3504,-4.4546,-4.5095,-4.5077,-4.5627,-4.5902,-4.592,-4.6673,-4.7443,-4.8196,-4.8196,-4.8233,-4.8361,-4.9132,-4.9958,-5.0692,-5.0692,-5.1169,-5.1885,-5.1958,-5.1566,-5.114,0.0,0.0,0.0,0.0,0.0,0.0,0.0,0.0,0.0,0.0,0.0,0.0,0.0,0.0,0.0,0.0,0.0,0.0,0.0,0.0,-2.941,-3.0102,-3.0302,-3.0475,-3.0679,-3.1525,-3.241,-3.3339,-3.4757,-3.5535,-3.5749,-3.7507,-3.8066,-3.7676,-3.9726,-3.998,-3.8906,-3.9414,-3.9238,-3.8594,-3.8594,-3.8496,-3.8242,-3.7559,-3.7187,0.0,0.0,0.0,0.0,0.0,0.0,0.0,-3.5996,-3.5996,-3.5957,-3.5769,-3.5029,-3.4422,-3.5001,-3.4681,-3.4866,-3.7661,-4.095,-4.3855,-4.5278,-4.6547,-4.7451,-4.7451,-4.7952,-4.8317,-4.8125,-4.7971,-4.7818,-4.7742,-4.7933,-4.8068,-4.7991,-4.7972,-4.7853,-4.7537,-4.7352,-4.6954,-4.6137,-4.5773,-4.5397,-4.5011,-4.4411,-4.4149,-4.4374,-4.3811,-4.3497,-4.3497,-4.352,-4.3481,-4.3481,-4.4562,-4.5002,-4.4783,-4.5553,-4.5902,-4.5902,-4.6085,-4.6599,-4.737,-4.737,-4.7737,-4.8324,-4.8508,-4.9077,-4.9848,-4.9848,-5.0343,-5.1132,-5.1756,-5.1894,-5.1779,0.0,0.0,0.0,0.0,0.0,0.0,0.0,0.0,0.0,0.0,0.0,0.0,0.0,0.0,0.0,0.0,0.0,0.0,0.0,0.0,-2.9929,-3.0379,-3.0398,-3.0398,-3.0398,-3.1679,-3.2615,-3.3108,-3.4905,-3.5791,-3.5844,-3.7725,-3.8359,-3.8027,-4.0215,-4.0703,-3.9863,-4.0332,-4.0019,-3.9219,-3.9219,-3.8965,-3.8555,-3.8105,-3.793,-3.7851,-3.7402,0.0,0.0,0.0,0.0,0.0,0.0,0.0,-3.5918,-3.5469,-3.5256,-3.5127,-3.494,-3.4867,-3.5649,-3.8811,-4.1986,-4.4412,-4.4874,-4.5643,-4.6278,-4.6278,-4.6951,-4.7528,-4.7528,-4.7182,-4.6894,-4.6894,-4.6894,-4.6894,-4.6894,-4.6894,-4.6819,-4.6626,-4.644,-4.618,-4.5738,-4.542,-4.5085,-4.4768,-4.4531,-4.4391,-4.4391,-4.4457,-4.4298,-4.3837,-4.3836,-4.3734,-4.3479,-4.4064,-4.425,-4.4121,-4.4544,-4.4745,-4.4782,-4.5553,-4.592,-4.6012,-4.6783,-4.7352,-4.7774,-4.8141,-4.8802,-4.9536,-4.9132,-4.9481,-5.0306,-5.1132,-5.1426,-5.1532,0.0,0.0,0.0,0.0,0.0,0.0,0.0,0.0,0.0,0.0,0.0,0.0,0.0,0.0,0.0,0.0,0.0,0.0,0.0,0.0,0.0,-3.0398,-3.0398,-3.0398,-3.0398,-3.2172,-3.3114,-3.3114,-3.5143,-3.6136,-3.6169,-3.7839,-3.8672,-3.8887,-4.0488,-4.1191,-4.1191,-4.1191,-4.0781,-4.0117,-4.0117,-3.9687,-3.9023,-3.8887,-3.8828,-3.8809,-3.8652,-3.7676,-3.6582,-3.7422,0.0,0.0,0.0,0.0,-3.5858,-3.5076,-3.5198,-3.5405,-3.4508,-3.5303,-3.6953,-3.9441,-4.2024,-4.3932,-4.3874,-4.4528,-4.5163,-4.5163,-4.597,-4.6682,-4.6682,-4.6086,-4.5586,-4.5586,-4.5586,-4.5586,-4.5586,-4.5586,-4.5528,-4.5393,-4.5131,-4.5015,-4.5164,-4.4658,-4.4459,-4.4701,-4.4772,-4.4687,-4.4473,-4.5192,-4.5146,-4.4148,-4.4221,-4.4036,-4.3597,-4.3597,-4.3582,-4.3497,-4.3497,-4.3497,-4.3534,-4.4874,-4.5204,-4.4782,-4.6269,-4.6985,-4.713,-4.7829,-4.86,-4.9279,-4.8434,-4.8618,-4.9462,-5.0288,-5.0582,-5.082,0.0,0.0,0.0,0.0,0.0,0.0,0.0,0.0,0.0,0.0,-2.6371,-2.6441,0.0,0.0,0.0,0.0,0.0,0.0,0.0,0.0,0.0,-3.0398,-3.0398,-3.0398,-3.0398,-3.2172,-3.3119,-3.3193,-3.5767,-3.7068,-3.712,-3.8131,-3.9004,-3.9766,-4.0762,-4.1191,-4.1191,-4.1191,-4.1133,-4.1035,-4.1035,-4.0957,-4.0762,-4.0019,-3.9726,-3.9629,-3.8867,-3.8457,-3.8203,-3.7812,-3.6934,0.0,0.0,0.0,-3.5976,-3.5858,-3.5301,-3.4854,-3.527,-3.7569,-3.9586,-3.858,-4.0412,-4.2412,-4.22,-4.2816,-4.3431,-4.3431,-4.4682,-4.5759,-4.5759,-4.5682,-4.5586,-4.5586,-4.5586,-4.5586,-4.5586,-4.5586,-4.5316,-4.4566,-4.4416,-4.4147,-4.3508,-4.3361,-4.3517,-4.3993,-4.4916,-4.5051,-4.4054,-4.5013,-4.5052,-4.3897,-4.4298,-4.4355,-4.3924,-4.3924,-4.3772,-4.3497,-4.3497,-4.3497,-4.3497,-4.3718,-4.414,-4.4764,-4.5663,-4.6471,-4.7131,-4.7241,-4.7755,-4.8398,-4.759,-4.7774,-4.8581,-4.9426,-4.9738,-4.9976,0.0,0.0,0.0,0.0,0.0,0.0,0.0,0.0,0.0,0.0,0.0,-2.7834,0.0,0.0,0.0,0.0,0.0,0.0,0.0,0.0,0.0,-3.0398,-3.0398,-3.0641,-3.1172,-3.2485,-3.3426,-3.3974,-3.5688,-3.703,-3.8046,-3.8916,-3.9785,-4.0684,-4.2012,-4.2324,-4.1875,-4.1875,-4.1328,-4.0469,-4.0469,-3.9883,-3.9082,-3.9668,-3.9609,-3.9258,-3.9844,-4.0059,-4.0019,-3.9746,-3.8672,-3.7461,-3.7461,0.0,0.0,0.0,-3.568,-3.5232,-3.4732,-3.6799,-3.8709,-3.7021,-3.8027,-3.9569,-4.0258,-4.1412,-4.2374,-4.2374,-4.3355,-4.4201,-4.4201,-4.4201,-4.4201,-4.4201,-4.4586,-4.4701,-4.4259,-4.4586,-4.4547,-4.372,-4.3624,-4.3489,-4.3124,-4.3104,-4.3201,-4.3429,-4.391,-4.3544,-4.2071,-4.2467,-4.2833,-4.3054,-4.3783,-4.3681,-4.2675,-4.3569,-4.3818,-4.3497,-4.3497,-4.3497,-4.3497,-4.3497,-4.3681,-4.4066,-4.4874,-4.5443,-4.581,-4.625,-4.6636,-4.6966,-4.7076,-4.7333,-4.781,-4.9095,-4.9591,-4.9756,0.0,0.0,0.0,0.0,0.0,0.0,0.0,0.0,0.0,0.0,0.0,0.0,0.0,0.0,0.0,0.0,0.0,0.0,0.0,0.0,0.0,-3.0737,-3.0929,-3.1383,-3.2119,-3.3051,-3.3884,-3.46,-3.5753,-3.7118,-3.8633,-3.9922,-4.0996,-4.1894,-4.3144,-4.334,-4.2715,-4.248,-4.168,-4.0488,-3.9824,-3.8789,-3.7715,-3.8574,-3.8516,-3.8164,-3.9902,-4.082,-4.1191,-4.1191,-4.0137,-3.8789,-3.8633,-3.7598,0.0,0.0,0.0,-3.5626,-3.433,-3.5303,-3.644,-3.5347,-3.5916,-3.7036,-3.8084,-3.9738,-4.1046,-4.1046,-4.1797,-4.2431,-4.2447,-4.2797,-4.3104,-4.3104,-4.3605,-4.3797,-4.3181,-4.3624,-4.3682,-4.2874,-4.2777,-4.2681,-4.245,-4.2431,-4.2431,-4.2431,-4.2431,-4.1876,-4.0575,-4.0502,-4.1067,-4.2298,-4.3157,-4.3038,-4.1852,-4.3147,-4.3769,-4.3631,-4.3631,-4.3563,-4.3497,-4.3497,-4.3497,-4.3534,-4.436,-4.4709,-4.4764,-4.5351,-4.5718,-4.5938,-4.6342,-4.6764,-4.726,-4.8508,-4.9077,-4.9407,0.0,0.0,0.0,0.0,0.0,0.0,0.0,0.0,0.0,0.0,0.0,0.0,0.0,-3.0359,-3.0398,-3.0398,-3.0398,-3.0398,-3.0398,-3.1179,-3.1641,-3.1641,-3.2352,0.0,-3.3031,-3.3949,-3.4489,-3.46,-3.6372,-3.7694,-3.8652,-4.1113,-4.2734,-4.3574,-4.3652,-4.3672,-4.3574,-4.2754,-4.2344,-4.2051,-3.9648,-3.8613,-3.8359,-3.6797,-3.6172,-3.6367,-3.8105,-3.9805,-4.1191,-4.1191,-4.0371,-3.9277,-3.8769,-3.8144,-3.7402,0.0,0.0,0.0,-3.4731,-3.3826,-3.3282,-3.3769,-3.4743,-3.5614,-3.5685,-3.7377,-3.8969,-3.8965,-3.985,-4.0639,-4.0635,-4.1986,-4.3104,-4.3104,-4.3143,-4.3143,-4.3104,-4.3143,-4.2835,-4.197,-4.1873,-4.1546,-4.0719,-4.0642,-4.0642,-4.0642,-4.0642,-4.0585,-4.0489,-4.0495,-4.0918,-4.1819,-4.2684,-4.2927,-4.246,-4.3037,-4.353,-4.3986,-4.3986,-4.3804,-4.3497,-4.3497,-4.3497,-4.3534,-4.436,-4.4709,-4.4709,-4.4764,-4.5223,-4.5828,-4.5112,-4.5773,-4.7131,-4.7223,-4.7719,-4.86,0.0,0.0,0.0,0.0,0.0,0.0,0.0,0.0,0.0,0.0,0.0,0.0,0.0,-3.0398,-3.0398,-3.0398,-3.0448,-3.0686,-3.1263,-3.1634,-3.203,-3.2461,-3.2884,-3.3378,-3.3986,-3.4369,-3.4874,-3.5494,-3.6147,-3.7207,-3.8633,-4.0117,-4.1543,-4.2949,-4.4629,-4.5058,-4.4473,-4.3594,-4.291,-4.2226,-4.0234,-3.8769,-3.7754,-3.7695,-3.6973,-3.623,-3.7969,-3.9355,-4.0371,-4.0371,-4.0449,-4.0527,-4.0332,-3.9355,-3.8125,-3.7324,-3.6914,-3.6541,-3.5635,-3.4981,-3.4493,-3.4212,-3.4822,-3.5495,-3.5507,-3.6108,-3.6978,-3.8065,-3.8608,-3.9227,-4.0312,-4.1024,-4.1431,-4.1431,-4.1893,-4.2066,-4.1508,-4.1912,-4.195,-4.1066,-4.0969,-4.0835,-4.0527,-4.0489,-4.0489,-4.0489,-4.0489,-4.0985,-4.2101,-4.1797,-4.1896,-4.2604,-4.2931,-4.3175,-4.3321,-4.3317,-4.3679,-4.4392,-4.4392,-4.4194,-4.3836,-4.3836,-4.3693,-4.3516,-4.3791,-4.392,-4.392,-4.392,-4.4103,-4.4415,-4.5186,-4.5828,-4.6452,-4.7498,-4.8067,-4.8471,0.0,0.0,0.0,0.0,0.0,0.0,0.0,0.0,0.0,0.0,0.0,0.0,0.0,0.0,-3.0968,-3.1275,-3.1358,-3.1652,-3.2241,-3.259,-3.2976,-3.3421,-3.3812,-3.4321,-3.4969,-3.5007,-3.5363,-3.5996,-3.6289,-3.7187,-3.8633,-3.9785,-4.1074,-4.248,-4.4512,-4.5117,-4.4512,-4.3633,-4.293,-4.2207,-3.9941,-3.8672,-3.8144,-3.7832,-3.7363,-3.7051,-3.8516,-3.9414,-3.9941,-4.0234,-4.0723,-4.1191,-4.1191,-4.0137,-3.8867,-3.8867,-3.8301,-3.7461,-3.6582,-3.6289,-3.6086,-3.5489,-3.5432,-3.5618,-3.6028,-3.6098,-3.6493,-3.7964,-3.8358,-3.8862,-4.0254,-4.0504,-4.0489,-4.0489,-4.0989,-4.1162,-4.0566,-4.0989,-4.1143,-4.0566,-4.0489,-4.0489,-4.0489,-4.0489,-4.0489,-4.0489,-4.1043,-4.1793,-4.2752,-4.2775,-4.2755,-4.2662,-4.2662,-4.2808,-4.3139,-4.3205,-4.3601,-4.434,-4.4624,-4.458,-4.4204,-4.4058,-4.3881,-4.3679,-4.3548,-4.3497,-4.3497,-4.3497,-4.3497,-4.3626,-4.4966,-4.5663,-4.6067,-4.7407,-4.8086,-4.8416,0.0,0.0,0.0,0.0,0.0,0.0,0.0,0.0,0.0,-3.0359,0.0,0.0,0.0,0.0,0.0,-3.3031,-3.3186,-3.3245,-3.3276,-3.4081,-3.4554,-3.4568,-3.5298,-3.5765,-3.5913,-3.5913,-3.5939,-3.5996,-3.6855,-3.7715,-3.8594,-4.0312,-4.1543,-4.2363,-4.3242,-4.3633,-4.3574,-4.2754,-4.2402,-4.2109,-3.8769,-3.8418,-3.9629,-3.707,-3.7148,-3.8711,-3.9551,-3.9883,-4.0039,-4.0879,-4.1191,-4.123,-4.1211,-4.041,-3.9707,-4.0859,-3.998,-3.8437,0.0,0.0,0.0,-3.7486,-3.651,-3.5932,-3.7128,-3.7307,-3.7522,-3.8551,-3.9076,-3.958,-4.0346,-4.0485,-4.0489,-4.0489,-4.0489,-4.0489,-4.0489,-4.0489,-4.0489,-4.0489,-4.0489,-4.0489,-4.0489,-4.0489,-4.0489,-4.0489,-4.2063,-4.281,-4.2294,-4.3333,-4.3294,-4.1854,-4.1873,-4.1893,-4.1854,-4.2739,-4.3405,-4.3857,-4.4696,-4.4943,-4.4606,-4.4204,-4.3998,-4.3986,-4.3646,-4.3532,-4.3497,-4.3497,-4.3497,-4.3571,-4.4415,-4.5223,-4.5993,-4.6838,-4.7645,-4.8416,0.0,0.0,0.0,0.0,0.0,0.0,-2.789,-2.8794,-2.9467,0.0,0.0,0.0,-3.1742,-3.2384,-3.2916,-3.3222,-3.3834,-3.4486,-3.5105,-3.5425,-3.5794,-3.6292,-3.6067,-3.5916,-3.5896,-3.5955,-3.5977,-3.5996,-3.623,-3.6816,-3.7676,-3.8809,-3.9766,-4.0625,-4.1504,-4.1894,-4.1914,-4.2266,-4.2402,-4.2266,-4.0742,-4.0039,-3.9824,-3.9101,-3.873,-3.8633,-3.8867,-3.9355,-3.9941,-4.0176,-4.1074,-4.1973,-4.1387,-4.1367,-4.1523,-4.1269,-4.041,-3.9473,-3.9219,0.0,0.0,0.0,0.0,0.0,-3.7411,-3.753,-3.7858,-3.8161,-3.9258,-4.0254,-4.0466,-4.0504,-4.0489,-4.0489,-4.0489,-4.0489,-4.0489,-4.0489,-4.0489,-4.0489,-4.0489,-4.0489,-4.0489,-4.0489,-4.0489,0.0,-4.0947,-4.187,-4.3352,-4.4506,-4.4105,-4.1873,-4.3585,-4.397,-4.2758,-4.4182,-4.4954,-4.5111,-4.5361,-4.5302,-4.4943,-4.4853,-4.4489,-4.3998,-4.3893,-4.3726,-4.3497,-4.3497,-4.3497,-4.3626,-4.5021,-4.57,-4.6067,-4.7462,-4.8122,-4.8416,0.0,0.0,0.0,0.0,0.0,-2.8525,-2.889,-2.9671,-3.0364,0.0,0.0,0.0,-3.29,-3.3759,-3.4327,-3.4385,-3.5203,-3.5943,-3.6445,-3.6523,-3.6721,-3.7113,-3.6401,-3.5976,-3.5937,-3.5976,-3.6172,-3.6543,-3.6914,-3.7539,-3.8398,-3.9277,-3.9961,-4.0469,-4.0976,-4.1191,-4.123,-4.1647,-4.1855,-4.1797,-4.0605,-4.0527,-4.1035,-4.0059,-3.998,-4.0391,-4.0391,-4.0859,-4.1387,-4.0684,-4.1308,-4.2383,-4.2285,-4.2558,-4.2715,-4.1543,-4.1074,-4.0781,-4.0098,-3.9746,-3.9473,-3.9121,0.0,0.0,-3.7938,-3.7604,-3.7536,-3.7473,-3.8223,-3.9027,-3.9392,-3.9638,-3.9946,-4.0408,-4.0485,-4.0504,-4.0504,-4.0489,-4.0489,-4.0489,-4.0489,-4.0489,-4.0489,-4.0489,-4.0489,-4.0489,-4.0835,-4.1931,-4.3968,-4.5045,-4.4739,-4.2893,-4.4278,-4.4432,-4.3104,-4.4393,-4.5047,-4.5047,-4.5432,-4.5495,-4.5302,-4.5161,-4.4853,-4.4436,-4.4318,-4.4046,-4.3693,-4.3693,-4.3631,-4.3644,-4.5259,-4.5902,-4.6085,-4.7719,-4.8306,-4.8379,0.0,0.0,-2.789,-2.7028,-2.8272,-2.964,-3.0448,-3.1357,-3.2228,0.0,0.0,0.0,-3.4723,-3.5563,-3.6086,-3.6195,-3.6967,-3.7441,-3.7441,-3.7539,-3.7559,-3.7441,-3.6699,-3.6289,-3.6289,-3.6289,-3.6621,-3.7305,-3.8164,-3.8945,-3.9629,-4.0605,-4.1055,-4.1055,-4.1149,-4.1183,-4.1177,-4.1044,-4.1004,-4.0912,-3.9589,-4.0605,-4.2676,-4.0644,-4.1055,-4.2734,-4.2851,-4.3125,-4.3203,-4.1816,-4.1875,-4.2715,-4.3672,-4.3906,-4.3535,-4.2168,-4.1992,-4.1933,-4.0449,-4.0605,-4.1016,-4.0234,-3.9941,0.0,-3.8795,-3.7947,-3.7296,-3.7161,-3.7123,-3.7353,-3.8123,-3.8676,-3.9326,-4.0327,-4.0423,-4.0404,-4.0504,-4.0489,-4.0489,-4.0489,-4.0489,-4.0489,-4.0489,-4.0489,-4.0489,-4.0489,-4.1316,-4.245,-4.3932,-4.4932,-4.5047,-4.4182,-4.4355,-4.4047,-4.3239,-4.4047,-4.4432,-4.4451,-4.522,-4.5586,-4.5586,-4.5302,-4.5137,-4.5074,-4.4781,-4.4428,-4.4058,-4.4016,-4.3804,-4.3644,-4.5259,-4.5902,-4.6085,-4.7719,-4.8306,-4.8324,-2.7769,-2.8876,-2.9631,-2.8756,-3.0033,-3.1275,-3.1492,-3.2281,-3.2932,-3.3157,-3.4449,-3.5736,-3.665,-3.6921,-3.7304,-3.8007,-3.8239,-3.8359,-3.8359,-3.9004,-3.9082,-3.8379,-3.8184,-3.8086,-3.8086,-3.8086,-3.7832,-3.7305,-3.8164,-3.832,-3.7832,-3.9414,-4.0156,-4.0175,-4.076,-4.1054,-4.1042,-4.1022,-4.0612,-4.0111,-4.1397,-4.2305,-4.2891,-4.2871,-4.2305,-4.1641,-4.2578,-4.2383,-4.1738,-4.2051,-4.2734,-4.3711,-4.5293,-4.5156,-4.4531,-4.5137,-4.3476,-4.1367,-4.1035,-4.1074,-4.1152,-4.0996,-4.0937,0.0,-4.0543,-4.0252,-4.001,-3.9937,-3.9826,-3.9796,-3.9969,-4.01,-4.0254,-4.0466,-3.9965,-3.9773,-4.0412,-4.0489,-4.0489,-4.0489,-4.0489,-4.0489,-4.0489,-4.0489,-4.0489,-4.0489,-4.1316,-4.195,-4.2277,-4.372,-4.4182,-4.3355,-4.4643,-4.4932,-4.4066,-4.4913,-4.5336,-4.5336,-4.5509,-4.5586,-4.5586,-4.5531,-4.5342,-4.5096,-4.503,-4.4806,-4.4474,-4.4117,-4.3804,-4.3644,-4.5259,-4.5902,-4.6085,-4.7719,-4.8306,-4.8398,-2.8587,-2.9547,-3.0312,-2.9863,-3.091,-3.2095,-3.3005,-3.355,-3.4168,-3.5068,-3.6402,-3.7425,-3.791,-3.7949,-3.8125,-3.8555,-3.9004,-3.9258,-3.9258,-3.9668,-3.9707,-3.9277,-3.8828,-3.8594,-3.8594,-3.8594,-3.8594,-3.8594,-3.9023,-3.9258,-3.9258,-4.0137,-4.0078,-3.9316,-4.0549,-4.0585,-3.9781,-4.1097,-4.1651,-4.1615,-4.1207,-4.1465,-4.1894,-4.043,-4.0937,-4.2519,-4.3086,-4.293,-4.2578,-4.3418,-4.3984,-4.4473,-4.5215,-4.5449,-4.5391,-4.5098,-4.4414,-4.3555,-4.2676,-4.2676,-4.2754,-4.2187,-4.1914,0.0,0.0,-4.0596,-4.006,-3.9562,-3.935,-3.9238,-3.9238,-3.9238,-3.9392,-3.9815,-3.92,-3.9084,-4.0315,-4.0142,-4.0046,-4.045,-4.0489,-4.0489,-4.0489,-4.0489,-4.0489,-4.0489,-4.1316,-4.1797,-4.1797,-4.3393,-4.4124,-4.3701,-4.4932,-4.5393,-4.4951,-4.5374,-4.5586,-4.5586,-4.5586,-4.5586,-4.5586,-4.5586,-4.5513,-4.5342,-4.5342,-4.5161,-4.4806,-4.4455,-4.4319,-4.4391,-4.5037,-4.5553,-4.6049,-4.7278,-4.7976,-4.8361,-2.9425,-3.0129,-3.0779,-3.0777,-3.1672,-3.2883,-3.4301,-3.4699,-3.5423,-3.7011,-3.8029,-3.8652,-3.8828,-3.8555,-3.8555,-3.9062,-3.9277,-3.9609,-4.0117,-4.0156,-4.0078,-3.9902,-3.9531,-3.918,-3.8867,-3.9004,-3.9355,-3.9902,-4.0039,-4.0391,-4.0957,-4.1094,-4.043,-3.9141,-4.0371,-4.0265,-3.9285,-4.1232,-4.2456,-4.2941,-4.113,-4.0988,-4.1504,-3.8242,-3.9785,-4.3711,-4.3828,-4.3906,-4.4023,-4.4453,-4.4746,-4.4805,-4.4141,-4.5039,-4.6016,-4.4609,-4.5195,-4.5996,-4.457,-4.4551,-4.4707,-4.3789,-4.3105,-4.2441,0.0,0.0,0.0,-3.9191,-3.8854,-3.8681,-3.8546,-3.8507,-3.8661,-3.92,-3.87,-3.8719,-4.0065,-3.97,-3.9604,-4.0392,-4.0219,-4.0142,-4.0469,-4.0489,-4.0489,-4.0489,-4.1143,-4.1623,-4.1797,-4.3085,-4.397,-4.4297,-4.497,-4.5432,-4.5586,-4.5586,-4.5586,-4.5586,-4.5586,-4.5586,-4.5586,-4.5586,-4.5586,-4.5586,-4.5586,-4.5438,-4.518,-4.483,-4.485,-4.5084,-4.4973,-4.5424,-4.6232,-4.704,-4.7755,-4.8324,-3.0583,-3.1133,-3.1736,-3.1746,-3.3113,-3.428,-3.455,-3.5252,-3.6112,-3.7148,-3.8045,-3.8887,-3.9668,-3.8379,-3.8379,-4.0703,-3.8887,-3.8574,-4.0898,-4.1055,-4.0703,-3.9922,-4.123,-4.1269,-3.9785,-4.0508,-4.0566,-3.9902,-4.0547,-4.0586,-4.0059,-4.0723,-4.0976,-4.0879,-4.0176,-4.0616,-4.1825,-4.1347,-4.1212,-4.1459,-4.3289,-4.4098,-4.3945,-4.1523,-4.1894,-4.3769,-4.4316,-4.4648,-4.4687,-4.3535,-4.3808,-4.4297,-4.2226,-4.3769,-4.6269,-4.6055,-4.6133,-4.6269,-4.6055,-4.6055,-4.6074,-4.5957,-4.4726,-4.3516,-4.3418,0.0,-4.2743,-4.1996,0.0,-4.1162,-4.0523,0.0,0.0,-3.9392,-3.9219,-3.9219,-3.9411,-3.9354,-3.9604,-4.0392,-3.9181,-3.8873,-4.0354,-4.0489,-4.0489,-4.0489,-4.0585,-4.0969,-4.1758,-4.1989,-4.2758,-4.4239,-4.4393,-4.4816,-4.5586,-4.5586,-4.5586,-4.5586,-4.5586,-4.5586,-4.5586,-4.5586,-4.5586,-4.5586,-4.5586,-4.5586,-4.5513,-4.518,-4.4905,-4.4729,-4.5497,-4.6269,-4.7076,-4.7884,-4.8233,-4.8416,-3.1453,-3.2089,-3.2868,-3.3375,-3.4094,-3.4964,-3.6002,-3.7342,-3.8365,-3.8769,-3.9961,-4.0937,-4.1308,-4.1152,-4.1055,-4.1191,-4.0195,-4.0039,-4.1133,-4.1191,-4.1465,-4.207,-4.2773,-4.2812,-4.2129,-4.1973,-4.1696,-4.1295,-4.1597,-4.1306,-4.044,-4.1259,-4.1169,-4.0312,-3.9883,-4.0101,-4.0838,-4.1513,-4.2075,-4.2695,-4.4753,-4.559,-4.5488,-4.4512,-4.4609,-4.5234,-4.5508,-4.5664,-4.5664,-4.5078,-4.5195,-4.543,-4.4453,-4.5137,-4.6308,-4.6308,-4.6308,-4.6308,-4.6308,-4.6308,-4.6308,-4.6308,-4.5742,-4.5078,-4.457,-4.3976,-4.3403,-4.3018,0.0,0.0,0.0,0.0,0.0,0.0,-3.9604,-3.945,-3.9931,-3.9161,-3.9027,-4.0335,-3.9873,-3.9527,-3.9777,-3.9796,-3.9796,-3.9796,-4.0239,-4.0662,-4.1027,-4.1527,-4.2354,-4.3566,-4.4066,-4.472,-4.5586,-4.5586,-4.5586,-4.5586,-4.5586,-4.5586,-4.5586,-4.5586,-4.5586,-4.5586,-4.5586,-4.5586,-4.5568,-4.5243,-4.5181,-4.5319,-4.5456,-4.5893,-4.6507,-4.7315,-4.7921,-4.8361,-3.2693,-3.3212,-3.3887,-3.4512,-3.5059,-3.5918,-3.7422,-3.8926,-3.9902,-3.9902,-4.1172,-4.2168,-4.2383,-4.2773,-4.2617,-4.1621,-4.1113,-4.1035,-4.1504,-4.1523,-4.1973,-4.2969,-4.3672,-4.373,-4.3027,-4.2832,-4.2724,-4.2656,-4.2612,-4.2247,-4.1527,-4.2148,-4.1852,-4.0758,-4.0542,-4.0566,-4.0878,-4.1949,-4.2873,-4.3757,-4.5312,-4.6094,-4.6308,-4.6308,-4.6308,-4.6308,-4.6308,-4.6308,-4.6308,-4.6308,-4.6308,-4.6308,-4.6308,-4.6308,-4.6308,-4.6308,-4.6308,-4.6308,-4.6308,-4.6308,-4.6308,-4.6308,-4.6308,-4.6133,-4.5508,-4.4805,-4.4192,-4.3863,-4.3655,0.0,0.0,0.0,-4.1797,-4.0681,0.0,-4.0027,-4.0142,-3.9315,-3.9142,-4.0354,-4.0489,-4.0181,0.0,-3.9488,-3.9527,-3.9315,-3.9835,-4.0162,-4.0162,-4.0969,-4.195,-4.3066,-4.3874,-4.472,-4.5586,-4.5586,-4.5586,-4.5586,-4.5586,-4.5586,-4.5586,-4.5586,-4.5586,-4.5586,-4.5586,-4.5586,-4.5586,-4.5342,-4.5373,-4.5609,-4.5529,-4.573,-4.6136,-4.6838,-4.7627,-4.8306,-3.4609,-3.4629,-3.4668,-3.4687,-3.6094,-3.7519,-3.8418,-3.9316,-3.9902,-3.9902,-4.0684,-4.1543,-4.2324,-4.1738,-4.1562,-4.2305,-4.0879,-4.0625,-4.2266,-4.2363,-4.2031,-4.1308,-4.3633,-4.3808,-4.1328,-4.2832,-4.3635,-4.3553,-4.3438,-4.3344,-4.3323,-4.3362,-4.3389,-4.3434,-4.2666,-4.2773,-4.3516,-4.2734,-4.289,-4.3796,-4.4684,-4.5547,-4.6308,-4.6308,-4.6308,-4.6308,-4.6308,-4.6308,-4.6308,-4.6308,-4.6308,0.0,0.0,-4.6308,-4.6308,-4.6308,-4.6308,-4.6308,-4.6308,-4.6308,-4.6308,-4.6308,-4.6308,-4.6289,-4.6269,-4.6133,-4.5776,-4.492,-4.4607,-4.4184,-4.3319,-4.3104,-4.2489,-4.0777,-4.1181,0.0,0.0,-3.995,-4.0431,-4.0489,-4.0489,-4.0181,-3.9373,-3.9988,-4.0142,-3.9354,-3.9315,-3.9335,-3.9335,-4.0085,-4.1316,-4.3047,-4.3874,-4.472,-4.5586,-4.5586,-4.5586,-4.5586,-4.5586,-4.5586,-4.5586,-4.5586,-4.5586,-4.5586,-4.5586,-4.5586,-4.5586,-4.5586,-4.54,-4.5189,-4.5967,-4.6304,-4.642,-4.6929,-4.7627,-4.8306,-3.4707,-3.5625,-3.623,-3.5664,-3.6055,-3.7129,-3.9141,-4.0644,-4.1758,-4.2344,-4.3164,-4.3828,-4.4082,-4.4394,-4.4219,-4.334,-4.2734,-4.2402,-4.2402,-4.2949,-4.3144,-4.2871,-4.4785,-4.5195,-4.375,-4.4277,-4.4523,-4.4468,-4.4369,-4.3993,-4.3415,-4.3893,-4.4196,-4.4264,-4.2743,-4.2641,-4.3613,-4.332,-4.3388,-4.3826,-4.5288,-4.6035,-4.6308,-4.6308,-4.6308,-4.6308,-4.6308,-4.6308,0.0,-4.6308,-4.6308,-4.6308,-4.6308,-4.6308,-4.6308,-4.6308,-4.6308,-4.6308,0.0,0.0,-4.6308,-4.6308,-4.6308,-4.6308,-4.6308,-4.6269,-4.6102,-4.5629,-4.5471,-4.5124,-4.4105,-4.347,-4.272,-4.1546,-4.1123,-4.0739,0.0,-4.0835,-4.1354,-4.1354,-4.0373,-3.9796,-4.0065,-3.9335,-3.8719,-3.845,-3.8969,-3.9296,-3.9296,-4.0604,-4.1893,-4.3066,-4.3874,-4.472,-4.5586,-4.5586,-4.5586,-4.5586,-4.5586,-4.5586,-4.5586,-4.5586,-4.5586,-4.5586,-4.5586,-4.5586,-4.5586,-4.5586,-4.54,-4.5173,-4.5993,-4.6339,-4.6485,-4.7244,-4.7849,-4.8306,-3.5625,-3.6484,-3.6953,-3.6113,-3.6465,-3.7748,-4.0349,-4.1682,-4.2695,-4.3555,-4.4433,-4.5,-4.5,-4.5781,-4.5723,-4.4297,-4.416,-4.3789,-4.293,-4.3672,-4.3887,-4.3262,-4.4902,-4.5273,-4.4101,-4.4687,-4.4961,-4.4863,-4.5122,-4.4936,-4.4297,-4.4768,-4.5028,-4.5062,-4.3854,-4.343,-4.3623,-4.3919,-4.3906,-4.3848,-4.5605,-4.6308,-4.6367,-4.6992,-4.6836,-4.6308,0.0,-4.6308,-4.6308,-4.6308,-4.6308,-4.6308,-4.6308,-4.6308,-4.6308,-4.6308,-4.6308,-4.6308,-4.6308,-4.6308,0.0,-4.6308,-4.6308,0.0,-4.6308,-4.6308,-4.6247,-4.6021,-4.5929,-4.5584,-4.4564,-4.4162,-4.3508,-4.2047,-4.1585,-4.1316,0.0,-4.145,-4.2027,-4.2624,-4.1219,-4.0392,-4.0912,-3.97,-3.8642,-3.8046,-3.8815,-3.9161,-3.8854,-4.0431,-4.1873,-4.3066,-4.3874,-4.472,-4.5586,-4.5586,-4.5586,-4.5586,-4.5586,-4.5586,-4.5586,-4.5586,-4.5586,-4.5586,-4.5586,-4.5586,-4.5586,-4.5586,-4.5457,-4.532,-4.5712,-4.619,-4.6707,-4.7439,-4.7955,-4.8343,-3.7344,-3.7246,-3.6952,-3.6327,-3.7498,-3.936,-4.1909,-4.2412,-4.2811,-4.3633,-4.4512,-4.5078,-4.5117,-4.582,-4.5976,-4.5195,-4.5098,-4.4687,-4.3828,-4.457,-4.4277,-4.248,-4.4062,-4.4199,-4.25,-4.4121,-4.4961,-4.4863,-4.5703,-4.6036,-4.5916,-4.5896,-4.5888,-4.5911,-4.5892,-4.503,-4.3643,-4.4445,-4.4394,-4.3906,-4.5625,-4.6308,-4.6484,-4.8144,-4.7734,-4.6308,-4.6308,-4.6308,-4.6308,-4.6308,-4.6308,-4.6308,-4.6308,-4.6308,-4.6308,-4.6308,-4.6308,-4.6308,-4.6308,-4.6308,-4.6308,-4.6308,-4.6308,0.0,0.0,-4.6308,-4.6269,-4.6133,-4.5987,-4.5637,-4.4735,-4.5103,-4.4739,-4.2316,-4.2585,-4.2797,-4.1931,-4.1873,-4.2508,-4.4066,-4.2835,-4.1873,-4.1873,-4.095,-3.9719,-3.8123,-3.8757,-3.8873,-3.8046,-3.9623,-4.1335,-4.3047,-4.3874,-4.472,-4.5586,-4.5586,-4.5586,-4.5586,-4.5586,-4.5586,-4.5586,-4.5586,-4.5586,-4.5586,-4.5586,-4.5586,-4.5586,-4.5586,-4.5586,-4.5587,-4.5338,-4.6011,-4.7175,-4.7591,-4.8011,-4.8489,-3.7982,-3.7981,-3.8404,-4.02,-4.0326,-4.066,-4.2075,-4.3364,-4.454,-4.5485,-4.582,-4.6211,-4.6855,-4.6543,-4.6465,-4.6894,-4.6348,-4.5605,-4.4726,-4.5488,-4.4902,-4.25,-4.4062,-4.4492,-4.3398,-4.4433,-4.5293,-4.5918,-4.6133,-4.6229,-4.62,-4.5984,-4.59,-4.5892,-4.5738,-4.4857,-4.3511,-4.4356,-4.4708,-4.4766,-4.5859,-4.6308,-4.6348,0.0,-4.6699,-4.6308,-4.6308,-4.6308,-4.6308,-4.6308,-4.6308,-4.6308,-4.6308,-4.6308,-4.6308,-4.6308,-4.6308,-4.6308,-4.6308,-4.6308,-4.6308,-4.6308,-4.6308,-4.6308,0.0,0.0,0.0,-4.6133,-4.5994,-4.5808,-4.5536,-4.5026,-4.4412,-4.3758,-4.3335,-4.2797,-4.1931,-4.2874,-4.3605,-4.3431,-4.3028,-4.2777,-4.2777,-4.0258,-3.845,-3.8027,-3.82,-3.8238,-3.8007,0.0,-4.197,-4.3066,-4.3874,-4.472,-4.5586,-4.5586,-4.5586,-4.5586,-4.5586,-4.5586,-4.5586,-4.5586,-4.5586,-4.5586,-4.5586,-4.5586,-4.5586,-4.5586,-4.5586,-4.572,-4.6877,-4.7957,-4.8784,-4.8303,-4.8622,-4.9297,-3.8832,-3.9085,-3.9915,-4.2148,-4.2473,-4.2641,-4.3255,-4.4169,-4.5133,-4.6088,-4.6599,-4.6914,-4.7012,-4.6933,-4.6914,-4.7012,-4.6582,-4.6094,-4.5605,-4.6035,-4.5469,-4.3613,-4.4473,-4.459,-4.3711,-4.418,-4.4863,-4.5723,-4.5723,-4.5937,-4.6289,-4.603,-4.5906,-4.5892,-4.5699,-4.4991,-4.4008,-4.4595,-4.5116,-4.5605,-4.6094,-4.6308,0.0,-4.6308,-4.6308,-4.6308,-4.6308,-4.6308,-4.6308,-4.6308,-4.6308,-4.6308,-4.6308,-4.6308,-4.6308,-4.6308,-4.6308,-4.6308,-4.6308,-4.6308,-4.6308,-4.6308,-4.6308,-4.6308,-4.6308,-4.6308,-4.6289,0.0,-4.6092,-4.5847,0.0,-4.5124,-4.4797,-4.4374,-4.3624,-4.3047,-4.2912,-4.3701,-4.4259,-4.4201,-4.3855,-4.3624,-4.3624,-4.0873,-3.895,-3.8584,-3.8892,-3.8931,0.0,0.0,-4.1816,-4.3066,-4.3874,-4.472,-4.5586,-4.5802,-4.5802,-4.5586,-4.5438,-4.5476,-4.5586,-4.5586,-4.5586,-4.5586,-4.5586,-4.5586,-4.5586,-4.5586,-4.5817,-4.6318,-4.7817,-4.8517,-4.8721,-4.8987,-4.9306,-4.9627,-4.0065,-4.0604,-4.1505,-4.3034,-4.4064,-4.4761,-4.501,-4.5015,-4.5323,-4.6336,-4.7138,-4.7363,-4.6719,-4.7207,-4.7305,-4.6543,-4.6367,-4.6308,-4.6308,-4.6308,-4.5918,-4.5039,-4.5,-4.4648,-4.3887,-4.3769,-4.418,-4.5176,-4.5058,-4.5449,-4.6289,-4.6026,-4.5911,-4.5892,-4.5699,-4.5201,-4.4542,-4.4865,-4.5371,-4.5976,-4.6211,-4.6308,-4.6308,-4.6308,-4.6308,-4.6308,-4.6308,-4.6308,-4.6308,-4.6308,-4.6308,-4.6308,-4.6308,-4.6308,-4.6308,-4.6308,-4.6308,-4.6308,-4.6308,-4.6308,-4.6308,-4.6308,-4.6308,-4.6308,-4.6308,-4.6308,-4.6308,-4.6308,-4.6199,-4.5861,-4.5015,-4.5351,-4.5488,-4.4605,-4.3874,-4.3624,-4.422,-4.4393,-4.4701,-4.5336,-4.4759,0.0,-4.4297,-4.2104,-4.0315,-3.9508,-4.0085,-4.0142,0.0,0.0,-4.1296,-4.3047,-4.3778,-4.4662,-4.5759,-4.6069,-4.6069,-4.5759,-4.532,-4.5243,-4.5531,-4.5495,-4.5495,-4.5531,-4.5495,-4.5495,-4.555,-4.5646,-4.6299,-4.7318,-4.8395,-4.8502,-4.8268,-4.9604,-5.001,-4.9994,-4.2456,-4.2739,-4.3109,-4.4239,-4.5066,-4.5873,-4.6775,-4.6333,-4.6465,-4.8185,-4.7945,-4.7812,-4.8379,-4.7949,-4.7539,-4.7383,-4.6719,-4.6308,-4.6308,-4.6308,-4.5918,-4.5039,-4.5,-4.4922,-4.4785,-4.4062,-4.4473,-4.6074,-4.5351,-4.5449,-4.6289,-4.6026,-4.5911,-4.5892,-4.5699,-4.4876,-4.3698,-4.4612,-4.4668,-4.4277,-4.5723,-4.6308,-4.6308,-4.6308,-4.6308,-4.6308,-4.6308,-4.6308,-4.6308,-4.6308,-4.6308,-4.6308,-4.6308,-4.6308,-4.6308,-4.6308,-4.6308,-4.6308,-4.6308,-4.6308,-4.6308,-4.6308,-4.6308,-4.6308,-4.6308,-4.6308,-4.6308,-4.6308,-4.6181,-4.6007,-4.5735,0.0,-4.5566,-4.5393,-4.524,-4.4951,-4.4374,-4.4913,-4.5163,-4.4605,-4.4393,-4.4297,-4.4297,-4.2643,-4.1219,-4.0335,-4.0412,-4.0142,0.0,0.0,-4.1296,0.0,-4.3239,0.0,0.0,0.0,-4.605,-4.6663,-4.5587,-4.5118,-4.518,-4.4896,-4.4919,-4.518,-4.4896,-4.4943,-4.5239,-4.5908,-4.7297,-4.8952,-4.8853,-4.9356,-5.0184,-5.0116,-5.0731,-5.1591,-4.3824,-4.4017,-4.4408,-4.5757,-4.6352,-4.7113,-4.8525,-4.8075,-4.7876,-4.8783,-4.8926,-4.8945,-4.8906,-4.8535,-4.8086,-4.7637,-4.6797,-4.6308,-4.6308,-4.6308,-4.6113,-4.5683,-4.5664,-4.5664,-4.5664,-4.4824,-4.5019,-4.6308,-4.543,-4.5449,-4.6308,-4.6104,-4.6007,-4.5988,-4.5432,-4.5012,-4.4709,-4.4909,0.0,-4.5117,-4.5957,-4.6308,-4.6308,-4.6308,-4.6308,-4.6308,-4.6308,-4.6308,-4.6308,-4.6308,-4.6308,-4.6308,-4.6308,-4.6308,-4.6308,-4.6308,-4.6308,-4.6308,-4.6308,-4.6308,-4.6308,-4.6308,-4.6308,-4.6308,-4.6308,-4.6308,-4.6308,-4.6308,-4.6258,-4.6164,-4.6034,-4.5831,0.0,0.0,-4.5643,-4.5451,-4.5028,-4.5336,-4.5278,-4.4393,-4.4297,-4.4297,-4.4297,-4.3566,-4.2566,-4.1277,-4.1162,-4.0816,0.0,0.0,-4.1296,0.0,0.0,0.0,-4.6201,0.0,-4.5955,-4.5954,-4.5198,-4.4849,-4.4849,-4.4657,-4.4701,-4.4868,-4.5309,-4.5456,-4.5564,-4.6778,-4.8248,-4.972,-4.9772,-5.0277,-5.105,-5.1241,-5.162,-5.1995,-4.5142,-4.5285,-4.5764,-4.7287,-4.7786,-4.8427,-4.9839,-4.9695,-4.9439,-4.9431,-4.9883,-4.9863,-4.9004,-4.8906,-4.8476,-4.7422,-4.6699,-4.6308,-4.6308,-4.6308,-4.6308,-4.6308,-4.6308,-4.6308,-4.6308,-4.5449,-4.543,-4.6308,-4.543,-4.5449,-4.6308,-4.6163,-4.609,-4.6026,-4.5374,0.0,0.0,0.0,-4.5566,-4.6035,-4.623,-4.6308,-4.6308,-4.6308,-4.6308,-4.6308,-4.6308,-4.6308,-4.6308,-4.6308,-4.6308,-4.6308,-4.6308,-4.6308,-4.6308,-4.6308,-4.6308,-4.6308,-4.6308,-4.6308,-4.6308,-4.6308,-4.6308,-4.6308,-4.6308,-4.6308,-4.6308,-4.6308,-4.6248,-4.6182,-4.6085,-4.5921,0.0,0.0,-4.5699,-4.5624,-4.5586,-4.5586,-4.5278,-4.4393,-4.4451,-4.4489,-4.4316,-4.447,-4.3951,-4.245,-4.2181,-4.17,-4.0816,0.0,0.0,0.0,0.0,-4.4816,-4.5874,0.0,-4.5929,-4.5468,-4.4876,-4.465,-4.4701,-4.4742,-4.4844,-4.501,-4.5949,-4.6278,-4.6328,-4.7757,-4.906,-5.0202,-5.0742,-5.1204,-5.1636,-5.2269,-5.2397,-5.227,-4.7123,-4.7222,-4.7489,-4.8559,-4.9292,-4.9841,-5.0136,-5.074,-5.1169,-5.1172,-5.0605,-4.9863,-4.9004,-4.8906,-4.8223,-4.6562,-4.6348,-4.6308,-4.6308,-4.6308,-4.6308,-4.6308,-4.6308,-4.6308,-4.6308,-4.5449,-4.543,-4.6308,-4.543,-4.5449,0.0,-4.6169,-4.6033,-4.593,0.0,0.0,0.0,-4.582,-4.5762,-4.5195,-4.5976,-4.6308,-4.6308,-4.6308,-4.6308,-4.6308,-4.6308,-4.6308,-4.6308,-4.6308,-4.6308,-4.6308,-4.6308,-4.6308,-4.6308,-4.6308,-4.6308,-4.6308,-4.6308,-4.6308,-4.6308,-4.6308,-4.6308,-4.6308,-4.6308,-4.6308,-4.6308,-4.6308,-4.6113,-4.5935,-4.591,-4.5852,-4.5757,0.0,-4.5719,-4.5738,-4.5605,-4.5586,-4.5278,-4.4393,-4.4989,-4.5163,-4.4374,-4.5009,-4.5086,-4.4143,-4.3393,-4.2604,0.0,0.0,0.0,-4.3066,-4.3874,-4.5105,-4.6759,-4.6049,-4.6011,-4.6723,-4.528,-4.4776,-4.5049,-4.519,-4.5565,-4.6134,-4.6384,-4.6881,-4.7583,-4.8478,-4.9559,-5.0722,-5.1492,-5.2015,-5.2399,-5.2474,-5.2767,-5.3206,-4.8201,-4.834,-4.8589,-4.9529,-4.9921,-5.0293,0.0,-5.1191,-5.1406,-5.1406,-5.0703,-5.0078,-4.9726,-4.875,-4.7832,-4.7148,-4.6601,-4.6308,-4.6308,-4.6308,-4.6308,-4.6308,-4.6308,-4.6308,-4.6308,-4.5957,-4.5957,-4.6308,-4.5957,-4.5957,-4.6308,-4.625,0.0,0.0,0.0,-4.5484,-4.5586,-4.5547,-4.5625,-4.5801,-4.6152,-4.6308,-4.6308,-4.6308,-4.6308,-4.6308,-4.6308,-4.6308,-4.6308,-4.6308,-4.6308,-4.6308,-4.6308,-4.6308,-4.6308,-4.6308,-4.6308,-4.6308,-4.6308,-4.6308,-4.6308,-4.6308,-4.6308,-4.6308,-4.6308,-4.6308,-4.63,-4.6298,-4.6157,-4.6007,-4.591,-4.5873,-4.5834,-4.5796,0.0,-4.5776,-4.5738,-4.5643,-4.5278,-4.4393,-4.4605,-4.4682,-4.4335,-4.4624,-4.4893,-4.5066,-4.4297,-4.3451,0.0,0.0,0.0,-4.3797,0.0,-4.4893,-4.6105,-4.5759,-4.5667,-4.5819,-4.5681,-4.5594,-4.5539,-4.611,-4.6778,-4.7465,-4.7052,-4.7847,-4.9496,-4.9375,-5.0302,-5.1787,-5.1898,-5.2361,-5.2905,-5.2905,-5.3336,-5.3977,-4.9101,0.0,-4.9551,0.0,-5.0547,-5.0742,-5.1308,-5.1406,-5.1406,-5.1406,-5.0605,-4.998,-4.9824,-4.8711,-4.7773,-4.7266,-4.666,-4.6308,-4.6308,-4.6308,-4.6308,-4.6308,-4.6308,-4.6308,-4.6308,-4.6308,-4.6308,-4.6308,-4.6308,-4.6308,0.0,0.0,0.0,0.0,-4.5605,-4.5664,-4.6113,-4.5605,-4.5742,-4.6308,-4.6308,-4.6308,-4.6308,-4.6308,-4.6308,-4.6308,-4.6308,-4.6308,-4.6308,-4.6308,-4.6308,-4.6308,-4.6308,-4.6308,-4.6308,-4.6308,-4.6308,-4.6308,-4.6308,-4.6308,-4.6308,-4.6308,-4.6308,-4.6308,-4.6308,-4.6308,-4.6284,-4.6205,-4.6103,-4.6007,-4.5892,-4.5873,-4.5853,-4.5815,0.0,-4.5796,-4.5757,-4.5643,-4.5278,-4.4393,-4.4528,-4.4586,-4.4316,-4.4528,-4.4932,-4.5547,-4.5028,0.0,0.0,0.0,0.0,0.0,0.0,0.0,-4.5586,-4.5586,-4.5495,-4.5262,-4.596,-4.6252,-4.6149,-4.7157,-4.7926,-4.8442,-4.7874,-4.8653,-5.0347,-5.0083,-5.0911,-5.2324,-5.2361,-5.2711,-5.3243,-5.3482,-5.3922,-5.4473,-5.0019,-5.0176,-5.0449,-5.123,-5.1387,-5.1387,-5.1406,-5.1406,-5.1406,-5.1406,-5.041,-4.9492,-4.8965,-4.8906,-4.8183,-4.6465,-4.6308,-4.6308,-4.6308,-4.6308,-4.6308,-4.6308,-4.6308,-4.6308,-4.6308,-4.6308,-4.6308,-4.6308,-4.6308,0.0,-4.6308,0.0,-4.6308,-4.6308,-4.6289,-4.6289,-4.6308,-4.6289,-4.6289,-4.6308,-4.6308,-4.6308,-4.6308,-4.6308,-4.6308,-4.6308,-4.6308,-4.6308,-4.6308,-4.6308,-4.6308,-4.6308,-4.6308,-4.6308,-4.6308,-4.6308,-4.6308,-4.6308,-4.6308,-4.6308,-4.6308,-4.6308,-4.6308,-4.6308,-4.6308,-4.6308,-4.6225,-4.5954,-4.5911,-4.5873,-4.5815,-4.5796,-4.5757,-4.5624,0.0,0.0,-4.5605,-4.5586,-4.5278,-4.4393,-4.5047,-4.524,-4.4374,-4.5066,-4.5586,-4.5586,0.0,0.0,0.0,0.0,0.0,-4.4297,-4.5143,0.0,-4.5586,-4.5586,-4.5586,-4.5605,-4.6066,-4.6506,-4.6933,-4.8204,-4.8832,-4.8878,-4.8878,-4.9174,-4.9685,-5.0453,-5.1261,-5.2068,-5.2876,-5.3206,-5.3316,-5.4087,-5.4399,-5.4638,-5.0859,-5.1016,-5.1094,-5.1367,-5.1406,-5.1406,-5.1406,-5.1406,-5.1406,-5.1406,-5.1074,-5.0781,-5.0625,-4.8516,-4.6894,0.0,-4.6308,-4.6308,0.0,-4.6308,-4.6308,-4.6308,-4.6308,-4.6308,-4.6308,-4.6308,-4.6308,-4.6308,0.0,0.0,0.0,-4.6308,-4.6308,-4.6308,-4.6308,-4.6308,-4.6308,-4.6308,-4.6308,-4.6308,-4.6308,-4.6308,-4.6308,-4.6308,-4.6308,-4.6308,-4.6308,-4.6308,-4.6308,-4.6308,-4.6308,-4.6308,-4.6308,-4.6308,-4.6308,-4.6308,-4.6308,-4.6308,-4.6308,-4.6308,-4.6308,-4.6308,-4.6308,-4.6308,-4.6308,-4.6308,-4.6219,-4.5911,-4.5931,-4.5988,-4.5834,-4.5834,-4.5853,-4.5815,-4.5796,0.0,-4.5738,-4.5643,-4.549,-4.522,-4.5432,-4.549,-4.5201,-4.5432,-4.5586,-4.5586,0.0,0.0,0.0,0.0,0.0,0.0,-4.5451,0.0,-4.649,-4.649,-4.6759,-4.7317,-4.8068,-4.8945,-4.9905,-5.0035,-5.0271,-5.0519,-5.0287,-5.0593,-5.1242,-5.1499,-5.2087,-5.2839,-5.3115,-5.3555,-5.4051,-5.4308,-5.5097,-5.6124,-5.1308,-5.1406,-5.1406,-5.1406,-5.1406,-5.1406,-5.1406,-5.1406,-5.1406,-5.1406,-5.1406,-5.123,-5.0801,-4.8672,0.0,-4.6816,-4.6484,-4.6308,-4.6308,-4.6308,-4.6308,-4.6308,-4.6308,-4.6308,-4.6308,-4.6308,0.0,-4.6308,-4.6308,-4.6308,-4.6308,-4.6308,-4.6308,-4.6308,-4.6308,-4.6308,-4.6308,-4.6308,-4.6308,-4.6308,-4.6308,-4.6308,-4.6308,-4.6308,-4.6308,-4.6308,-4.6308,-4.6308,-4.6308,-4.6308,-4.6308,-4.6308,-4.6308,-4.6308,-4.6308,-4.6308,-4.6308,-4.6308,-4.6308,-4.6308,-4.6308,-4.6308,-4.6308,-4.6308,-4.6308,-4.6308,-4.6204,-4.587,-4.5918,-4.5969,-4.5757,-4.5757,-4.5796,-4.5796,-4.5757,-4.5719,-4.5719,-4.5643,-4.5586,-4.5586,-4.5586,-4.5586,0.0,-4.5586,-4.5586,0.0,0.0,0.0,0.0,0.0,0.0,-4.5586,-4.5913,0.0,-4.6894,-4.7201,-4.7605,-4.8105,-4.9317,-5.056,-5.1789,-5.1516,-5.1374,-5.132,-5.112,-5.1406,-5.1995,-5.1995,-5.2472,-5.3206,-5.3206,-5.3702,-5.4436,-5.473,-5.5684,-5.684,-5.1406,-5.1406,-5.1406,0.0,-5.1406,0.0,-5.1406,-5.1406,-5.1406,-5.1406,-5.1406,-5.0996,-4.9922,-4.9297,-4.8613,-4.7754,0.0,0.0,0.0,-4.6308,-4.6308,-4.6308,-4.6308,-4.6308,-4.6308,-4.6308,-4.6308,-4.6308,-4.6308,-4.6308,-4.6308,-4.6308,-4.6308,-4.6308,-4.6308,-4.6308,-4.6308,-4.6308,-4.6308,-4.6308,-4.6308,-4.6308,-4.6308,-4.6308,-4.6308,-4.6308,-4.6308,-4.6308,-4.6308,-4.6308,-4.6308,-4.6308,-4.6308,-4.6308,-4.6308,-4.6308,-4.6308,-4.6308,-4.6308,-4.6308,-4.6308,-4.6306,-4.6286,-4.6286,-4.6289,-4.6289,-4.618,-4.5862,-4.586,-4.5834,-4.5643,-4.5605,-4.5605,-4.5605,-4.5605,-4.5586,-4.5586,-4.5586,-4.5586,-4.5586,0.0,0.0,-4.5586,-4.5586,-4.5586,0.0,0.0,0.0,0.0,0.0,-4.5682,-4.5682,-4.6528,-4.7009,-4.7067,-4.7875,-4.8336,-4.8471,-5.0106,-5.15,-5.2673,-5.2673,-5.2266,-5.1577,-5.1577,-5.1769,-5.2068,-5.2068,-5.2527,-5.3225,-5.328,-5.3775,-5.4583,-5.5372,-5.618,-5.6987,0.0,0.0,-5.1406,-5.1406,-5.1406,-5.1406,-5.1406,-5.1406,-5.1406,-5.1406,-5.1406,-5.1308,-5.1035,-5.0117,-4.9258,-4.8652,-4.7187,-4.6308,-4.6308,-4.6308,-4.6308,-4.6308,-4.6308,-4.6308,-4.6308,-4.6308,-4.6308,-4.6308,-4.6308,-4.6308,-4.6308,-4.6308,-4.6308,-4.6308,-4.6308,-4.6308,-4.6308,-4.6308,-4.6308,-4.6308,-4.6308,-4.6308,-4.6308,-4.6308,-4.6308,-4.6308,-4.6308,-4.6308,-4.6308,-4.6308,-4.6308,-4.6308,-4.6308,-4.6308,-4.6308,-4.6308,-4.6308,-4.6308,-4.6308,-4.6308,-4.6297,-4.6305,-4.6222,-4.615,-4.6143,-4.6066,-4.5962,-4.5888,-4.588,-4.5873,-4.5776,-4.5757,-4.5757,-4.5757,-4.568,-4.5586,-4.5586,-4.5586,-4.5586,0.0,-4.5586,-4.5586,-4.5586,-4.5586,-4.5586,0.0,0.0,0.0,0.0,-4.622,-4.6586,-4.6586,-4.7394,-4.8144,-4.8798,-4.9663,-5.0721,-5.201,-5.2414,-5.2938,-5.3525,-5.3525,-5.341,-5.3237,-5.3237,-5.3102,-5.2931,-5.2931,-5.3041,-5.328,-5.3885,-5.4601,-5.5409,-5.6216,-5.7024,-5.774,-5.0762,-5.0859,-5.0976,-5.1348,-5.1406,-5.1406,-5.1406,-5.1406,-5.1406,-5.1406,-5.1406,-5.1406,-5.1406,-4.9922,-4.8926,-4.8906,-4.7676,-4.6738,-4.6328,-4.6308,-4.6308,-4.6308,-4.6308,-4.6308,-4.6308,-4.6308,-4.6308,-4.6308,-4.6308,-4.6308,-4.6308,-4.6308,-4.6308,-4.6308,-4.6308,-4.6308,-4.6308,-4.6308,-4.6308,-4.6308,-4.6308,-4.6308,-4.6308,-4.6308,-4.6308,-4.6308,-4.6308,-4.6308,-4.6308,-4.6308,-4.6308,-4.6308,-4.6308,-4.6308,-4.6308,-4.6308,-4.6308,-4.6308,-4.6308,-4.6308,-4.629,-4.6216,-4.6142,-4.6082,-4.6027,-4.5955,-4.5891,-4.5859,-4.5862,-4.5815,-4.5738,-4.5719,-4.5719,-4.5719,-4.5643,-4.5586,-4.5586,-4.5586,-4.5586,-4.5586,-4.5586,-4.5586,-4.5586,-4.5586,-4.5586,-4.5586,-4.597,0.0,-4.6182,-4.774,-4.8105,-4.6951,-4.8452,-4.951,-4.999,-5.1221,-5.2491,-5.3799,-5.3799,-5.4098,-5.4666,-5.4666,-5.4467,-5.4118,-5.4118,-5.3777,-5.3206,-5.3206,-5.3206,-5.3298,-5.4087,-5.4876,-5.5684,-5.651,-5.7317,-5.7997,-5.0215,-5.0371,-5.0605,-5.1289,-5.1406,-5.1406,-5.1406,-5.1406,-5.1406,-5.1406,-5.1406,-5.1406,-5.1406,-4.9668,-4.8574,-4.875,-4.8164,-4.7363,-4.6367,-4.6308,-4.6308,-4.6308,-4.6308,-4.6308,-4.6308,-4.6308,-4.6308,-4.6308,-4.6308,-4.6308,-4.6308,-4.6308,-4.6308,-4.6308,-4.6308,-4.6308,-4.6308,-4.6308,-4.6308,-4.6308,-4.6308,-4.6308,-4.6308,-4.6308,-4.6308,-4.6308,-4.6308,-4.6308,-4.6308,-4.6308,-4.6308,-4.6308,-4.6308,-4.6308,-4.6308,-4.6308,-4.6308,-4.6308,-4.6308,-4.6285,-4.6236,-4.6104,-4.6059,-4.6026,-4.5911,-4.5866,-4.5836,-4.5806,-4.5776,-4.5738,-4.5605,-4.5586,-4.5586,-4.5586,-4.5586,-4.5586,-4.5586,0.0,-4.5643,-4.5778,-4.5797,-4.5836,-4.597,-4.597,-4.597,-4.597,-4.6663,-4.7144,-4.7278,-4.9452,-4.976,-4.7721,-4.9875,-5.1125,-5.126,-5.2683,-5.3837,-5.4684,-5.4684,-5.503,-5.5703,-5.5703,-5.5256,-5.4503,-5.4503,-5.4015,-5.3206,-5.3206,-5.3206,-5.3298,-5.4216,-5.4987,-5.5702,-5.6638,-5.7409,-5.7997,-5.1055,-5.1211,-5.125,-5.1387,-5.1406,-5.1406,-5.1406,-5.1406,-5.1406,-5.1406,-5.1406,-5.1406,-5.1406,-5.1074,-5.0137,-4.8301,-4.8476,-4.8027,-4.6406,-4.6308,-4.6308,-4.6308,-4.6308,-4.6308,-4.6308,-4.6308,-4.6308,-4.6308,-4.6308,-4.6308,-4.6308,-4.6308,-4.6308,-4.6308,-4.6308,-4.6308,-4.6308,-4.6308,-4.6308,-4.6308,-4.6308,-4.6308,-4.6308,-4.6308,-4.6308,-4.6308,-4.6308,-4.6308,-4.6308,-4.6308,-4.6308,-4.6308,-4.6308,-4.6308,-4.6308,-4.6308,-4.6308,-4.6308,-4.6308,-4.6227,-4.6104,-4.5966,-4.5891,-4.5834,-4.5815,-4.5731,-4.5671,-4.5794,-4.5719,-4.5605,-4.5586,-4.5586,-4.5586,-4.5586,-4.5586,-4.5586,-4.5586,0.0,-4.5874,-4.6605,-4.6701,-4.6971,-4.7644,-4.7721,-4.7721,-4.7721,-4.7836,-4.824,-4.8971,-5.0087,-5.0837,-5.1125,-5.2222,-5.3164,-5.3895,-5.4164,-5.4703,-5.5511,-5.5511,-5.5568,-5.5703,-5.5703,-5.5256,-5.4503,-5.4503,-5.4015,-5.3206,-5.3206,-5.3206,-5.3353,-5.4821,-5.5482,-5.5776,-5.7262,-5.7886,-5.7997,-5.0254,-5.0488,-5.0683,-5.1289,-5.1406,-5.1406,-5.1406,-5.1406,-5.1406,-5.1406,-5.1406,-5.1406,-5.1406,-5.0859,-5.0058,-4.9004,-4.8047,-4.7168,-4.6348,-4.6308,-4.6308,-4.6308,-4.6308,-4.6308,-4.6308,-4.6308,-4.6308,-4.6308,-4.6308,-4.6308,-4.6308,-4.6308,-4.6308,-4.6308,-4.6308,-4.6308,-4.6308,-4.6308,-4.6308,-4.6308,-4.6308,-4.6308,-4.6308,-4.6308,-4.6308,-4.6308,-4.6308,-4.6308,-4.6308,-4.6308,-4.6308,-4.6308,-4.6308,-4.6308,-4.6308,-4.6308,-4.6308,-4.6308,-4.6308,-4.6199,-4.6078,-4.5935,-4.5847,-4.5776,-4.5719,-4.5624,-4.5605,-4.568,-4.5624,-4.5586,-4.5586,-4.5586,-4.5586,-4.5586,-4.5586,0.0,-4.5586,-4.599,-4.6451,-4.6855,-4.7278,-4.7702,-4.8067,-4.8529,-4.8798,-4.8798,-4.9644,-5.0317,-5.0741,-5.201,-5.2914,-5.3299,-5.3683,-5.4299,-5.5145,-5.5145,-5.5318,-5.5703,-5.5703,-5.5703,-5.5703,-5.5703,-5.5375,-5.479,-5.4579,-5.4137,-5.3505,-5.3295,-5.3463,-5.3959,-5.5133,-5.5849,-5.6381,-5.7574,-5.7997,-5.7997,-4.9785,-5.0098,-5.0371,-5.125,-5.1406,-5.1406,-5.1406,-5.1406,-5.1406,-5.1406,-5.1406,-5.1406,-5.1406,-5.0591,-4.9937,-4.9684,-4.7942,-4.6757,-4.6514,-4.6342,-4.627,-4.6308,-4.6308,-4.6308,-4.6308,-4.6308,-4.6308,-4.6308,-4.6308,-4.6308,-4.6308,-4.6308,-4.6308,-4.6308,-4.6308,-4.6308,-4.6308,-4.6308,-4.6308,-4.6308,-4.6308,-4.6308,-4.6308,-4.6308,-4.6308,-4.6308,-4.6308,-4.6308,-4.6308,-4.6308,-4.6308,-4.6308,-4.6308,-4.6308,-4.6308,-4.6308,-4.628,-4.6253,-4.6253,-4.6154,-4.6044,-4.5909,-4.5815,-4.5796,-4.5874,-4.5893,-4.5951,-4.6144,-4.6182,-4.6182,-4.6182,-4.6028,-4.5893,-4.5893,0.0,-4.5663,0.0,-4.649,-4.7048,-4.7432,-4.8029,-4.8567,-4.8952,-4.9586,-5.0067,-5.026,-5.1491,-5.2299,-5.2491,-5.378,-5.4587,-5.4761,-5.478,-5.5068,-5.5684,-5.5703,-5.5703,-5.5703,-5.5703,-5.5703,-5.5703,-5.5703,-5.5489,-5.5088,-5.476,-5.4322,-5.3796,-5.3687,-5.3939,-5.4491,-5.5482,-5.6253,-5.6914,-5.7703,-5.7997,-5.7997,-5.084,-5.1269,-5.1308,-5.1387,-5.1406,-5.1406,-5.1406,-5.1406,-5.1406,-5.1406,-5.1406,-5.1406,-5.1406,-5.1208,-5.0661,-4.9621,-4.8918,-4.8133,-4.7194,-4.6487,-4.6177,-4.6289,-4.6308,-4.6308,-4.6308,-4.6308,-4.6308,-4.6308,-4.6308,-4.6308,-4.6308,-4.6308,-4.6308,-4.6308,-4.6308,-4.6308,-4.6308,-4.6308,-4.6308,-4.6308,-4.6308,-4.6308,-4.6308,-4.6308,-4.6308,-4.6308,-4.6308,-4.6308,-4.6308,-4.6308,-4.6308,-4.6308,-4.6308,-4.6308,-4.6308,-4.6308,-4.6212,-4.6108,-4.6108,-4.6016,-4.5889,-4.5838,-4.5719,-4.5817,-4.6624,-4.6797,-4.7028,-4.7759,-4.7913,-4.7913,-4.7913,-4.7317,-4.6797,-4.6797,0.0,0.0,-4.6701,-4.6855,-4.749,-4.9029,-4.926,-4.9913,-5.1471,-5.1683,-5.2049,-5.2856,-5.3029,-5.3453,-5.426,-5.4434,-5.4838,-5.5588,-5.5607,-5.5645,-5.5703,-5.5703,-5.5703,-5.5703,-5.5703,-5.5703,-5.5703,-5.5703,-5.5489,-5.5107,-5.5061,-5.4591,-5.387,-5.4596,-5.4692,-5.4546,-5.6124,-5.6767,-5.6914,-5.7703,-5.7997,-5.7997,-5.0957,-5.1406,-5.1406,-5.1406,-5.1406,-5.1406,-5.1406,-5.1154,-5.0977,-5.0977,-5.1216,-5.1324,-5.1107,-5.053,-5.0221,-5.0356,-4.9277,-4.8399,-4.8028,-4.7224,-4.6563,-4.6078,-4.6124,-4.6172,-4.6172,-4.6269,-4.6308,-4.6308,-4.6308,-4.6308,-4.6308,-4.6308,-4.6308,-4.6308,-4.6308,-4.6308,-4.6308,-4.6308,-4.6308,-4.6308,-4.6308,-4.6308,-4.6308,-4.6308,-4.6308,-4.6308,-4.6308,-4.6308,-4.6308,-4.6308,-4.6308,-4.6308,-4.6308,-4.6308,-4.6308,-4.6308,-4.658,-4.6896,-4.6799,-4.6687,-4.6572,-4.6562,-4.6855,-4.724,-4.7567,-4.7644,-4.774,-4.8048,-4.8105,-4.8105,-4.8105,-4.7855,-4.7644,-4.7644,0.0,-4.7278,-4.7605,-4.8105,-4.8894,-5.0067,-5.0644,-5.1414,-5.2587,-5.3203,-5.3645,-5.3972,-5.4472,-5.4895,-5.5222,-5.5241,-5.5376,-5.5684,-5.5703,-5.5703,-5.5703,-5.5703,-5.5972,-5.6492,-5.5953,-5.5972,-5.6492,-5.5953,-5.5907,-5.6213,-5.5441,-5.5055,-5.4972,-5.4988,-5.5066,-5.5244,-5.6381,-5.7097,-5.7574,-5.7886,-5.7997,-5.7997,-5.0881,-5.1232,-5.1174,-5.1174,-5.1174,-5.1232,-5.1388,-5.112,-5.0875,-5.0721,-5.0969,-5.1108,-5.0928,-5.0329,-5.0202,-5.0856,-4.9856,-4.9048,-4.868,-4.7428,-4.6464,-4.5922,-4.6037,-4.6101,-4.6094,-4.623,-4.6308,-4.6308,-4.6308,-4.6308,-4.6308,-4.6308,-4.6308,-4.6308,-4.6308,-4.6308,-4.6308,-4.6308,-4.6308,-4.6308,-4.6308,-4.6308,-4.6308,-4.6308,-4.6308,-4.6308,-4.6308,-4.6308,-4.6308,-4.6308,-4.6308,-4.6308,-4.6308,-4.6308,-4.6346,-4.6587,-4.6976,-4.7364,-4.7509,-4.7645,-4.7682,-4.7413,-4.774,-4.8182,-4.8452,-4.8721,-4.899,-4.924,-4.951,-4.9702,-4.9702,-4.949,-4.9298,-4.9298,-4.9086,-4.9009,-4.926,-4.9817,-5.051,-5.1375,-5.1972,-5.2664,-5.353,-5.4145,-5.4607,-5.4857,-5.5395,-5.5703,-5.5703,-5.5703,-5.5703,-5.5703,-5.5703,-5.5818,-5.6107,-5.6107,-5.6549,-5.7396,-5.6799,-5.6819,-5.7376,-5.678,-5.6838,-5.7357,-5.6496,-5.6186,-5.628,-5.6061,-5.6046,-5.6258,-5.693,-5.7519,-5.7997,-5.7997,-5.7997,-5.7997,-5.0741,-5.0895,-5.0702,-5.0702,-5.0702,-5.0875,-5.1318,-5.1376,-5.1222,-5.076,-5.0702,-5.075,-5.0878,-5.0906,-5.0914,-5.0914,-5.0779,-5.0202,-4.9048,-4.6855,-4.5719,-4.5911,-4.6026,-4.6104,-4.6094,-4.623,-4.6308,-4.6308,-4.6308,-4.6308,-4.6308,-4.6308,-4.6308,-4.6308,-4.6308,-4.6308,-4.6308,-4.6308,-4.6308,-4.6308,-4.6308,-4.6308,-4.6308,-4.6308,-4.6308,-4.6308,-4.6308,-4.6308,-4.6308,-4.6308,-4.6308,-4.6328,-4.6328,-4.6328,-4.6468,-4.7194,-4.7318,-4.7384,-4.8116,-4.8856,-4.9202,-4.8336,-4.8125,-4.8355,-4.9221,-5.0087,-5.0933,-5.1741,-5.2606,-5.3203,-5.3203,-5.2491,-5.1914,-5.1914,-5.1241,-5.0991,-5.1798,-5.1914,-5.2241,-5.3106,-5.3222,-5.3549,-5.4414,-5.4511,-5.4838,-5.5645,-5.5703,-5.5703,-5.5703,-5.5703,-5.5703,-5.5703,-5.5703,-5.6126,-5.6973,-5.6973,-5.7434,-5.8319,-5.83,-5.83,-5.8319,-5.83,-5.83,-5.8319,-5.83,-5.804,-5.7634,-5.797,-5.7882,-5.7537,-5.7855,-5.7997,-5.7997,-5.7997,-5.7997,-5.7997,-5.051,-5.0741,-5.0702,-5.0702,-5.0702,-5.0741,-5.0895,-5.0914,-5.0875,-5.0721,-5.0702,-5.0721,-5.0767,-5.0835,-5.0875,-5.076,-5.0721,-4.9875,-4.7932,-4.7509,-4.7124,-4.6624,-4.6142,-4.591,-4.5962,-4.6083,-4.6211,-4.6308,-4.6308,-4.6308,-4.6308,-4.6308,-4.6308,-4.6308,-4.6308,-4.6308,-4.6308,-4.6308,-4.6308,-4.6308,-4.6308,-4.6308,-4.6308,-4.6308,-4.6308,-4.6387,-4.6992,-4.7207,-4.7207,-4.7207,-4.7617,-4.8125,-4.8125,-4.8061,-4.8019,-4.8239,-4.8584,-4.8941,-4.9163,-4.976,-5.0087,-4.9221,-4.9471,-5.0144,-5.0971,-5.1356,-5.1779,-5.2645,-5.3029,-5.3203,-5.3203,-5.2991,-5.2818,-5.2818,-5.2606,-5.2549,-5.2779,-5.2818,-5.3145,-5.401,-5.4107,-5.4434,-5.5261,-5.5338,-5.5434,-5.5684,-5.5703,-5.5703,-5.5703,-5.5703,-5.5703,-5.5703,-5.628,-5.6742,-5.6992,-5.6376,-5.7126,-5.9127,-5.7953,-5.7992,-5.9108,-5.7915,-5.803,-5.9088,-5.7896,-5.7829,-5.8501,-5.8216,-5.7882,-5.7537,-5.7855,-5.7997,-5.7997,-5.7997,-5.7997,-5.7997,-5.026,-5.0702,-5.0702,-5.0702,-5.0702,-5.0702,-5.0702,-5.0702,-5.0702,-5.0702,-5.0702,-5.0702,-5.0702,-5.076,-5.0779,-5.0702,-5.0702,-4.9817,-4.774,-4.7913,-4.799,-4.774,-4.6759,-4.6298,-4.6421,-4.621,-4.6172,-4.6308,-4.6308,-4.6308,-4.6308,-4.6308,-4.6308,-4.6308,-4.6308,-4.6308,-4.6308,-4.6308,-4.6308,-4.6308,-4.6308,-4.6308,-4.6308,-4.6308,-4.6308,-4.6367,-4.6894,-4.7305,-4.7558,-4.7207,-4.74,-4.7839,-4.8195,-4.8219,-4.8221,-4.8874,-4.9298,-4.974,-5.0336,-5.0856,-5.1125,-5.0952,-5.1048,-5.1395,-5.2222,-5.2683,-5.3087,-5.3606,-5.3972,-5.4184,-5.4184,-5.4184,-5.4184,-5.4184,-5.4184,-5.4184,-5.4184,-5.4184,-5.4376,-5.4914,-5.4972,-5.5164,-5.5645,-5.5703,-5.5838,-5.6184,-5.5876,-5.5992,-5.6684,-5.6395,-5.6203,-5.6203,-5.7049,-5.7338,-5.6992,-5.6472,-5.7165,-5.9011,-5.7992,-5.8204,-5.9473,-5.8454,-5.8723,-5.9954,-5.8934,-5.8938,-5.9618,-5.9095,-5.8653,-5.8259,-5.8257,-5.8168,-5.7997,-5.7997,-5.7997,-5.7997,-4.9798,-5.0548,-5.0702,-5.0702,-5.0702,-5.0702,-5.0702,-5.0702,-5.0702,-5.0702,-5.0702,-5.0702,-5.0702,-5.0702,-5.0702,-5.0702,-5.0702,-5.0029,-4.8432,-4.8336,-4.8548,-4.9009,-4.7817,-4.7181,-4.7293,-4.6508,-4.6152,-4.6289,-4.6289,-4.6308,-4.6308,-4.6308,-4.6308,-4.6308,-4.6308,-4.6308,-4.6308,-4.6308,-4.6308,-4.6308,-4.6308,-4.6308,-4.6308,-4.6308,-4.6308,-4.6308,-4.6384,-4.6928,-4.7475,-4.6833,-4.6477,-4.6482,-4.7434,-4.765,-4.7816,-4.9294,-4.976,-5.0106,-5.1509,-5.1972,-5.2241,-5.3106,-5.2722,-5.2337,-5.3145,-5.3933,-5.4511,-5.4587,-5.5184,-5.5703,-5.5703,-5.5703,-5.5703,-5.5703,-5.5703,-5.5703,-5.5703,-5.5703,-5.5703,-5.5703,-5.5703,-5.5703,-5.5703,-5.5703,-5.6049,-5.6915,-5.6261,-5.653,-5.8204,-5.7473,-5.6992,-5.6992,-5.7857,-5.7877,-5.6992,-5.7146,-5.7588,-5.83,-5.83,-5.8723,-5.9492,-5.9492,-5.9973,-6.08,-6.0723,-6.0723,-6.0757,-6.0291,-5.9855,-5.9389,-5.8913,-5.8461,-5.807,-5.8042,-5.7997,-5.7997,-4.8067,-4.9471,-5.0702,-5.0702,-5.0702,-5.0702,-5.0702,-5.0702,-5.0702,-5.0702,-5.0702,-5.0702,-5.0702,-5.0702,-5.0702,-5.0702,-5.0702,-5.0529,-5.0164,-5.0144,-4.9894,-4.9336,-4.9009,-4.8624,-4.8065,-4.6676,-4.6006,-4.6133,-4.625,-4.6308,-4.6308,-4.6308,-4.6308,-4.6308,-4.6308,-4.6308,-4.6308,-4.6308,-4.6308,-4.6308,-4.6308,-4.6308,-4.6308,-4.6308,-4.6308,-4.6384,-4.7067,-4.7365,-4.7618,-4.8671,-4.8564,-4.825,-4.9809,-5.0218,-5.0177,-5.0529,-5.0991,-5.1471,-5.1818,-5.2414,-5.3126,-5.3991,-5.4087,-5.3991,-5.4184,-5.4357,-5.4684,-5.5299,-5.5568,-5.5703,-5.5703,-5.5703,-5.5703,-5.5703,-5.5703,-5.5703,-5.5703,-5.5703,-5.5703,-5.5703,-5.5703,-5.5703,-5.5703,-5.5703,-5.6049,-5.6915,-5.6819,-5.7184,-5.8242,-5.7473,-5.6992,-5.6992,-5.7857,-5.7877,-5.6992,-5.83,-5.8742,-5.83,-5.83,-5.8723,-5.9492,-5.9492,-5.9973,-6.0762,-6.0089,-6.0165,-6.0757,-6.0291,-6.0025,-5.9855,-5.9009,-5.8632,-5.8484,-5.8142,-5.7997,-5.7997,-4.8336,-4.926,-5.0202,-5.0625,-5.0702,-5.0702,-5.0702,-5.0702,-5.0702,-5.0702,-5.0702,-5.0702,-5.0702,-5.0702,-5.0702,-5.0702,-5.0702,-5.0702,-5.0702,-5.0702,-5.0491,-5.0029,-4.949,-4.8875,-4.822,-4.6602,-4.586,-4.6094,-4.6114,-4.6175,-4.6308,-4.623,-4.623,-4.6308,-4.6308,-4.6308,-4.6308,-4.6308,-4.6543,-4.6914,-4.6914,-4.6914,-4.6913,-4.6924,-4.6625,-4.6309,-4.7182,-4.7701,-4.812,-4.9374,-4.9165,-4.8638,-4.9968,-5.0279,-5.0337,-5.1144,-5.1625,-5.2087,-5.2914,-5.3472,-5.403,-5.4857,-5.5068,-5.5068,-5.5068,-5.5068,-5.5184,-5.5607,-5.5703,-5.5703,-5.5703,-5.5703,-5.5703,-5.5703,-5.5703,-5.5703,-5.5703,-5.5703,-5.5703,-5.5703,-5.5703,-5.5857,-5.628,-5.6319,-5.6838,-5.8088,-5.7838,-5.8165,-5.9435,-5.8665,-5.8184,-5.8184,-5.9031,-5.8896,-5.7627,-5.8877,-5.9108,-5.83,-5.83,-5.8723,-5.9492,-5.9492,-5.9973,-6.0762,-6.0319,-6.0377,-6.0781,-6.0553,-6.0311,-6.0025,-5.9319,-5.8913,-5.8654,-5.8418,-5.8351,-5.8307,-4.9452,-4.9625,-4.9856,-5.0567,-5.0702,-5.0702,-5.0702,-5.0702,-5.0702,-5.0702,-5.0702,-5.0702,-5.0702,-5.0702,-5.0702,-5.0702,-5.0702,-5.0702,-5.0702,-5.0702,-5.0702,-5.0702,-4.9779,-4.899,-4.8336,-4.6817,-4.6035,-4.6053,-4.5949,-4.6008,-4.6231,-4.6131,-4.6152,-4.6269,-4.628,-4.6282,-4.6308,-4.6247,-4.6747,-4.7556,-4.74,-4.7437,-4.7576,-4.7569,-4.7046,-4.6432,-4.728,-4.7972,-4.8586,-4.9451,-4.9182,-4.8625,-4.951,-4.9702,-4.9913,-5.1452,-5.201,-5.2472,-5.4068,-5.4607,-5.4876,-5.553,-5.5703,-5.5703,-5.5703,-5.5703,-5.5703,-5.5703,-5.5703,-5.5703,-5.5703,-5.5818,-5.5857,-5.5722,-5.5818,-5.5915,-5.5915,-5.5915,-5.5972,-5.6126,-5.6145,-5.6357,-5.6934,-5.7126,-5.7857,-5.9396,-5.8877,-5.9184,-6.0723,-5.9973,-5.9492,-5.9492,-6.0204,-5.9915,-5.8531,-5.9319,-5.9396,-5.8723,-5.8723,-5.8992,-5.9511,-5.9646,-6.0127,-6.08,-6.08,-6.08,-6.08,-6.08,-6.0578,-6.0161,-5.9709,-5.9212,-5.8796,-5.8632,-5.8632,-5.8632,-5.0337,-5.051,-5.0548,-5.0664,-5.0702,-5.0702,-5.0702,-5.0702,-5.0702,-5.0702,-5.0702,-5.0702,-5.0702,-5.0702,-5.0702,-5.0702,-5.0702,-5.0702,-5.0702,-5.0702,-5.0702,-5.0702,-5.0548,-5.0067,-4.924,-4.8259,-4.7137,-4.5843,-4.5889,-4.5917,-4.5969,-4.6041,-4.6113,-4.6132,-4.6133,-4.6183,-4.6289,-4.6045,-4.6519,-4.7352,-4.6616,-4.6755,-4.7441,-4.7433,-4.7338,-4.7319,-4.8087,-4.8355,-4.8452,-4.9202,-4.9356,-4.9394,-5.0279,-5.0529,-5.0702,-5.1645,-5.2433,-5.3241,-5.4222,-5.5011,-5.5549,-5.5665,-5.5703,-5.5703,-5.5703,-5.5703,-5.5703,-5.5703,-5.5703,-5.5703,-5.5703,-5.6319,-5.6569,-5.5818,-5.6319,-5.6819,-5.6819,-5.6819,-5.7088,-5.7857,-5.7953,-5.7703,-5.7049,-5.7684,-5.8511,-5.9435,-5.9396,-5.9762,-6.0742,-5.9973,-5.9492,-5.9492,-5.9608,-5.9569,-5.9338,-6.0185,-6.0569,-6.0454,-6.0454,-6.0127,-5.9531,-6.0281,-6.0685,-6.08,-6.08,-6.08,-6.08,-6.08,-6.0757,-6.0647,-6.0189,-5.9709,-5.9231,-5.8375,-5.8351,-5.8632,-5.0606,-5.0702,-5.0702,-5.0702,-5.0702,-5.0702,-5.0702,-5.0702,-5.0702,-5.0702,-5.0702,-5.0702,-5.0702,-5.0702,-5.0702,-5.0702,-5.0702,-5.0702,-5.0702,-5.0702,-5.0702,-5.0702,-5.0702,-5.051,-5.0125,-4.9125,-4.8105,-4.7067,-4.6186,-4.5781,-4.5892,-4.5917,-4.5944,-4.5997,-4.5988,-4.603,-4.6076,-4.5948,-4.6448,-4.7239,-4.6874,-4.7253,-4.8009,-4.8009,-4.797,-4.801,-4.874,-4.9279,-4.9683,-5.001,-5.0125,-5.0183,-5.0567,-5.101,-5.1548,-5.2375,-5.3241,-5.4107,-5.4934,-5.5434,-5.5818,-5.6299,-5.6049,-5.5818,-5.6319,-5.6049,-5.5703,-5.5703,-5.6088,-5.6415,-5.6415,-5.7126,-5.7607,-5.7203,-5.7473,-5.7723,-5.7723,-5.7723,-5.7877,-5.8261,-5.83,-5.8338,-5.8396,-5.8742,-5.9319,-6.0165,-6.0223,-6.0396,-6.0781,-6.0435,-6.0223,-6.0223,-6.0223,-6.0223,-6.0223,-6.0608,-6.08,-6.08,-6.08,-6.0589,-6.0242,-6.0608,-6.08,-6.08,-6.08,-6.08,-6.08,-6.08,-6.08,-6.0757,-6.0264,-5.9977,-5.9677,-5.8735,-5.8694,-5.899]}]]